     2              OBSERVATION DATA    GPS                 RINEX VERSION / TYPE
TRRINEXO-V2.3.4-LH UCLA/SCEC 29-JUL-1994                    PGM / RUN BY / DATE
                                                            COMMENT
BIT 2 OF LLI (+4) FLAGS DATA COLLECTED UNDER "AS" CONDITION COMMENT
BIT 2 OF LLI (+4) FLAGS DATA COLLECTED UNDER "AS" CONDITION COMMENT
BIT 2 OF LLI (+4) FLAGS DATA COLLECTED UNDER "AS" CONDITION COMMENT
Original Marker Name: HPGN CALIF STA 0507 1990              COMMENT
Campaign Name: NGS reobservation 93-94                      COMMENT
4-Character Station Name: 0507                              COMMENT
6-Character Antenna Code: TRMSST                            COMMENT
Vertical Measurement Point: BPA                             COMMENT
Vertical Offset to Rinex Ref. Point: 0.0000                 COMMENT
Radial Measurement Point: RRP                               COMMENT
Radial Offset to Rinex Ref. Point: 0.0000                   COMMENT
Antenna Height from Field Measurement: 2.2200 m             COMMENT
Original XYZ: -2679267.8501 -4453882.4221 3684304.4109      COMMENT
New XYZ position is based on association with SCEC monument COMMENT
E1F0J3S3+0011. Position of that monument is believed to be  COMMENT
valid to within 1 m horizontally; vertical accuracy         COMMENT
should be no worse than 3-times this value.                 COMMENT
                                                            COMMENT
Revised Rinex header created by UCSD GPS archive for        COMMENT
GSAC on 19-Apr-1999 (1999:109) 06:50:39 GMT                 COMMENT
For assistance contact dagnew@ucsd.edu or hjohnson@ucsd.edu COMMENT
                                                            COMMENT
HPGN CALIF STA 0507 1990                                    MARKER NAME
E. DUVALL NATIONAL GEODETIC SURVEY                          OBSERVER / AGENCY
1552 TRIMBLE 4000 SSE 5.66                                  REC # / TYPE / VERS
19 TR 4000SST L1/L2 GEO                                     ANT # / TYPE
 -2679252.0000 -4453877.0000  3684281.0000                  APPROX POSITION XYZ
        2.2200        0.0000        0.0000                  ANTENNA: DELTA H/E/N
     1     2     0                                          WAVELENGTH FACT L1/2
     3    C1    L1    L2                                    # / TYPES OF OBSERV
    30                                                      INTERVAL
  1994     3     3    19    46   30.000000                  TIME OF FIRST OBS
  1994     3     4     3     7   30.000000                  TIME OF LAST OBS
     0                                                      # OF SATELLITES
                                                            END OF HEADER
 94  3  3 19 46 30.0000000  0  5 18 19 28 29 31
  20280596.648     -173869.75918   -112339.26919
  21078033.945     -349444.66917   -229778.70819
  23743625.188     -360504.04316   -226684.24819
  21300053.188      253227.83117    165961.95019
  23459109.500     -706495.76415   -446334.97619
 94  3  3 19 47  0.0000000  0  5 18 19 28 29 31
  20276803.742     -193802.752 8   -127871.437 9
  21069881.422     -392288.775 7   -263163.680 9
  23735410.211     -403677.975 6   -260326.169 9
  21306436.711      286772.339 7    192100.525 9
  23442448.063     -794054.236 5   -514562.193 9
 94  3  3 19 47 30.0000000  0  5 18 19 28 29 31
  20273111.148     -213205.896 8   -142990.735 9
  21061796.883     -434773.337 7   -296268.502 9
  23727305.586     -446262.816 6   -293509.016 9
  21312914.453      320815.210 7    218627.431 9
  23425858.391     -881233.850 5   -582494.174 9
 94  3  3 19 48  0.0000000  0  5 18 19 28 29 31
  20269517.664     -232089.856 8   -157705.478 9
  21053781.953     -476889.110 7   -329085.929 9
  23719310.297     -488278.436 6   -326248.499 9
  21319481.266      355321.492 7    245515.432 9
  23409341.570     -968032.231 6   -650129.090 9
 94  3  3 19 48 30.0000000  0  5 18 19 28 29 31
  20266030.453     -250413.686 8   -171983.752 9
  21045847.227     -518587.694 7   -361578.289 9
  23711432.359     -529676.225 6   -358506.389 9
  21326141.594      390321.678 7    272788.298 9
  23392901.914    -1054417.973 6   -717442.506 9
 94  3  3 19 49  0.0000000  0  5 18 19 28 29 31
  20262654.648     -268154.849 8   -185808.006 9
  21037992.445     -559865.552 7   -393742.812 9
  23703680.367     -570422.716 6   -390256.847 9
  21332899.125      425832.793 7    300459.285 9
  23376546.609    -1140369.593 6   -784417.639 9
 94  3  3 19 49 30.0000000  0  5 18 19 28 29 31
  20259388.711     -285317.565 8   -199181.516 9
  21030211.180     -600754.760 7   -425604.490 9
  23696047.734     -610522.728 6   -421503.525 9
  21339750.672      461838.033 7    328515.295 9
  23360269.578    -1225905.425 6   -851068.776 9
 94  3  3 19 50  0.0000000  0  5 18 19 28 29 31
  20256236.867     -301882.412 8   -212089.157 9
  21022503.438     -641261.110 7   -457167.849 9
  23688541.758     -649972.321 6   -452243.355 9
  21346701.422      498364.926 7    356977.802 9
  23344073.992    -1311010.855 5   -917384.533 9
 94  3  3 19 50 30.0000000  0  5 18 19 28 29 31
  20253202.742     -317826.401 8   -224513.014 9
  21014864.992     -681401.115 7   -488445.727 9
  23681161.516     -688753.926 6   -482462.725 9
  21353757.195      535442.844 7    385869.673 9
  23327964.422    -1395671.037 6   -983353.349 9
 94  3  3 19 51  0.0000000  0  5 18 19 28 29 31
  20250285.984     -333153.616 8   -236456.273 9
  21007294.266     -721183.571 7   -519444.998 9
  23673903.227     -726885.535 5   -512175.564 9
  21360918.594      573077.612 7    415195.451 9
  23311941.555    -1479873.463 6  -1048965.487 9
 94  3  3 19 51 30.0000000  0  5 18 19 28 29 31
  20247487.320     -347860.263 8   -247915.976 9
  20999794.102     -760597.734 7   -550157.292 9
  23666768.242     -764390.519 6   -541400.119 9
  21368187.633      611272.323 7    444957.550 9
  23296005.930    -1563606.946 5  -1114212.207 9
 94  3  3 19 52  0.0000000  0  5 18 19 28 29 31
  20244807.195     -361944.167 8   -258890.428 9
  20992367.523     -799625.700 7   -580568.655 9
  23659749.039     -801273.440 6   -570139.971 9
  21375562.984      650032.775 7    475160.474 9
  23280165.094    -1646861.218 6  -1179085.514 9
 94  3  3 19 52 30.0000000  0  5 18 19 28 29 31
  20242245.547     -375406.214 8   -269380.310 9
  20985017.875     -838247.057 7   -610663.172 9
  23652851.883     -837520.250 6   -598384.113 9
  21383047.477      689361.932 7    505806.548 9
  23264409.734    -1729643.393 5  -1243590.946 9
 94  3  3 19 53  0.0000000  0  5 18 19 28 29 31
  20239800.297     -388255.341 8   -279392.605 9
  20977746.477     -876459.437 7   -640439.013 9
  23646076.625     -873130.440 6   -626132.243 9
  21390636.844      729245.786 7    536884.848 9
  23248742.938    -1811971.962 5  -1307742.912 9
 94  3  3 19 53 30.0000000  0  5 18 19 28 29 31
  20237472.586     -400489.937 8   -288926.038 9
  20970552.695     -914261.232 7   -669894.917 9
  23639422.719     -908083.666 6   -653368.410 9
  21398332.453      769687.115 7    568397.539 9
  23233165.047    -1893840.353 6  -1371536.298 9
 94  3  3 19 54  0.0000000  0  5 18 19 28 29 31
  20235259.344     -412119.951 8   -297988.372 9
  20963437.766     -951653.149 8   -699031.428 9
  23632904.477     -942347.213 6   -680067.112 9
  21406136.391      810697.029 7    600353.284 9
  23217673.414    -1975244.237 5  -1434967.745 9
 94  3  3 19 54 30.0000000  0  5 18 19 28 29 31
  20233159.469     -423154.126 8   -306586.409 9
  20956399.617     -988638.439 8   -727851.095 9
  23626515.422     -975924.273 6   -706230.998 9
  21414045.938      852262.072 7    632741.583 9
  23202274.070    -2056177.595 6  -1498032.533 9
 94  3  3 19 55  0.0000000  0  5 18 19 28 29 31
  20231171.773     -433600.254 8   -314726.240 9
  20949437.219    -1025228.355 8   -756362.683 9
  23620254.906    -1008813.516 6   -731858.879 9
  21422059.531      894372.378 7    665554.771 9
  23186964.664    -2136621.310 5  -1560715.787 9
 94  3  3 19 55 30.0000000  0  5 18 19 28 29 31
  20229297.531     -443449.457 8   -322400.940 9
  20942553.281    -1061403.204 8   -784550.835 9
  23614128.641    -1041009.374 6   -756946.426 9
  21430177.055      937028.677 7    698793.402 9
  23171755.492    -2216550.851 6  -1622998.367 9
 94  3  3 19 56  0.0000000  0  5 18 19 28 29 31
  20227539.008     -452689.141 8   -329600.683 9
  20935748.266    -1097161.209 8   -812414.164 9
  23608132.250    -1072522.497 6   -781502.033 9
  21438393.219      980205.657 7    732437.755 9
  23156639.219    -2295982.714 6  -1684893.179 9
 94  3  3 19 56 30.0000000  0  5 18 19 28 29 31
  20225902.289     -461292.587 8   -336304.651 9
  20929022.336    -1132505.705 8   -839955.292 9
  23602263.336    -1103358.300 6   -805529.830 9
  21446707.570     1023897.469 7    766483.291 9
  23141619.438    -2374914.995 6  -1746398.707 9
 94  3  3 19 57  0.0000000  0  5 18 19 28 29 31
  20224389.313     -469240.340 8   -342497.699 9
  20922374.711    -1167440.312 8   -867177.030 9
  23596529.711    -1133491.392 6   -829010.051 9
  21455123.953     1068126.013 7    800947.047 9
  23126695.516    -2453337.366 6  -1807506.898 9
 94  3  3 19 57 30.0000000  0  5 18 19 28 29 31
  20223001.484     -476535.233 8   -348182.014 9
  20915804.211    -1201967.841 8   -894081.568 9
  23590926.570    -1162938.153 6   -851955.470 9
  21463643.547     1112897.564 7    835833.928 9
  23111866.484    -2531260.666 6  -1868226.182 9
 94  3  3 19 58  0.0000000  0  5 18 19 28 29 31
  20221736.219     -483184.512 8   -353363.263 9
  20909307.273    -1236109.633 8   -920685.527 9
  23585452.258    -1191702.623 6   -874369.243 9
  21472269.109     1158220.875 7    871150.747 9
  23097133.109    -2608688.767 6  -1928559.634 9
 94  3  3 19 58 30.0000000  0  5 18 19 28 29 31
  20220589.008     -489210.455 8   -358058.791 9
  20902880.500    -1269884.697 8   -947003.727 9
  23580107.148    -1219787.006 6   -896253.067 9
  21481001.195     1204110.641 7    906908.968 9
  23082496.023    -2685604.894 6  -1988494.158 9
 94  3  3 19 59  0.0000000  0  5 18 19 28 29 31
  20219558.922     -494624.466 8   -362277.494 9
  20896524.805    -1303282.426 8   -973027.919 9
  23574891.289    -1247202.662 6   -917615.837 9
  21489842.477     1250569.743 7    943110.824 9
  23067958.344    -2762001.882 6  -2048024.166 9
 94  3  3 19 59 30.0000000  0  5 18 19 28 29 31
  20218644.984     -499426.608 8   -366019.413 9
  20890243.891    -1336290.463 8   -998748.435 9
  23569799.188    -1273961.664 6   -938466.961 9
  21498788.898     1297584.633 7    979745.761 9
  23053518.227    -2837881.891 6  -2107151.326 9
 94  3  3 20  0  0.0000000  0  5 18 19 28 29 31
  20217849.305     -503609.300 8   -369278.641 9
  20884037.297    -1368905.035 8  -1024162.355 9
  23564833.633    -1300050.004 5   -958795.452 9
  21507837.906     1345138.345 7   1016800.562 9
  23039177.430    -2913246.918 6  -2165877.211 9
 94  3  3 20  0 30.0000000  0  5 18 19 28 29 31
  20217170.516     -507176.550 8   -372058.304 9
  20877907.125    -1401118.268 8  -1049263.546 9
  23559995.922    -1325473.674 6   -978605.999 9
  21516987.133     1393217.873 7   1054265.101 9
  23024929.078    -2988114.464 6  -2224215.448 9
 94  3  3 20  1  0.0000000  0  5 18 19 28 29 31
  20216608.219     -510130.341 8   -374359.948 9
  20871855.555    -1432921.349 8  -1074045.139 9
  23555284.266    -1350238.005 6   -997902.859 9
  21526234.617     1441812.888 7   1092131.311 9
  23010774.922    -3062499.702 6  -2282177.877 9
 94  3  3 20  1 30.0000000  0  5 18 19 28 29 31
  20216162.750     -512471.981 8   -376184.591 9
  20865881.289    -1464315.541 8  -1098508.120 9
  23550701.531    -1374314.903 5  -1016664.069 9
  21535580.297     1490924.519 7   1130400.084 9
  22996713.555    -3136393.988 6  -2339757.733 9
 94  3  3 20  2  0.0000000  0  5 18 19 28 29 31
  20215832.875     -514205.767 8   -377535.581 9
  20859983.234    -1495309.883 8  -1122659.535 9
  23546248.180    -1397704.070 5  -1034889.306 9
  21545027.188     1540567.717 7   1169083.060 9
  22982746.648    -3209789.548 6  -2396948.963 9
 94  3  3 20  2 30.0000000  0  5 18 19 28 29 31
  20215616.961     -515340.415 8   -378419.711 9
  20854160.289    -1525910.154 8  -1146503.882 9
  23541929.719    -1420417.629 6  -1052588.135 9
  21554577.031     1590754.291 7   1208189.457 9
  22968877.070    -3282668.956 6  -2453738.001 9
 94  3  3 20  3  0.0000000  0  5 18 19 28 29 31
  20215517.461     -515862.485 8   -378826.505 9
  20848412.672    -1556113.132 8  -1170038.645 9
  23537738.734    -1442441.224 6  -1069749.378 9
  21564232.383     1641491.410 7   1247724.845 9
  22955114.148    -3354996.608 6  -2510097.087 9
 94  3  3 20  3 30.0000000  0  5 18 19 28 29 31
  20215535.492     -515766.837 8   -378751.967 9
  20842739.219    -1585927.216 8  -1193270.371 9
  23533676.477    -1463780.611 5  -1086377.465 9
  21573990.969     1692775.340 7   1287686.318 9
  22941457.227    -3426769.138 6  -2566023.614 9
 94  3  3 20  4  0.0000000  0  5 18 19 28 29 31
  20215672.523     -515046.856 8   -378190.926 9
  20837140.586    -1615346.712 8  -1216194.623 9
  23529740.734    -1484454.550 5  -1102486.984 9
  21583854.578     1744607.306 7   1328074.848 9
  22927903.992    -3497990.224 6  -2621520.420 9
 94  3  3 20  4 30.0000000  0  5 18 19 28 29 31
  20215929.266     -513698.506 8   -377140.248 9
  20831617.000    -1644373.688 8  -1238813.026 9
  23525937.180    -1504453.788 6  -1118070.766 9
  21593819.234     1796971.870 7   1368878.369 9
  22914455.430    -3568663.274 6  -2676590.167 9
 94  3  3 20  5  0.0000000  0  5 18 19 28 29 31
  20216310.039     -511697.177 8   -375580.752 9
  20826168.898    -1673004.187 8  -1261122.471 9
  23522267.492    -1523747.631 6  -1133104.887 9
  21603887.602     1849879.347 7   1410104.955 9
  22901109.945    -3638789.517 6  -2731233.825 9
 94  3  3 20  5 30.0000000  0  5 18 19 28 29 31
  20216810.398     -509067.736 8   -373531.825 9
  20820792.188    -1701259.048 8  -1283139.234 9
  23518724.859    -1542357.882 6  -1147606.349 9
  21614054.836     1903312.427 7   1451741.086 9
  22887864.414    -3708397.141 6  -2785473.370 9
 94  3  3 20  6  0.0000000  0  5 18 19 28 29 31
  20217428.227     -505822.600 8   -371003.136 9
  20815485.031    -1729149.029 8  -1304871.667 9
  23515310.977    -1560283.130 5  -1161574.014 9
  21624321.305     1957259.470 7   1493777.722 9
  22874714.453    -3777491.258 6  -2839312.730 9
 94  3  3 20  6 30.0000000  0  5 18 19 28 29 31
  20218162.531     -501963.490 8   -367996.025 9
  20810245.375    -1756682.976 8  -1326326.662 9
  23512033.375    -1577514.126 5  -1175000.678 9
  21634682.469     2011710.003 7   1536206.678 9
  22861664.953    -3846065.227 6  -2892746.846 9
 94  3  3 20  7  0.0000000  0  5 18 19 28 29 31
  20219012.680     -497495.898 8   -364514.781 9
  20805074.086    -1783857.207 8  -1347501.370 9
  23508884.195    -1594063.140 6  -1187895.930 9
  21645139.297     2066659.951 7   1579024.792 9
  22848715.844    -3914113.692 6  -2945771.445 9
 94  3  3 20  7 30.0000000  0  5 18 19 28 29 31
  20219978.219     -492420.972 8   -360560.284 9
  20799974.789    -1810654.500 8  -1368382.354 9
  23505865.688    -1609933.419 6  -1200262.332 9
  21655692.211     2122115.678 7   1622237.022 9
  22835869.219    -3981631.106 6  -2998382.242 9
 94  3  3 20  8  0.0000000  0  5 18 19 28 29 31
  20221058.297     -486744.827 8   -356137.308 9
  20794945.914    -1837083.712 8  -1388976.508 9
  23502974.172    -1625130.157 6  -1212103.880 9
  21666339.563     2178066.808 7   1665835.273 9
  22823120.813    -4048622.616 6  -3050583.264 9
 94  3  3 20  8 30.0000000  0  5 18 19 28 29 31
  20222252.961     -480467.584 8   -351245.943 9
  20789983.555    -1863158.229 8  -1409294.292 9
  23500208.242    -1639659.637 6  -1223425.489 9
  21677081.453     2234515.306 7   1709821.080 9
  22810472.977    -4115088.985 6  -3102375.077 9
 94  3  3 20  9  0.0000000  0  5 18 19 28 29 31
  20223562.391     -473586.104 8   -345883.746 9
  20785087.852    -1888883.530 7  -1429339.947 9
  23497568.563    -1653525.436 5  -1234229.925 9
  21687920.258     2291474.659 7   1754204.955 9
  22797924.398    -4181031.171 6  -3153758.452 9
 94  3  3 20  9 30.0000000  0  5 18 19 28 29 31
  20224987.211     -466099.234 8   -340049.822 9
  20780255.984    -1914275.188 7  -1449125.626 9
  23495054.734    -1666733.944 5  -1244522.179 9
  21698857.523     2348951.031 7   1798991.695 9
  22785476.297    -4246440.689 6  -3204726.771 9
 94  3  3 20 10  0.0000000  0  5 18 19 28 29 31
  20226527.289     -458005.943 8   -333743.355 9
  20775486.852    -1939340.981 7  -1468657.380 9
  23492666.375    -1679284.743 5  -1254301.943 9
  21709892.180     2406937.946 7   1844176.264 9
  22773134.617    -4311302.211 6  -3255268.079 9
 94  3  3 20 10 30.0000000  0  5 18 19 28 29 31
  20228181.859     -449310.286 8   -326967.511 9
  20770777.984    -1964084.077 7  -1487937.681 9
  23490403.992    -1691178.047 6  -1263569.398 9
  21721023.211     2465431.759 7   1889755.819 9
  22760892.938    -4375626.956 6  -3305391.123 9
 94  3  3 20 11  0.0000000  0  5 18 19 28 29 31
  20229951.656     -440009.099 8   -319719.822 9
  20766134.570    -1988486.549 7  -1506952.558 9
  23488267.164    -1702414.951 6  -1272325.391 9
  21732251.008     2524431.586 7   1935729.667 9
  22748756.813    -4439405.266 6  -3355088.410 9
 94  3  3 20 11 30.0000000  0  5 18 19 28 29 31
  20231832.266     -430126.852 8   -312019.359 9
  20761554.750    -2012552.074 7  -1525704.885 9
  23486251.086    -1713007.725 6  -1280579.463 9
  21743567.805     2583900.414 7   1982068.967 9
  22736719.297    -4502660.855 6  -3404378.390 9
 94  3  3 20 12  0.0000000  0  5 18 19 28 29 31
  20233825.438     -419652.124 8   -303857.220 9
  20757046.297    -2036243.479 7  -1544165.676 9
  23484365.820    -1722918.922 6  -1288302.444 9
  21754973.461     2643838.710 7   2028774.083 9
  22724782.117    -4565390.457 6  -3453258.503 9
 94  3  3 20 12 30.0000000  0  5 18 19 28 29 31
  20235933.805     -408573.551 8   -295224.552 9
  20752611.195    -2059549.319 7  -1562326.024 9
  23482610.055    -1732145.695 6  -1295492.122 9
  21766469.313     2704250.712 7   2075848.316 9
  22712945.922    -4627590.303 6  -3501725.820 9
 94  3  3 20 13  0.0000000  0  5 18 19 28 29 31
  20238158.492     -396882.663 8   -286114.759 9
  20748251.266    -2082461.463 7  -1580179.601 9
  23480983.672    -1740688.046 6  -1302148.468 9
  21778055.109     2765133.466 7   2123289.370 9
  22701215.109    -4689236.753 6  -3549761.945 9
 94  3  3 20 13 30.0000000  0  5 18 19 28 29 31
  20240499.844     -384578.342 8   -276526.967 9
  20743964.969    -2104986.558 7  -1597731.578 9
  23479490.344    -1748537.107 6  -1308264.596 9
  21789729.820     2826484.715 7   2171095.479 9
  22689591.805    -4750319.678 6  -3597358.976 9
 94  3  3 20 14  0.0000000  0  5 18 19 28 29 31
  20242959.125     -371655.050 8   -266456.859 9
  20739748.148    -2127143.775 7  -1614996.906 9
  23478126.773    -1755700.281 6  -1313846.270 9
  21801494.398     2888307.727 7   2219269.197 9
  22678077.430    -4810824.433 6  -3644505.457 9
 94  3  3 20 14 30.0000000  0  5 18 19 28 29 31
  20245536.813     -358109.045 8   -255901.521 9
  20735597.039    -2148957.710 7  -1631994.748 9
  23476888.953    -1762198.980 6  -1318910.158 9
  21813351.039     2950616.697 7   2267821.572 9
  22666675.672    -4870740.994 6  -3691193.611 9
 94  3  3 20 15  0.0000000  0  5 18 19 28 29 31
  20248232.180     -343944.622 8   -244864.300 9
  20731511.234    -2170429.113 7  -1648725.679 9
  23475781.523    -1768019.550 6  -1323445.644 9
  21825302.914     3013423.290 7   2316761.713 9
  22655388.648    -4930055.365 6  -3737412.531 9
 94  3  3 20 15 30.0000000  0  5 18 19 28 29 31
  20251042.047     -329179.661 8   -233359.127 9
  20727489.570    -2191564.976 7  -1665195.156 9
  23474800.180    -1773173.018 6  -1327461.294 9
  21837350.961     3076734.520 7   2366095.071 9
  22644210.234    -4988795.804 6  -3783184.213 9
 94  3  3 20 16  0.0000000  0  5 18 19 28 29 31
  20253963.875     -313824.667 8   -221394.190 9
  20723532.883    -2212357.793 7  -1681397.329 9
  23473946.313    -1777664.838 6  -1330961.371 9
  21849496.781     3140563.492 7   2415831.861 9
  22633137.695    -5046985.957 6  -3828527.107 9
 94  3  3 20 16 30.0000000  0  5 18 19 28 29 31
  20256993.586     -297904.243 8   -208988.657 9
  20719641.430    -2232808.326 7  -1697332.778 9
  23473216.000    -1781505.516 6  -1333954.054 9
  21861742.398     3204909.922 7   2465971.867 9
  22622167.625    -5104634.421 6  -3873447.873 9
 94  3  3 20 17  0.0000000  0  6  2 18 19 28 29 31
  24311801.750      -16809.72415
  20260128.539     -281430.581 8   -196152.035 9
  20715816.945    -2252904.000 7  -1712991.716 9
  23472610.250    -1784686.984 6  -1336433.043 9
  21874082.789     3269760.383 7   2516504.627 9
  22611297.258    -5161757.169 6  -3917958.999 9
 94  3  3 20 17 30.0000000  0  6  2 18 19 28 29 31
  24292634.523     -117519.385 5
  20263370.031     -264394.761 8   -182877.363 9
  20712062.070    -2272637.438 7  -1728368.392 9
  23472131.672    -1787201.734 6  -1338392.531 9
  21886517.906     3335107.193 7   2567424.150 9
  22600528.211    -5218346.277 6  -3962054.270 9
 94  3  3 20 18  0.0000000  0  6  2 18 19 28 29 31
  24273518.695     -217975.588 5    -41721.57318
  20266719.703     -246791.447 8   -169160.488 9
  20708370.609    -2292036.479 7  -1743484.501 9
  23471778.648    -1789055.630 6  -1339837.035 9
  21899040.531     3400916.452 7   2618704.034 9
  22589864.117    -5274388.664 6  -4005723.532 9
 94  3  3 20 18 30.0000000  0  6  2 18 19 28 29 31
  24254451.102     -318181.184 5   -119803.561 9
  20270182.063     -228598.335 8   -154984.033 9
  20704740.344    -2311111.809 7  -1758348.367 9
  23471553.063    -1790243.017 6  -1340762.172 9
  21911649.422     3467174.063 7   2670333.289 9
  22579307.023    -5329864.392 6  -4048951.233 9
 94  3  3 20 19  0.0000000  0  6  2 18 19 28 29 31
  24235429.922     -418130.565 5   -197685.969 9
  20273760.188     -209795.075 8   -140332.137 9
  20701172.516    -2329862.942 8  -1772959.615 9
  23471455.133    -1790756.104 6  -1341161.894 9
  21924340.977     3533870.189 7   2722304.235 9
  22568857.500    -5384774.851 6  -4091738.461 9
 94  3  3 20 19 30.0000000  0  6  2 18 19 28 29 31
  24216457.625     -517830.782 5   -275374.126 9
  20277452.914     -190388.280 8   -125209.961 9
  20697659.602    -2348323.226 8  -1787344.235 9
  23471479.953    -1790625.339 6  -1341059.916 9
  21937114.867     3600995.203 7   2774609.379 9
  22558516.164    -5439116.076 6  -4134082.105 9
 94  3  3 20 20  0.0000000  0  6  2 18 19 28 29 31
  24197538.422     -617258.341 5   -352849.795 9
  20281263.375     -170366.625 8   -109608.670 9
  20694204.211    -2366480.931 8  -1801493.077 9
  23471627.500    -1789843.006 6  -1340450.230 9
  21949974.039     3668572.078 7   2827266.624 9
  22548285.055    -5492882.975 6  -4175978.228 9
 94  3  3 20 20 30.0000000  0  6  2 18 19 28 29 31
  24178675.680     -716376.528 5   -430084.459 9
  20285192.633     -149716.844 8    -93517.932 9
  20690814.625    -2384292.953 8  -1815372.547 9
  23471905.352    -1788375.726 5  -1339306.831 9
  21962925.789     3736631.414 7   2880299.820 9
  22538168.844    -5546046.994 6  -4217404.595 9
 94  3  3 20 21  0.0000000  0  6  2 18 19 28 29 31
  24159871.016     -815199.739 5   -507089.238 9
  20289236.930     -128462.719 8    -76956.273 9
  20687490.602    -2401760.536 8  -1828983.624 9
  23472313.461    -1786232.843 5  -1337636.976 9
  21975967.391     3805168.633 7   2933705.391 9
  22528165.672    -5598609.221 6  -4258362.013 9
 94  3  3 20 21 30.0000000  0  6  2 18 19 28 29 31
  24141121.234     -913725.575 5   -583862.343 9
  20293397.898     -106598.141 8    -59918.946 9
  20684234.695    -2418873.463 8  -1842318.347 9
  23472852.047    -1783407.522 6  -1335435.404 9
  21989102.047     3874188.583 7   2987487.128 9
  22518279.102    -5650563.588 6  -4298845.794 9
 94  3  3 20 22  0.0000000  0  6  2 18 19 28 29 31
  24122426.422    -1011961.560 5   -660409.610 9
  20297675.328      -84119.487 8    -42403.114 9
  20681047.336    -2435622.083 8  -1855369.194 9
  23473523.203    -1779887.780 6  -1332692.696 9
  22002325.797     3943681.360 7   3041637.292 9
  22508506.438    -5701922.066 6  -4338865.252 9
 94  3  3 20 22 30.0000000  0  6  2 18 19 28 29 31
  24103786.273    -1109922.444 5   -736742.462 9
  20302069.813      -61026.241 8    -24408.384 9
  20677926.617    -2452021.096 8  -1868147.621 9
  23474321.430    -1775696.569 6  -1329426.789 9
  22015637.633     4013634.111 7   3096145.889 9
  22498843.938    -5752695.762 6  -4378429.037 9
 94  3  3 20 23  0.0000000  0  6  2 18 19 28 29 31
  24085196.211    -1207606.761 5   -812859.813 9
  20306582.352      -37313.365 8     -5930.823 9
  20674870.516    -2468081.119 8  -1880661.903 9
  23475244.703    -1770845.935 6  -1325647.018 9
  22029038.156     4084055.964 7   3151020.013 9
  22489291.570    -5802893.265 6  -4417543.860 9
 94  3  3 20 23 30.0000000  0  6  2 18 19 28 29 31
  24066664.133    -1304999.264 5   -888749.818 9
  20311213.367      -12976.781 8     13032.739 9
  20671878.781    -2483802.990 8  -1892912.688 9
  23476292.492    -1765335.110 6  -1321352.835 9
  22042529.195     4154949.172 7   3206261.436 9
  22479850.195    -5852508.355 6  -4456204.849 9
 94  3  3 20 24  0.0000000  0  6  2 18 19 28 29 31
  24048187.680    -1402087.657 5   -964402.864 9
  20315960.477       11968.336 8     32470.479 9
  20668950.656    -2499190.179 8  -1904902.681 9
  23477466.141    -1759164.912 6  -1316544.854 9
  22056108.281     4226307.114 7   3261864.993 9
  22470521.148    -5901533.028 6  -4494405.790 9
 94  3  3 20 24 30.0000000  0  6  2 18 19 28 29 31
  24029770.594    -1498870.194 5  -1039817.581 9
  20320818.852       37498.168 8     52363.835 9
  20666086.836    -2514240.148 8  -1916629.906 9
  23478766.406    -1752332.601 6  -1311220.944 9
  22069774.523     4298124.949 7   3317826.907 9
  22461303.625    -5949970.190 6  -4532148.932 9
 94  3  3 20 25  0.0000000  0  6  2 18 19 28 29 31
  24011410.781    -1595352.276 5  -1114998.245 9
  20325783.023       63586.128 8     72692.106 9
  20663286.195    -2528956.282 8  -1928097.003 9
  23480194.367    -1744826.884 6  -1305372.316 9
  22083526.359     4370389.437 7   3374136.877 9
  22452199.570    -5997809.694 6  -4569426.378 9
 94  3  3 20 25 30.0000000  0  6  2 18 19 28 29 31
  23993107.672    -1691535.544 5  -1189945.998 9
  20330853.820       90232.242 8     93455.302 9
  20660551.523    -2543326.660 8  -1939294.678 9
  23481751.930    -1736644.576 6  -1298996.473 9
  22097362.859     4443098.271 7   3430793.067 9
  22443210.289    -6045048.352 6  -4606235.634 9
 94  3  3 20 25 59.9990000  0  6  2 18 19 28 29 31
  23974859.128    -1787429.485 5  -1264668.308 9
  20336030.128      117434.280 8    114651.685 9
  20657882.128    -2557355.206 8  -1950225.988 9
  23483437.464    -1727786.058 6  -1292093.695 9
  22111281.987     4516247.257 7   3487792.238 9
  22434334.042    -6091698.003 6  -4642585.924 9
 94  3  3 20 26 29.9990000  0  6  2 18 19 28 29 31
  23956663.542    -1883049.544 5  -1339177.229 9
  20341314.237      145202.065 8    136288.908 9
  20655275.097    -2571055.629 8  -1960901.621 9
  23485250.651    -1718259.306 6  -1284670.233 9
  22125289.979     4589861.171 7   3545153.686 9
  22425570.394    -6137749.019 6  -4678469.746 9
 94  3  3 20 26 59.9990000  0  6  2 18 19 28 29 31
  23938519.558    -1978390.072 5  -1413468.320 9
  20346710.339      173559.988 8    158385.977 9
  20652728.331    -2584437.541 8  -1971329.066 9
  23487188.573    -1708074.881 6  -1276734.279 9
  22139388.440     4663946.659 7   3602882.583 9
  22416925.050    -6183178.332 6  -4713869.134 9
 94  3  3 20 27 29.9990000  0  6  2 18 19 28 29 31
  23920430.440    -2073445.081 5  -1487536.992 9
  20352221.729      202520.201 8    180952.360 9
  20650243.644    -2597495.186 8  -1981503.836 9
  23489251.636    -1697228.884 6  -1268282.815 9
  22153576.065     4738504.589 6   3660979.621 9
  22408397.315    -6227991.296 6  -4748788.247 9
 94  3  3 20 27 59.9990000  0  6  2 18 19 28 29 31
  23902399.933    -2168201.989 5  -1561373.354 9
  20357848.315      232090.124 8    203993.848 9
  20647818.565    -2610238.566 8  -1991433.722 9
  23491442.269    -1685716.005 6  -1259311.722 9
  22167852.675     4813527.458 6   3719438.948 9
  22399990.854    -6272171.449 6  -4783214.269 9
 94  3  3 20 28 29.9990000  0  6  2 18 19 28 29 31
  23884427.323    -2262655.999 6  -1634973.682 9
  20363591.136      262270.257 8    227510.821 9
  20645453.315    -2622667.960 8  -2001118.945 9
  23493760.222    -1673538.263 6  -1249822.547 9
  22182215.394     4889003.750 6   3778251.576 9
  22391703.526    -6315719.012 6  -4817147.360 9
 94  3  3 20 28 59.9990000  0  6  2 18 19 28 29 31
  23866508.690    -2356813.834 5  -1708343.235 9
  20369447.933      293045.997 8    251491.911 9
  20643149.683    -2634774.004 8  -2010552.198 9
  23496204.581    -1660695.433 6  -1239815.104 9
  22196658.222     4964898.650 6   3837390.412 9
  22383531.440    -6358664.774 6  -4850611.511 9
 94  3  3 20 29 29.9990000  0  6  2 18 19 28 29 31
  23848647.933    -2450659.982 5  -1781469.936 9
  20375418.144      324419.190 8    275938.544 9
  20640911.823    -2646534.046 8  -2019715.849 9
  23498777.503    -1647177.384 6  -1229281.533 9
  22211181.667     5041222.704 6   3896863.623 9
  22375475.050    -6400999.710 6  -4883599.693 9
 94  3  3 20 29 59.9990000  0  6  2 18 19 28 29 31
  23830853.448    -2544175.174 5  -1854338.748 9
  20381505.034      356406.412 8    300863.637 9
  20638742.401    -2657934.755 8  -2028599.491 9
  23501478.175    -1632979.475 6  -1218218.208 9
  22225792.097     5117998.940 6   3956689.192 9
  22367538.581    -6442707.236 7  -4916098.987 9
 94  3  3 20 30 29.9990000  0  6  2 18 19 28 29 31
  23813117.386    -2637378.514 5  -1926964.567 9
  20387703.995      388982.094 8    326247.271 9
  20636640.315    -2668979.170 8  -2037205.502 9
  23504306.339    -1618113.223 6  -1206634.110 9
  22240485.886     5195216.855 6   4016858.927 9
  22359716.472    -6483808.155 6  -4948125.593 9
 94  3  3 20 30 59.9990000  0  6  2 18 19 28 29 31
  23795440.753    -2730267.156 5  -1999345.156 9
  20394015.589      422149.294 8    352091.832 9
  20634607.440    -2679662.605 8  -2045530.227 9
  23507261.956    -1602583.345 6  -1194532.893 9
  22255264.612     5272877.938 6   4077374.000 9
  22352013.323    -6524286.757 6  -4979667.270 9
 94  3  3 20 31 29.9990000  0  6  2 18 19 28 29 31
  23777822.292    -2822859.509 5  -2071494.903 9
  20400437.589      455899.130 8    378390.389 9
  20632637.144    -2690016.508 8  -2053598.176 9
  23510339.886    -1586411.419 6  -1181931.386 9
  22270126.620     5350978.128 6   4138231.229 9
  22344429.464    -6564143.064 6  -5010724.045 9
 94  3  3 20 31 59.9990000  0  6  2 18 19 28 29 31
  23760258.198    -2915157.694 5  -2143415.430 9
  20406972.081      490236.028 8    405146.396 9
  20630727.761    -2700051.397 8  -2061417.542 9
  23513542.987    -1569581.932 6  -1168817.473 9
  22285071.081     5429511.120 6   4199425.704 9
  22336962.745    -6603382.454 6  -5041300.095 9
 94  3  3 20 32 29.9990000  0  6  2 18 19 28 29 31
  23742751.245    -3007159.202 6  -2215104.761 9
  20413618.386      525163.921 8    432362.918 9
  20628879.034    -2709766.327 8  -2068987.591 9
  23516869.784    -1552093.137 6  -1155189.839 9
  22300096.167     5508469.034 6   4260951.288 9
  22329614.042    -6641999.655 6  -5071391.336 9
 94  3  3 20 32 59.9990000  0  6  2 18 19 28 29 31
  23725299.956    -3098864.879 6  -2286563.611 9
  20420376.784      560678.513 8    460036.608 9
  20627088.495    -2719175.340 8  -2076319.254 9
  23520318.933    -1533966.171 6  -1141064.935 9
  22315201.542     5587849.615 6   4322806.241 9
  22322383.815    -6679994.242 6  -5100997.419 9
 94  3  3 20 33 29.9990000  0  6  2 18 19 28 29 31
  23707908.901    -3190254.736 6  -2357776.341 9
  20427246.690      596780.196 8    488167.765 9
  20625355.581    -2728280.574 8  -2083414.210 9
  23523892.972    -1515184.522 5  -1126429.884 9
  22330390.386     5667663.010 6   4384998.445 9
  22315270.675    -6717372.060 6  -5130122.891 9
 94  3  3 20 33 59.9990000  0  6  2 18 19 28 29 31
  23690583.206    -3281304.225 6  -2428723.884 9
  20434228.308      633469.931 8    516757.152 9
  20623683.917    -2737066.112 8  -2090260.050 9
  23527594.151    -1495740.828 6  -1111278.952 9
  22345661.308     5747912.016 6   4447530.080 9
  22308276.104    -6754131.233 6  -5158766.291 9
 94  3  3 20 34 29.9990000  0  6  2 18 19 28 29 31
  23673323.003    -3372006.154 6  -2499400.557 9
  20441323.987      670757.318 8    545812.249 9
  20622075.823    -2745517.729 8  -2096845.692 9
  23531421.425    -1475630.230 6  -1095608.318 9
  22361015.401     5828600.619 6   4510404.271 9
  22301402.276    -6790251.756 6  -5186912.046 9
 94  3  3 20 34 59.9990000  0  6  2 18 19 28 29 31
  23656125.183    -3462376.534 6  -2569818.881 9
  20448532.503      708636.545 8    575328.506 9
  20620528.636    -2753646.973 8  -2103180.132 9
  23535376.354    -1454840.997 6  -1079408.884 9
  22376453.222     5909723.569 6   4573616.897 9
  22294649.901    -6825733.391 6  -5214559.971 9
 94  3  3 20 35 29.9990000  0  6  2 18 19 28 29 31
  23638989.354    -3552430.622 6  -2639990.727 9
  20455853.901      747113.413 8    605310.465 9
  20619043.464    -2761452.441 8  -2109262.290 9
  23539465.229    -1433350.793 6  -1062663.266 9
  22391969.894     5991267.884 6   4637157.860 9
  22288018.940    -6860579.120 6  -5241712.382 9
 94  3  3 20 35 59.9990000  0  6  2 18 19 28 29 31
  23621905.589    -3642204.244 6  -2709944.030 9
  20463288.448      786182.143 8    635753.615 9
  20617621.542    -2768923.827 8  -2115084.124 9
  23543686.831    -1411174.659 6  -1045383.146 9
  22407565.261     6073218.763 6   4701015.625 9
  22281511.214    -6894777.453 6  -5268360.322 9
 94  3  3 20 36 29.9990000  0  6  2 18 19 28 29 31
  23604871.120    -3731715.805 6  -2779693.161 9
  20470833.886      825832.454 8    666649.948 9
  20616262.308    -2776066.655 8  -2120649.949 9
  23548036.034    -1388320.638 6  -1027574.787 9
  22423237.245     6155576.524 6   4765190.443 9
  22275127.354    -6928323.124 6  -5294499.703 9
 94  3  3 20 36 59.9990000  0  6  2 18 19 28 29 31
  23587891.870    -3820938.308 6  -2849217.043 9
  20478487.792      866053.209 8    697990.782 9
  20614965.081    -2782883.215 8  -2125961.534 9
  23552509.589    -1364803.908 6  -1009250.043 9
  22438990.222     6238363.239 6   4829699.501 9
  22268866.925    -6961222.552 6  -5320135.513 9
 94  3  3 20 37 29.9990000  0  6  2 18 19 28 29 31
  23570970.901    -3909858.816 6  -2918505.594 9
  20486248.487      906835.753 8    729769.379 9
  20613730.198    -2789371.739 8  -2131017.503 9
  23557105.136    -1340649.669 5   -990428.528 9
  22454826.362     6321581.076 6   4894544.514 9
  22262729.511    -6993474.979 6  -5345267.166 9
 94  3  3 20 37 59.9990000  0  6  2 18 19 28 29 31
  23554111.769    -3998453.540 6  -2987540.289 9
  20494112.190      948160.865 8    761970.755 9
  20612554.815    -2795548.846 8  -2135830.805 9
  23561818.675    -1315885.677 6   -971131.896 9
  22470745.409     6405234.655 6   4959729.047 9
  22256711.792    -7025096.072 6  -5369906.866 9
 94  3  3 20 38 29.9990000  0  6  2 18 19 28 29 31
  23537322.667    -4086686.908 6  -3056293.401 9
  20502080.854      990037.284 8    794601.717 9
  20611434.472    -2801434.671 8  -2140417.143 9
  23566647.800    -1290508.034 6   -951357.095 9
  22486748.854     6489334.206 6   5025261.110 9
  22250813.823    -7056092.339 6  -5394059.699 9
 94  3  3 20 38 59.9990000  0  6  2 18 19 28 29 31
  23520603.394    -4174543.937 6  -3124753.290 9
  20510160.183     1032492.223 8    827683.470 9
  20610370.315    -2807028.920 8  -2144776.276 9
  23571596.948    -1264503.060 6   -931093.459 9
  22502835.573     6573869.717 6   5091132.874 9
  22245034.737    -7086458.523 6  -5417721.575 9
 94  3  3 20 39 29.9990000  0  6  2 18 19 28 29 31
  23503952.089    -4262045.104 6  -3192935.871 9
  20518352.862     1075545.451 8    861231.427 9
  20609364.362    -2812315.596 8  -2148895.746 9
  23576667.159    -1237851.273 6   -910325.824 9
  22519000.933     6658818.333 6   5157326.523 9
  22239377.526    -7116188.985 6  -5440888.082 9
 94  3  3 20 39 59.9990000  0  7  2 16 18 19 28 29 31
  23487368.284    -4349194.775 6  -3260844.565 9
  24204360.214      -21479.99115
  20526660.636     1119203.864 8    895250.952 9
  20608419.511    -2817280.591 8  -2152764.550 9
  23581863.034    -1210548.248 5   -889050.740 9
  22535243.464     6744177.303 6   5223839.954 9
  22233841.870    -7145278.686 6  -5463555.301 9
 94  3  3 20 40 29.9990000  0  7  2 16 18 19 28 29 31
  23470844.253    -4436027.280 6  -3328506.112 9
  24193284.354      -79668.239 5
  20535085.253     1163473.626 8    929746.854 9
  20607537.722    -2821913.913 8  -2156374.906 9
  23587185.659    -1182585.255 6   -867261.413 9
  22551562.729     6829931.751 6   5290661.532 9
  22228431.284    -7173709.272 6  -5485708.912 9
 94  3  3 20 40 59.9990000  0  7  2 16 18 19 28 29 31
  23454373.683    -4522574.827 6  -3395945.599 9
  24182321.284     -137286.022 5    -37383.50719
  20543622.386     1208337.719 8    964705.871 9
  20606721.862    -2826200.754 8  -2159715.277 9
  23592632.519    -1153962.215 6   -844957.707 9
  22567953.440     6916064.361 6   5357777.801 9
  22223146.112    -7201482.681 6  -5507350.432 9
 94  3  3 20 41 29.9990000  0  7  2 16 18 19 28 29 31
  23437959.151    -4608836.164 6  -3463162.070 9
  24171471.175     -194305.889 5    -81814.460 9
  20552269.987     1253779.880 8   1000115.326 9
  20605973.925    -2830129.716 8  -2162776.784 9
  23598201.026    -1124689.357 6   -822147.662 9
  22584417.761     7002587.839 6   5425198.621 9
  22217988.612    -7228585.223 6  -5528469.203 9
 94  3  3 20 41 59.9990000  0  7  2 16 18 19 28 29 31
  23421598.854    -4694811.764 6  -3530155.902 9
  24160735.995     -250720.051 5   -125773.514 9
  20561024.433     1299786.033 8   1035964.266 9
  20605290.706    -2833722.928 8  -2165576.665 9
  23603894.081    -1094776.405 6   -798838.901 9
  22600959.167     7089510.563 6   5492930.579 9
  22212959.089    -7255017.535 6  -5549065.707 9
 94  3  3 20 42 29.9990000  0  7  2 16 18 19 28 29 31
  23405294.417    -4780495.955 6  -3596922.652 9
  24150111.862     -306554.899 5   -169281.056 9
  20569884.612     1346345.639 8   1072244.461 9
  20604667.081    -2836998.474 8  -2168129.013 9
  23609712.050    -1064211.734 6   -775022.258 9
  22617572.776     7176821.623 6   5560965.117 9
  22208054.347    -7280790.251 6  -5569148.259 9
 94  3  3 20 42 59.9990000  0  7  2 16 18 19 28 29 31
  23389051.315    -4865861.317 6  -3663440.945 9
  24139594.909     -361825.207 5   -212348.769 9
  20578849.011     1393453.604 8   1108951.948 9
  20604101.956    -2839969.727 8  -2170444.248 9
  23615649.237    -1033008.906 6   -750708.338 9
  22634263.339     7264524.844 6   5629305.231 9
  22203271.112    -7305925.490 6  -5588734.078 9
 94  3  3 20 43 29.9990000  0  7  2 16 18 19 28 29 31
  23372868.519    -4950887.831 5  -3729695.208 9
  24129185.605     -416523.274 5   -254970.549 9
  20587918.097     1441112.087 8   1146088.411 9
  20603590.308    -2842657.149 8  -2172538.322 9
  23621704.745    -1001175.004 5   -725902.705 9
  22651028.878     7352627.617 6   5697956.704 9
  22198608.526    -7330428.746 6  -5607827.433 9
 94  3  3 20 43 59.9990000  0  7  2 16 18 19 28 29 31
  23356755.558    -5035570.681 6  -3795681.651 9
  24118881.214     -470678.567 5   -297169.389 9
  20597092.714     1489324.702 8   1183656.670 9
  20603132.550    -2845061.733 8  -2174412.004 9
  23627887.940     -968690.865 6   -700590.409 9
  22667869.550     7441124.855 6   5766915.528 9
  22194064.667    -7354303.230 6  -5626430.841 9
 94  3  3 20 44 29.9990000  0  7  2 16 18 19 28 29 31
  23340703.714    -5119908.277 5  -3861399.107 9
  24108675.097     -524302.121 5   -338953.897 9
  20606371.292     1538086.439 8   1221652.810 9
  20602728.089    -2847190.017 8  -2176070.389 9
  23634192.151     -935565.466 6   -674778.395 9
  22684780.933     7529995.755 6   5836165.540 9
  22189640.495    -7377555.569 6  -5644549.469 9
 94  3  3 20 44 59.9990000  0  7  2 16 18 19 28 29 31
  23324720.909    -5203900.046 6  -3926847.054 9
  24098576.331     -577372.869 5   -380307.678 9
  20615756.401     1587402.418 8   1260080.835 9
  20602374.761    -2849044.724 8  -2177515.599 9
  23640612.964     -901814.169 5   -648478.655 9
  22701766.870     7619250.342 6   5905714.518 9
  22185335.542    -7400175.492 6  -5662175.310 9
 94  3  3 20 45 29.9990000  0  7  2 16 18 19 28 29 31
  23308801.347    -5287564.249 6  -3992039.753 9
  24088581.253     -629884.315 4   -421225.594 9
  20625246.870     1637278.757 8   1298945.504 9
  20602077.323    -2850607.981 8  -2178733.702 9
  23647156.409     -867432.288 6   -621687.581 9
  22718822.112     7708885.149 6   5975559.789 9
  22181157.175    -7422135.208 6  -5679286.715 9
 94  3  3 20 45 59.9990000  0  7  2 16 18 19 28 29 31
  23292940.073    -5370910.320 6  -4056984.550 9
  24078698.167     -681842.373 5   -461712.340 9
  20634845.714     1687718.430 8   1338249.136 9
  20601838.659    -2851861.921 8  -2179710.784 9
  23653818.909     -832428.002 6   -594411.478 9
  22735950.269     7798892.499 6   6045695.349 9
  22177106.479    -7443423.258 7  -5695874.743 9
 94  3  3 20 46 29.9990000  0  7  2 16 18 19 28 29 31
  23277138.425    -5453952.589 6  -4121692.621 9
  24068917.315     -733219.749 5   -501746.526 8
  20644551.737     1738726.554 8   1377995.721 9
  20601659.026    -2852805.846 8  -2180446.290 9
  23660592.261     -796821.426 5   -566666.070 9
  22753149.573     7889277.388 6   6116125.084 9
  22173182.800    -7464040.497 6  -5711940.066 9
 94  3  3 20 46 59.9990000  0  7  2 16 18 19 28 29 31
  23261388.511    -5536710.917 6  -4186179.457 9
  24059250.894     -784018.370 5   -541329.886 9
  20654365.198     1790293.182 8   1418177.493 9
  20601541.589    -2853424.254 8  -2180928.152 9
  23667480.800     -760626.681 5   -538462.357 9
  22770422.573     7980045.499 6   6186853.452 9
  22169388.972    -7483977.562 7  -5727475.395 9
 94  3  3 20 47 29.9990000  0  7  2 16 18 19 28 29 31
  23245691.722    -5619210.725 6  -4250464.833 9
  24049691.948     -834256.442 5   -580476.274 9
  20664280.167     1842398.297 8   1458778.872 9
  20601485.331    -2853718.933 8  -2181157.753 9
  23674479.722     -723845.012 5   -509801.258 9
  22787765.503     8071179.205 6   6257866.681 9
  22165722.659    -7503244.885 7  -5742488.858 9
 94  3  3 20 47 59.9990000  0  7  2 16 18 19 28 29 31
  23230041.792    -5701438.823 6  -4314538.482 9
  24040240.714     -883929.787 5   -619182.713 8
  20674295.183     1895026.958 8   1499788.203 9
  20601487.925    -2853704.814 8  -2181146.734 9
  23681591.519     -686465.693 5   -480674.503 9
  22805177.003     8162677.736 6   6329164.196 9
  22162179.597    -7521863.548 7  -5756996.870 9
 94  3  3 20 48 29.9990000  0  7  2 16 18 19 28 29 31
  23214449.894    -5783377.722 6  -4378386.793 9
  24030895.065     -933033.791 5   -657445.459 9
  20684408.097     1948171.183 8   1541199.276 9
  20601546.581    -2853395.040 8  -2180905.334 9
  23688824.159     -648467.267 6   -451065.288 9
  22822659.581     8254549.536 6   6400752.571 9
  22158759.323    -7539835.585 6  -5771001.024 9
 94  3  3 20 48 59.9990000  0  7  2 16 18 19 28 29 31
  23198917.730    -5865002.349 6  -4441990.218 9
  24021655.394     -981588.795 5   -695280.501 8
  20694617.597     2001823.554 8   1583006.301 9
  20601661.050    -2852796.296 8  -2180438.767 9
  23696174.769     -609833.880 5   -420961.295 9
  22840210.167     8346781.990 6   6472621.948 9
  22155460.823    -7557168.730 6  -5784507.340 9
 94  3  3 20 49 29.9990000  0  7  2 16 18 19 28 29 31
  23183445.308    -5946296.262 6  -4505335.949 9
  24012519.597    -1029598.068 5   -732690.214 9
  20704925.097     2055988.593 8   1625212.807 9
  20601826.862    -2851922.596 8  -2179757.951 9
  23703646.573     -570567.856 5   -390364.352 9
  22857826.675     8439354.588 6   6544756.398 9
  22152279.714    -7573884.667 6  -5797532.719 9
 94  3  3 20 49 59.9990000  0  7  2 16 18 19 28 29 31
  23168044.800    -6027235.308 6  -4568405.168 9
  24003492.151    -1077043.349 5   -769660.490 9
  20715334.417     2110689.011 8   1667836.491 9
  20602046.175    -2850770.761 8  -2178860.405 9
  23711236.534     -530686.895 5   -359288.237 9
  22875505.550     8532263.931 5   6617153.245 9
  22149216.425    -7589983.354 6  -5810077.142 9
 94  3  3 20 50 29.9990000  0  7  2 16 18 19 28 29 31
  23152709.472    -6107820.801 6  -4631198.891 9
  23994575.620    -1123916.317 6   -806184.819 9
  20725849.675     2165947.470 8   1710895.010 9
  20602319.722    -2849332.626 8  -2177739.774 9
  23718938.628     -490209.726 5   -327747.522 9
  22893250.612     8625511.587 6   6689813.676 9
  22146274.589    -7605440.833 6  -5822121.910 9
 94  3  3 20 51  0.0000000  0  7  2 16 18 19 28 29 31
  23137440.594    -6188061.724 6  -4693724.114 9
  23985762.203    -1170207.368 5   -842255.623 9
  20736474.492     2221780.329 8   1754401.116 9
  20602650.867    -2847593.066 8  -2176384.254 9
  23726750.789     -449159.859 5   -295760.571 9
  22911058.086     8719087.159 6   6762729.644 9
  22143456.578    -7620249.548 6  -5833661.155 9
 94  3  3 20 51 30.0000000  0  7  2 16 18 19 28 29 31
  23122234.172    -6267971.328 6  -4755991.170 9
  23977070.492    -1215886.934 5   -877850.114 9
  20747207.352     2278183.154 8   1798351.341 9
  20603038.117    -2845557.376 7  -2174797.993 9
  23734669.680     -407546.225 5   -263334.323 9
  22928928.352     8812994.661 6   6835904.273 9
  22140765.461    -7634393.983 6  -5844682.784 9
 94  3  3 20 52  0.0000000  0  7  2 16 18 19 28 29 31
  23107089.695    -6347558.167 6  -4818006.743 9
  23968490.133    -1260950.926 3   -912964.869 9
  20758046.313     2335142.322 8   1842735.083 9
  20603481.813    -2843226.822 7  -2172981.962 9
  23742698.563     -365346.702 5   -230451.554 9
  22946865.445     8907255.004 6   6909353.822 9
  22138203.328    -7647859.035 7  -5855175.024 9
 94  3  3 20 52 30.0000000  0  7  2 16 18 19 28 29 31
  23092005.969    -6426818.833 6  -4879768.162 9
  23960037.609    -1305403.446 5   -947603.051 9
  20768988.273     2392641.508 8   1887539.607 9
  20603981.836    -2840599.045 7  -2170934.331 9
  23750847.227     -322531.779 5   -197089.227 9
  22964871.078     9001875.208 6   6983083.768 9
  22135770.391    -7660640.762 7  -5865134.808 9
 94  3  3 20 53  0.0000000  0  7  2 16 18 19 28 29 31
  23076984.313    -6505758.916 6  -4941279.763 9
  23951691.945    -1349250.841 5   -981769.819 9
  20780028.813     2450658.729 8   1932747.805 9
  20604537.266    -2837679.786 7  -2168659.567 9
  23759114.383     -279084.355 5   -163234.084 9
  22982945.156     9096855.731 6   7057094.509 9
  22133465.539    -7672755.645 7  -5874574.962 9
 94  3  3 20 53 30.0000000  0  7  2 16 18 19 28 29 31
  23062020.664    -6584392.923 6  -5002552.850 9
  23943457.695    -1392504.682 4  -1015474.037 9
  20791165.172     2509183.118 7   1978351.195 9
  20605146.648    -2834474.850 7  -2166162.190 9
  23767504.906     -234998.408 5   -128881.379 9
  23001089.461     9192199.257 6   7131388.112 9
  22131283.992    -7684219.109 7  -5883507.514 9
 94  3  3 20 54  0.0000000  0  7  2 16 18 19 28 29 31
  23047117.820    -6662711.511 6  -5063580.191 9
  23935338.164    -1435193.958 5  -1048738.402 9
  20802398.977     2568215.275 8   2024350.255 9
  20605813.109    -2830974.639 7  -2163434.736 9
  23776012.484     -190281.196 5    -94036.747 9
  23019298.484     9287894.958 6   7205956.106 9
  22129224.547    -7695042.054 7  -5891940.962 9
 94  3  3 20 54 30.0000000  0  7  2 16 18 19 28 29 31
  23032273.500    -6740720.551 6  -5124366.333 9
  23927318.953    -1477321.546 5  -1081564.944 9
  20813731.203     2627767.645 7   2070754.672 9
  20606534.195    -2827185.927 7  -2160482.473 9
  23784636.883     -144965.542 5    -58725.887 9
  23037573.703     9383933.815 6   7280791.520 9
  22127287.641    -7705220.383 7  -5899872.102 9
 94  3  3 20 55  0.0000000  0  7  2 16 18 19 28 29 31
  23017486.102    -6818422.730 6  -5184913.344 9
  23919409.305    -1518881.252 5  -1113949.036 9
  20825166.117     2687857.539 8   2117577.941 9
  20607310.625    -2823103.794 7  -2157301.565 9
  23793370.172      -99066.939 5    -22960.691 9
  23055915.906     9480322.174 6   7355899.282 9
  22125476.273    -7714738.092 7  -5907288.481 9
 94  3  3 20 55 30.0000000  0  7  2 16 18 19 28 29 31
  23002759.906    -6895810.949 6  -5245215.719 9
  23911612.313    -1559880.004 5  -1145896.111 9
  20836704.008     2748489.121 7   2164823.308 9
  20608142.250    -2818733.605 7  -2153896.193 9
  23802212.375      -52599.729 5     13247.505 9
  23074325.789     9577059.064 6   7431278.590 9
  22123790.969    -7723595.789 7  -5914190.553 9
 94  3  3 20 56  0.0000000  0  7  2 16 18 19 28 29 31
  22988095.742    -6972865.796 6  -5305258.346 9
  23903911.227    -1600318.787 3  -1177406.798 9
  20848342.734     2809652.293 7   2212482.896 9
  20609024.789    -2814096.342 7  -2150282.711 9
  23811163.109       -5570.449 5     49893.719 9
  23092797.156     9674133.320 6   7506920.792 9
  22122232.813    -7731782.036 7  -5920569.416 9
 94  3  3 20 56 30.0000000  0  7  2 16 18 19 28 29 31
  22973497.883    -7049577.026 6  -5365033.214 9
  23896329.609    -1640170.870 5  -1208460.193 8
  20860083.445     2871352.756 7   2260561.158 9
  20609957.656    -2809193.163 7  -2146462.012 9
  23820219.633       42028.366 5     86983.729 9
  23111333.852     9771539.425 6   7582821.607 9
  22120804.219    -7739292.586 7  -5926421.754 9
 94  3  3 20 57  0.0000000  0  7  2 16 18 19 28 29 31
  22958967.719    -7125937.599 6  -5424534.833 9
  23888860.008    -1679442.374 5  -1239061.397 9
  20871925.742     2933581.471 7   2309051.041 9
  20610942.453    -2804017.895 7  -2142429.305 9
  23829392.234       90225.102 5    124539.637 9
  23129931.008     9869268.722 6   7658974.236 9
  22119498.883    -7746148.132 7  -5931763.705 9
 94  3  3 20 57 30.0000000  0  7  2 16 18 19 28 29 31
  22944503.852    -7201946.816 6  -5483762.680 9
  23881496.516    -1718123.755 5  -1269202.680 9
  20883866.617     2996333.356 7   2357948.587 9
  20611980.086    -2798566.405 7  -2138181.365 9
  23838677.406      139026.138 5    162566.406 9
  23148586.453     9967307.222 6   7735367.779 9
  22118315.914    -7752364.650 7  -5936607.700 9
 94  3  3 20 58  0.0000000  0  7  2 16 18 19 28 29 31
  22930103.891    -7277614.304 6  -5542724.247 9
  23874248.250    -1756201.395 5  -1298873.459 9
  20895907.141     3059605.968 7   2407251.891 9
  20613071.641    -2792828.961 7  -2133710.601 9
  23848080.602      188433.574 5    201065.705 9
  23167297.563    10065637.194 5   7811988.475 9
  22117255.969    -7757934.746 7  -5940947.979 9
 94  3  3 20 58 30.0000000  0  7  2 16 18 19 28 29 31
  22915767.258    -7352959.066 6  -5601434.326 9
  23867117.125    -1793682.330 5  -1328079.364 9
  20908047.727     3123402.714 7   2456963.609 9
  20614221.023    -2786788.456 7  -2129003.677 9
  23857596.883      238442.835 6    240033.970 9
  23186066.445    10164266.916 5   7888842.728 9
  22116317.547    -7762867.144 7  -5944791.355 9
 94  3  3 20 59  0.0000000  0  7  2 16 18 19 28 29 31
  22901486.656    -7427997.768 6  -5659905.935 9
  23860097.164    -1830581.967 5  -1356832.256 9
  20920284.961     3187709.772 7   2507072.980 9
  20615429.930    -2780437.993 7  -2124055.235 9
  23867226.039      289042.180 6    279462.009 9
  23204892.930    10263204.804 5   7965937.112 9
  22115502.406    -7767151.004 7  -5948129.382 9
 94  3  3 20 59 30.0000000  0  7  2 16 18 19 28 29 31
  22887265.969    -7502731.764 6  -5718140.094 9
  23853186.109    -1866889.401 5  -1385123.712 9
  20932618.898     3252525.547 7   2557578.755 9
  20616697.125    -2773777.369 7  -2118865.102 9
  23876962.516      340212.657 5    319335.137 9
  23223782.469    10362455.531 6   8043275.255 9
  22114815.320    -7770759.515 7  -5950941.158 9
 94  3  3 21  0  0.0000000  0  7  2 16 18 19 28 29 31
  22873103.680    -7577156.840 6  -5776133.524 9
  23846387.422    -1902621.314 5  -1412966.705 9
  20945046.430     3317832.583 7   2608467.338 9
  20618022.836    -2766811.054 7  -2113436.771 9
  23886807.922      391946.636 6    359647.320 9
  23242728.469    10462016.612 6   8120855.246 9
  22114259.727    -7773681.691 7  -5953218.136 9
 94  3  3 21  0 30.0000000  0  7  2 16 18 19 28 29 31
  22858998.523    -7651270.444 6  -5833884.258 9
  23839698.742    -1937778.572 5  -1440361.927 9
  20957565.805     3383621.493 8   2659731.408 9
  20619406.164    -2759540.652 7  -2107771.487 9
  23896760.047      444239.090 6    400394.676 9
  23261733.594    10561895.426 6   8198682.819 9
  22113832.570    -7775924.918 7  -5954966.056 9
 94  3  3 21  1  0.0000000  0  7  2 16 18 19 28 29 31
  22844957.219    -7725061.364 6  -5891383.549 9
  23833121.180    -1972343.545 5  -1467295.649 9
  20970177.195     3449894.872 8   2711372.981 9
  20620846.672    -2751971.874 7  -2101873.709 9
  23906815.063      497093.743 5    441580.165 9
  23280799.430    10662084.819 6   8276752.382 9
  22113536.391    -7777482.370 7  -5956179.601 9
 94  3  3 21  1 30.0000000  0  7  2 16 18 19 28 29 31
  22830978.023    -7798519.683 6  -5948623.667 9
  23826657.602    -2006296.580 5  -1493752.495 9
  20982883.406     3516666.902 8   2763403.115 9
  20622341.758    -2744114.376 7  -2095750.956 9
  23916983.906      550512.746 6    483205.345 9
  23299924.406    10762585.648 6   8355064.640 9
  22113370.016    -7778355.380 7  -5956859.809 9
 94  3  3 21  2  0.0000000  0  7  2 16 18 19 28 29 31
  22817061.758    -7871647.678 6  -6005606.376 9
  23820311.281    -2039647.973 5  -1519740.537 9
  20995684.859     3583940.471 7   2815824.063 9
  20623889.664    -2735979.395 7  -2089411.976 9
  23927252.664      604492.387 5    525267.409 9
  23319106.688    10863396.849 5   8433618.744 9
  22113330.102    -7778564.362 7  -5957022.604 9
 94  3  3 21  2 30.0000000  0  7  2 16 18 19 28 29 31
  22803208.695    -7944449.124 6  -6062334.639 9
  23814080.016    -2072393.938 5  -1545256.838 9
  21008584.305     3651724.614 8   2868642.856 9
  20625488.781    -2727577.074 7  -2082864.683 9
  23937631.508      659022.732 6    567758.622 9
  23338352.070    10964527.749 5   8512421.945 9
  22113416.242    -7778112.216 7  -5956670.225 9
 94  3  3 21  3  0.0000000  0  7  2 16 18 19 28 29 31
  22789417.086    -8016923.082 6  -6118807.726 9
  23807963.945    -2104539.688 5  -1570305.407 9
  21021581.398     3720026.354 7   2921864.978 9
  20627136.281    -2718918.017 7  -2076117.343 9
  23948109.898      714101.683 5    610677.309 9
  23357656.602    11065971.091 5   8591468.610 9
  22113629.289    -7776994.238 7  -5955799.022 9
 94  3  3 21  3 30.0000000  0  7  2 16 18 19 28 29 31
  22775687.422    -8089074.763 6  -6175029.677 9
  23801956.734    -2136104.126 5  -1594901.033 9
  21034674.508     3788833.743 7   2975481.114 9
  20628831.297    -2710012.114 7  -2069177.651 9
  23958699.703      769726.958 6    654021.653 9
  23377017.477    11167716.994 5   8670751.052 9
  22113966.086    -7775221.187 7  -5954417.368 9
 94  3  3 21  4  0.0000000  0  7  2 16 18 19 28 29 31
  22762020.266    -8160895.088 6  -6230993.433 9
  23796058.156    -2167103.137 5  -1619056.061 9
  21047861.406     3858128.035 7   3029476.656 9
  20630574.055    -2700853.670 8  -2062041.182 9
  23969384.164      825903.805 5    697795.876 9
  23396436.711    11269758.747 6   8750263.983 9
  22114426.984    -7772798.940 7  -5952529.865 9
 94  3  3 21  4 30.0000000  0  7  2 16 18 19 28 29 31
  22748415.594    -8232387.360 6  -6286701.571 9
  23790267.492    -2197530.588 5  -1642765.756 9
  21061139.281     3927904.923 7   3083848.251 9
  20632366.125    -2691435.831 8  -2054702.586 9
  23980182.859      882632.412 5    741999.968 9
  23415908.313    11372082.516 5   8829996.723 9
  22115012.078    -7769724.067 7  -5950133.802 9
 94  3  3 21  5  0.0000000  0  7  2 16 18 19 28 29 31
  22734873.813    -8303548.933 6  -6342152.021 9
  23784588.930    -2227373.755 5  -1666020.043 9
  21074511.688     3998177.453 7   3138606.054 9
  20634210.672    -2681741.214 7  -2047148.320 9
  23991083.664      939924.323 5    786643.062 9
  23435430.063    11474671.424 5   8909936.029 9
  22115721.875    -7765991.883 7  -5947225.553 9
 94  3  3 21  5 30.0000000  0  7  2 16 18 19 28 29 31
  22721394.398    -8374381.428 6  -6397346.055 9
  23779019.180    -2256639.487 5  -1688824.486 9
  21087978.008     4068941.752 7   3193747.052 9
  20636109.813    -2671762.299 8  -2039372.522 9
  24002093.477      997775.894 5    831722.184 9
  23455002.414    11577528.865 5   8990084.578 9
  22116557.047    -7761606.315 7  -5943808.176 9
 94  3  3 21  6  0.0000000  0  7  2 16 18 19 28 29 31
  22707979.086    -8444885.659 6  -6452284.298 9
  23773561.828    -2285328.690 5  -1711179.653 9
  21101539.016     4140206.620 7   3249278.107 9
  20638064.656    -2661489.968 8  -2031368.095 9
  24013204.984     1056171.201 5    877225.040 9
  23474628.023    11680659.328 5   9070445.882 9
  22117518.000    -7756553.552 7  -5939870.900 9
 94  3  3 21  6 30.0000000  0  7  2 16 18 19 28 29 31
  22694621.383    -8515072.774 6  -6506975.435 9
  23768213.000    -2313430.223 5  -1733076.888 9
  21115197.313     4211980.602 7   3305205.879 9
  20640074.758    -2650925.445 7  -2023135.981 9
  24024420.086     1115100.003 5    923143.634 9
  23494304.953    11784053.253 6   9151012.458 9
  22118607.414    -7750831.113 7  -5935411.809 9
 94  3  3 21  7  0.0000000  0  7  2 16 18 19 28 29 31
  22681328.344    -8584933.304 6  -6561412.094 9
  23762978.750    -2340945.952 5  -1754517.658 9
  21128949.133     4284247.250 7   3361517.550 9
  20642140.250    -2640071.713 8  -2014678.519 9
  24035733.641     1174557.329 5    969473.959 9
  23514029.055    11887717.153 5   9231789.438 9
  22119822.461    -7744442.978 7  -5930433.982 9
 94  3  3 21  7 30.0000000  0  7  2 16 18 19 28 29 31
  22668097.461    -8654458.299 6  -6615587.322 9
  23757850.641    -2367887.024 5  -1775510.649 9
  21142790.891     4356985.733 8   3418196.876 9
  20644256.555    -2628950.743 7  -2006012.824 9
  24047147.609     1234540.221 5   1016213.955 9
  23533811.391    11991671.385 5   9312792.640 9
  22121163.172    -7737398.683 7  -5924944.889 9
 94  3  3 21  8  0.0000000  0  7  2 16 18 19 28 29 31
  22654929.938    -8723654.024 6  -6669505.951 9
  23752836.477    -2394242.835 5  -1796047.592 9
  21156720.156     4430183.507 8   3475234.095 9
  20646422.016    -2617572.529 7  -1997146.673 9
  24058663.297     1295050.138 5   1063364.487 9
  23553648.109    12095902.713 6   9394011.738 9
  22122626.734    -7729708.422 7  -5918952.434 9
 94  3  3 21  8 30.0000000  0  7  2 16 18 19 28 29 31
  22641823.594    -8792530.235 6  -6723175.616 9
  23747933.695    -2420000.693 5  -1816118.597 9
  21170733.375     4503824.912 7   3532616.996 9
  20648633.297    -2605950.851 8  -1988090.803 9
  24070277.898     1356089.667 5   1110927.833 9
  23573531.422    12200400.230 5   9475438.258 9
  22124207.484    -7721402.418 7  -5912480.176 9
 94  3  3 21  9  0.0000000  0  7  2 16 18 19 28 29 31
  22628777.805    -8861084.355 6  -6776594.312 9
  23743144.805    -2445170.319 5  -1835731.178 9
  21184831.992     4577912.925 7   3590347.903 9
  20650890.391    -2594088.650 7  -1978847.514 9
  24081997.609     1417671.213 5   1158913.431 9
  23593470.063    12305175.479 5   9557081.222 9
  22125905.180    -7712478.167 7  -5905526.176 9
 94  3  3 21  9 30.0000000  0  7  2 16 18 19 28 29 31
  22615791.805    -8929325.062 6  -6829768.787 9
  23738467.313    -2469750.926 5  -1854884.852 9
  21199018.570     4652465.931 7   3648441.145 9
  20653196.781    -2581970.857 8  -1969405.065 9
  24093819.523     1479805.646 5   1207329.891 9
  23613461.398    12410233.219 5   9638944.265 9
  22127723.523    -7702925.710 7  -5898082.668 9
 94  3  3 21 10  0.0000000  0  7  2 16 18 19 28 29 31
  22602863.078    -8997266.773 6  -6882710.281 9
  23733902.344    -2493743.834 5  -1873580.562 9
  21213294.008     4727483.332 7   3706896.251 9
  20655555.227    -2569576.375 8  -1959747.012 9
  24105746.820     1542479.655 5   1256166.784 9
  23633503.953    12515547.812 5   9721007.480 9
  22129660.383    -7692744.812 7  -5890149.454 9
 94  3  3 21 10 30.0000000  0  7  2 16 18 19 28 29 31
  22589992.734    -9064899.384 6  -6935410.908 9
  23729444.852    -2517165.939 5  -1891831.483 9
  21227659.203     4802970.064 7   3765717.071 9
  20657968.086    -2556895.332 8  -1949865.659 9
  24117774.273     1605684.360 5   1305417.172 9
  23653591.352    12621113.749 5   9803266.530 9
  22131721.148    -7681915.565 7  -5881711.048 9
 94  3  3 21 11  0.0000000  0  7  2 16 18 19 28 29 31
  22577183.000    -9132213.752 6  -6987863.563 9
  23725093.023    -2540030.063 5  -1909647.593 9
  21242112.961     4878927.997 7   3824905.062 9
  20660439.156    -2543911.050 8  -1939748.025 9
  24129901.953     1669416.807 5   1355078.850 9
  23673731.016    12726939.378 5   9885727.930 9
  22133909.656    -7670415.629 7  -5872750.014 9
 94  3  3 21 11 30.0000000  0  7  2 16 18 19 28 29 31
  22564435.000    -9199205.729 6  -7040065.010 9
  23720847.750    -2562329.580 5  -1927023.794 9
  21256655.750     4955349.494 7   3884454.267 9
  20662967.086    -2530625.227 8  -1929395.419 9
  24142126.281     1733650.247 5   1405130.862 9
  23693913.953    12833013.791 5   9968383.214 9
  22136224.250    -7658251.240 7  -5863271.237 9
 94  3  3 21 12  0.0000000  0  7  2 16 18 19 28 29 31
  22551748.227    -9265871.719 6  -7092012.447 9
  23716712.930    -2584058.850 5  -1943955.667 9
  21271286.039     5032232.031 7   3944362.716 9
  20665548.758    -2517059.170 8  -1918824.449 9
  24154442.281     1798372.247 5   1455563.595 9
  23714144.727    12939320.092 5  10051219.155 9
  22138666.508    -7645416.997 7  -5853270.504 9
 94  3  3 21 12 30.0000000  0  7  2 16 18 19 28 29 31
  22539127.359    -9332198.805 6  -7143695.789 9
  23712688.359    -2605206.657 5  -1960434.397 9
  21286007.016     5109591.966 7   4004643.168 9
  20668181.766    -2503222.652 8  -1908042.722 9
  24166851.781     1863581.933 6   1506376.318 9
  23734422.320    13045881.181 5  10134253.619 9
  22141237.492    -7631906.278 7  -5842742.632 9
 94  3  3 21 13  0.0000000  0  7  2 16 18 19 28 29 31
  22526568.750    -9398192.719 6  -7195119.519 9
  23708779.609    -2625758.922 5  -1976449.114 9
  21300819.367     5187431.637 7   4065297.438 9
  20670864.781    -2489122.288 8  -1897055.397 9
  24179350.992     1929276.308 5   1557566.746 9
  23754752.000    13152711.522 5  10217497.926 9
  22143936.859    -7617722.634 7  -5831690.417 9
 94  3  3 21 13 30.0000000  0  6  2 16 18 19 29 31
  22514072.266    -9463861.254 6  -7246289.727 9
  23704980.625    -2645720.791 5  -1992003.747 9
  21315722.023     5265745.968 7   4126321.570 9
  20673594.180    -2474779.918 8  -1885879.509 9
  23775127.961    13259792.879 5  10300937.843 9
  22146762.563    -7602870.431 7  -5820117.226 9
 94  3  3 21 14  0.0000000  0  6  2 16 18 19 29 31
  22501636.992    -9529208.244 6  -7297209.358 9
  23701292.398    -2665095.324 5  -2007100.742 9
  21330713.500     5344527.503 7   4187709.762 9
  20676370.219    -2460191.549 8  -1874511.929 9
  23795552.203    13367115.550 5  10384565.763 9
  22149715.195    -7587355.131 7  -5808027.339 9
 94  3  3 21 14 30.0000000  0  6  2 16 18 19 29 31
  22489265.172    -9594223.206 6  -7347870.277 9
  23697719.719    -2683872.420 5  -2021732.160 9
  21345792.273     5423765.418 7   4249453.568 9
  20679199.148    -2445324.713 8  -1862927.352 9
  23816022.375    13474692.407 5  10468391.729 8
  22152794.898    -7571170.409 7  -5795415.827 9
 94  3  3 21 15  0.0000000  0  6  2 16 18 19 29 31
  22476956.148    -9658908.357 6  -7398274.199 9
  23694259.336    -2702045.594 5  -2035893.015 9
  21360950.930     5503425.889 7   4311526.642 9
  20682083.078    -2430171.782 8  -1851119.843 9
  23836538.133    13582500.923 5  10552398.253 9
  22156000.414    -7554324.121 7  -5782288.820 9
 94  3  3 21 15 30.0000000  0  6  2 16 18 19 29 31
  22464710.852    -9723256.380 6  -7448415.433 9
  23690917.289    -2719623.805 5  -2049590.275 9
  21376187.742     5583494.277 7   4373917.575 9
  20685020.070    -2414738.542 8  -1839093.914 9
  23857093.703    13690520.535 5  10636569.286 9
  22159328.055    -7536838.286 7  -5768663.464 9
 94  3  3 21 16  0.0000000  0  6  2 16 18 19 29 31
  22452531.836    -9787259.741 6  -7498288.081 9
  23687686.789    -2736597.761 5  -2062816.705 9
  21391501.773     5663969.616 7   4436625.601 9
  20688012.625    -2399010.830 8  -1826838.531 9
  23877688.641    13798760.149 3  10720911.684 9
  22162777.047    -7518714.477 7  -5754540.981 9
 94  3  3 21 16 30.0000000  0  6  2 16 18 19 29 31
  22440418.094    -9850917.908 6  -7547891.753 9
  23684571.852    -2752969.138 5  -2075573.570 9
  21406892.750     5744848.598 7   4499648.160 9
  20691057.125    -2383010.896 8  -1814371.025 9
  23898330.531    13907222.010 5  10805427.265 9
  22166347.852    -7499948.815 7  -5739918.353 9
 94  3  3 21 17  0.0000000  0  6  2 16 18 19 29 31
  22428370.945    -9914225.831 6  -7597222.513 9
  23681570.984    -2768741.908 5  -2087863.976 9
  21422364.336     5826154.407 7   4563003.309 9
  20694148.617    -2366765.116 8  -1801711.948 9
  23919013.500    14015908.089 5  10890117.585 8
  22170040.820    -7480544.162 7  -5724797.827 9
 94  3  3 21 17 30.0000000  0  6  2 16 18 19 29 31
  22416391.070    -9977179.372 6  -7646277.113 9
  23678679.352    -2783925.829 5  -2099695.571 9
  21437924.820     5907923.215 7   4626719.241 9
  20697286.344    -2350276.477 8  -1788863.628 9
  23939741.938    14124836.455 5  10974996.683 8
  22173856.305    -7460494.068 7  -5709174.343 9
 94  3  3 21 18  0.0000000  0  6  2 16 18 19 29 31
  22404476.461   -10039787.343 6  -7695062.448 9
  23675905.625    -2798511.972 6  -2111061.354 9
  21453574.367     5990165.482 7   4690804.098 9
  20700471.289    -2333539.820 8  -1775822.047 9
  23960516.211    14234005.875 4  11060063.601 8
  22177798.648    -7439775.735 7  -5693030.162 9
 94  3  3 21 18 30.0000000  0  6  2 16 18 19 29 31
  22392627.070   -10102057.096 6  -7743584.226 9
  23673242.945    -2812498.121 5  -2121959.579 9
  21469316.852     6072889.448 7   4755264.314 9
  20703706.008    -2316541.129 8  -1762576.279 9
  23981334.773    14343411.222 5  11145314.383 9
  22181868.938    -7418387.172 7  -5676363.727 9
 94  3  3 21 19  0.0000000  0  6  2 16 18 19 29 31
  22380841.500   -10163991.644 7  -7791844.807 9
  23670694.898    -2825887.339 5  -2132392.670 9
  21485150.836     6156098.216 7   4820102.287 9
  20706995.016    -2299256.765 8  -1749107.915 9
  24002199.875    14453049.739 5  11230746.830 9
  22186064.008    -7396341.252 7  -5659185.066 9
 94  3  3 21 19 30.0000000  0  6  2 16 18 19 29 31
  22369116.922   -10225602.310 7  -7839853.020 9
  23668258.680    -2838686.846 5  -2142366.283 9
  21501073.383     6239771.836 7   4885302.487 9
  20710341.422    -2281671.160 8  -1735404.821 9
  24023103.016    14562911.219 4  11316353.028 9
  22190383.242    -7373640.082 7  -5641495.818 9
 94  3  3 21 20  0.0000000  0  6  2 16 18 19 29 31
  22357452.414   -10286901.054 7  -7887618.162 9
  23665935.094    -2850890.686 5  -2151875.699 9
  21517081.242     6323892.170 7   4950850.774 9
  20713746.023    -2263779.979 8  -1721463.618 9
  24044050.711    14672986.385 5  11402125.720 9
  22194829.258    -7350282.230 7  -5623294.875 9
 94  3  3 21 20 30.0000000  0  6  2 16 18 19 29 31
  22345846.148   -10347891.321 7  -7935142.929 9
  23663727.625    -2862508.471 6  -2160928.505 9
  21533173.109     6408458.565 7   5016746.637 9
  20717209.805    -2245577.892 8  -1707280.156 9
  24065041.492    14783284.473 5  11488072.134 9
  22199395.898    -7326281.523 7  -5604593.005 9
 94  3  3 21 21  0.0000000  0  6  2 16 18 19 29 31
  22334299.406   -10408568.811 7  -7982423.982 9
  23661625.039    -2873550.428 5  -2169532.602 9
  21549347.008     6493452.771 7   5082975.865 9
  20720727.352    -2227092.489 8  -1692875.932 9
  24086071.977    14893804.556 5  11574191.552 9
  22204083.469    -7301648.943 7  -5585398.767 9
 94  3  3 21 21 30.0000000  0  6  2 16 18 19 29 31
  22322812.797   -10468930.849 7  -8029459.220 9
  23659637.297    -2884004.880 6  -2177678.860 9
  21565602.547     6578870.726 7   5149535.280 9
  20724299.680    -2208320.916 8  -1678248.714 9
  24107146.258    15004547.400 5  11660484.493 8
  22208893.242    -7276372.412 7  -5565702.736 9
 94  3  3 21 22  0.0000000  0  6  2 16 18 19 29 31
  22311389.633   -10528959.067 7  -8076234.343 9
  23657760.766    -2893855.056 5  -2185354.258 9
  21581938.242     6664719.207 7   5216430.174 9
  20727925.789    -2189265.231 8  -1663400.111 9
  24128263.883    15115512.738 5  11746950.869 9
  22213826.188    -7250450.044 7  -5545503.465 9
 94  3  3 21 22 30.0000000  0  5  2 16 18 19 31
  22300036.039   -10588625.585 7  -8122727.624 9
  23656003.094    -2903095.644 5  -2192554.657 9
  21598356.367     6750995.290 7   5283658.259 9
  20731604.469    -2169932.663 8  -1648335.754 9
  22218881.469    -7223883.722 7  -5524802.407 9
 94  3  3 21 23  0.0000000  0  5  2 16 18 19 31
  22288752.758   -10647917.244 7  -8168928.812 9
  23654361.930    -2911720.104 5  -2199274.975 9
  21614853.461     6837689.081 7   5351211.840 9
  20735333.906    -2150333.202 8  -1633063.435 9
  22224059.594    -7196671.976 7  -5503598.423 9
 94  3  3 21 23 30.0000000  0  5  2 16 18 19 31
  22277541.914   -10706829.054 7  -8214834.007 9
  23652835.008    -2919735.038 5  -2205520.296 9
  21631431.570     6924806.063 7   5419095.174 9
  20739113.836    -2130469.342 8  -1617585.087 9
  22229361.922    -7168806.856 7  -5481885.320 9
 94  3  3 21 24  0.0000000  0  5  2 16 18 19 31
  22266405.055   -10765353.997 7  -8260437.757 9
  23651426.352    -2927144.357 5  -2211293.794 9
  21648089.625     7012344.727 7   5487307.094 9
  20742942.508    -2110351.741 8  -1601909.021 9
  22234789.680    -7140285.196 7  -5459660.626 9
 94  3  3 21 24 30.0000000  0  5  2 16 18 19 31
  22255337.055   -10823517.552 7  -8305759.907 9
  23650129.141    -2933959.957 6  -2216604.549 9
  21664826.695     7100299.487 7   5555843.244 9
  20746819.539    -2089975.423 8  -1586031.355 9
  22240342.430    -7111104.835 7  -5436922.654 9
 94  3  3 21 25  0.0000000  0  5  2 16 18 19 31
  22244333.469   -10881342.556 7  -8350818.250 9
  23648941.188    -2940194.603 5  -2221462.723 9
  21681643.758     7188671.997 7   5624704.903 9
  20750748.836    -2069328.083 8  -1569942.509 9
  22246021.969    -7081257.702 7  -5413665.113 9
 94  3  3 21 25 30.0000000  0  5  2 16 18 19 31
  22233391.742   -10938837.734 7  -8395619.587 9
  23647868.016    -2945849.981 6  -2225869.450 9
  21698539.852     7277462.951 7   5693892.618 9
  20754731.148    -2048399.617 8  -1553634.600 9
  22251829.953    -7050736.508 7  -5389882.326 9
 94  3  3 21 26  0.0000000  0  5  2 16 18 19 31
  22222511.469   -10996015.126 7  -8440173.301 9
  23646902.469    -2950909.837 5  -2229812.179 9
  21715516.547     7366676.242 7   5763409.438 9
  20758770.141    -2027175.956 8  -1537096.665 9
  22257767.133    -7019536.773 7  -5365570.815 9
 94  3  3 21 26 30.0000000  0  5  2 16 18 19 31
  22211690.805   -11052877.044 7  -8484481.191 9
  23646052.117    -2955376.831 5  -2233292.929 9
  21732576.305     7456324.722 7   5833265.359 9
  20762867.867    -2005642.409 8  -1520317.256 9
  22263831.742    -6987667.438 7  -5340737.521 9
 94  3  3 21 27  0.0000000  0  5  2 16 18 19 31
  22200935.320   -11109395.994 7  -8528521.833 9
  23645317.219    -2959246.582 5  -2236308.282 9
  21749719.875     7546414.470 7   5903465.118 9
  20767021.508    -1983812.252 8  -1503306.734 9
  22270022.625    -6955132.558 7  -5315385.631 9
 94  3  3 21 27 30.0000000  0  5  2 16 18 19 31
  22190250.211   -11165549.837 7  -8572277.973 9
  23644699.305    -2962493.001 5  -2238837.931 9
  21766948.656     7636953.957 7   5974015.331 9
  20771232.813    -1961681.492 8  -1486061.971 9
  22276339.453    -6921938.685 7  -5289520.230 9
 94  3  3 21 28  0.0000000  0  5  2 16 18 19 31
  22179633.273   -11221336.678 7  -8615748.146 9
  23644201.148    -2965117.223 5  -2240882.760 9
  21784264.297     7727944.122 7   6044916.720 9
  20775502.805    -1939243.160 7  -1468577.546 9
  22282778.594    -6888098.957 7  -5263151.578 9
 94  3  3 21 28 30.0000000  0  5  2 16 18 19 31
  22169088.688   -11276747.376 7  -8658925.214 9
  23643814.789    -2967141.627 5  -2242460.161 9
  21801661.242     7819366.209 7   6116154.668 9
  20779830.969    -1916499.459 8  -1450855.173 9
  22289339.688    -6853621.952 7  -5236286.336 9
 94  3  3 21 29  0.0000000  0  5  2 16 18 19 31
  22158617.109   -11331780.686 7  -8701808.218 9
  23643548.414    -2968551.278 6  -2243558.567 9
  21819137.836     7911209.226 7   6187720.614 9
  20784216.383    -1893454.441 8  -1432898.009 9
  22296022.266    -6818502.504 7  -5208920.485 9
 94  3  3 21 29 30.0000000  0  5  2 16 18 19 31
  22148210.266   -11386467.118 7  -8744420.938 9
  23643391.664    -2969360.911 5  -2244189.399 9
  21836690.977     8003453.853 7   6259599.503 9
  20788658.383    -1870109.993 8  -1414707.513 9
  22302826.891    -6782743.920 7  -5181056.604 9
 94  3  3 21 30  0.0000000  0  5  2 16 18 19 31
  22137867.953   -11440816.187 7  -8786770.771 9
  23643348.234    -2969595.681 5  -2244372.384 9
  21854318.422     8096085.255 7   6331779.776 9
  20793155.586    -1846479.129 8  -1396293.844 9
  22309756.305    -6746329.259 7  -5152681.493 9
 94  3  3 21 30 30.0000000  0  5  2 16 18 19 31
  22127590.938   -11494823.111 7  -8828854.007 9
  23643414.914    -2969237.260 5  -2244093.071 9
  21872021.156     8189111.814 7   6404267.964 9
  20797704.297    -1822575.229 8  -1377667.422 9
  22316811.906    -6709254.559 7  -5123792.075 9
 94  3  3 21 31  0.0000000  0  5  2 16 18 19 31
  22117378.195   -11548488.711 7  -8870671.275 9
  23643598.859    -2968276.502 5  -2243344.416 9
  21889799.781     8282539.609 7   6477068.799 9
  20802303.422    -1798406.178 8  -1358834.382 9
  22323993.422    -6671515.545 7  -5094385.021 9
 94  3  3 21 31 30.0000000  0  5  2 16 18 19 31
  22107231.867   -11601807.201 7  -8912218.078 9
  23643892.328    -2966733.008 5  -2242141.665 9
  21907655.258     8376370.276 7   6550183.562 9
  20806951.477    -1773980.249 8  -1339801.180 9
  22331300.992    -6633111.534 7  -5064459.782 9
 94  3  3 21 32  0.0000000  0  5  2 16 18 19 31
  22097155.117   -11654762.880 7  -8953482.165 9
  23644299.188    -2964590.943 5  -2240472.502 9
  21925591.453     8470623.881 7   6623627.887 9
  20811651.805    -1749280.364 8  -1320554.498 9
  22338734.242    -6594047.876 7  -5034020.546 9
 94  3  3 21 32 30.0000000  0  5  2 16 18 19 31
  22087148.547   -11707347.652 7  -8994457.236 9
  23644822.703    -2961842.350 5  -2238330.729 9
  21943607.570     8565296.951 7   6697399.075 9
  20816406.922    -1724291.382 8  -1301082.550 9
  22346289.992    -6554344.777 7  -5003083.049 9
 94  3  3 21 33  0.0000000  0  5  2 16 18 19 31
  22077212.727   -11759557.500 7  -9035140.163 9
  23645458.297    -2958506.024 5  -2235730.933 9
  21961700.180     8660377.045 7   6771487.421 9
  20821219.648    -1698999.994 8  -1281374.953 9
  22353965.391    -6514009.845 7  -4971653.222 9
 94  3  3 21 33 30.0000000  0  5  2 16 18 19 31
  22067348.805   -11811394.971 7  -9075532.919 9
  23646204.695    -2954574.585 5  -2232667.477 9
  21979871.641     8755871.117 7   6845898.347 9
  20826092.875    -1673391.918 8  -1261420.597 9
  22361759.742    -6473049.330 7  -4939735.919 9
 94  3  3 21 34  0.0000000  0  5  2 16 18 19 31
  22057556.188   -11862854.762 7  -9115631.374 9
  23647071.305    -2950027.298 5  -2229124.100 9
  21998122.055     8851773.155 7   6920627.178 9
  20831028.563    -1647454.735 8  -1241209.787 9
  22369674.258    -6431460.354 7  -4907328.914 9
 94  3  3 21 34 30.0000000  0  5  2 16 18 19 31
  22047836.641   -11913932.909 7  -9155432.449 9
  23648054.242    -2944868.287 6  -2225104.128 9
  22016447.703     8948075.712 7   6995668.099 9
  20836023.898    -1621204.035 8  -1220754.687 9
  22377710.086    -6389228.736 7  -4874421.155 9
 94  3  3 21 35  0.0000000  0  5  2 16 18 19 31
  22038187.172   -11964641.998 7  -9194945.942 9
  23649151.164    -2939093.865 5  -2220604.510 9
  22034853.289     9044795.585 7   7071034.200 9
  20841077.633    -1594645.274 8  -1200059.527 9
  22385873.281    -6346328.786 7  -4840992.606 9
 94  3  3 21 35 30.0000000  0  5  2 16 18 19 31
  22028606.961   -12014982.054 7  -9234171.870 9
  23650371.281    -2932692.218 6  -2215616.193 9
  22053336.219     9141927.516 7   7146721.390 9
  20846188.313    -1567787.771 8  -1179131.587 9
  22394168.141    -6302741.363 7  -4807028.376 9
 94  3  3 21 36  0.0000000  0  5  2 16 18 19 31
  22019099.203   -12064948.790 7  -9273106.904 9
  23651706.187    -2925667.696 5  -2210142.521 9
  22071895.477     9239453.657 7   7222715.746 9
  20851356.500    -1540631.107 8  -1157970.536 9
  22402593.391    -6258467.182 7  -4772529.007 9
 94  3  3 21 36 30.0000000  0  5  2 16 18 19 31
  22009660.422   -12114550.183 7  -9311757.254 9
  23653159.078    -2918035.323 5  -2204195.205 9
  22090529.008     9337373.234 7   7299016.685 9
  20856582.008    -1513169.476 8  -1136571.848 9
  22411147.500    -6213513.567 7  -4737500.220 9
 94  3  3 21 37  0.0000000  0  5  2 16 18 19 31
  22000290.336   -12163788.195 7  -9350124.454 9
  23654725.656    -2909802.427 5  -2197779.947 9
  22109232.570     9435666.467 7   7375608.783 9
  20861867.266    -1485395.298 8  -1114929.618 9
  22419826.914    -6167905.232 7  -4701961.255 9
 94  3  3 21 37 30.0000000  0  5  2 16 18 19 31
  21990993.117   -12212641.826 7  -9388192.124 9
  23656409.273    -2900953.575 5  -2190884.706 9
  22128008.273     9534333.122 7   7452491.855 9
  20867214.438    -1457296.787 8  -1093034.656 9
  22428626.852    -6121661.848 7  -4665927.440 9
 94  3  3 21 38  0.0000000  0  5  2 16 18 19 31
  21981768.922   -12261117.224 7  -9425965.078 9
  23658210.539    -2891490.987 6  -2183511.242 9
  22146858.367     9633387.156 7   7529676.783 9
  20872625.094    -1428862.030 8  -1070877.683 9
  22437546.352    -6074790.462 7  -4629404.288 9
 94  3  3 21 38 30.0000000  0  5  2 16 18 19 31
  21972616.633   -12309213.788 7  -9463442.835 9
  23660127.469    -2881411.098 5  -2175656.775 9
  22165783.984     9732844.017 7   7607175.603 9
  20878099.086    -1400099.343 8  -1048465.183 9
  22446585.773    -6027288.764 7  -4592389.976 9
 94  3  3 21 39  0.0000000  0  5  2 16 18 19 31
  21963537.492   -12356924.321 7  -9500619.787 9
  23662166.453    -2870704.272 6  -2167313.803 9
  22184787.719     9832708.283 7   7684991.879 9
  20883632.828    -1371017.386 8  -1025803.901 9
  22455744.008    -5979158.444 7  -4554885.825 9
 94  3  3 21 39 30.0000000  0  5  2 16 18 19 31
  21954529.211   -12404260.819 7  -9537505.292 9
  23664323.945    -2859366.773 6  -2158479.368 9
  22203870.000     9932988.225 7   7763132.066 9
  20889228.188    -1341614.124 8  -1002892.249 9
  22465024.484    -5930388.533 7  -4516883.295 9
 94  3  3 21 40  0.0000000  0  5  2 16 18 19 31
  21945591.414   -12451231.219 7  -9574105.522 9
  23666597.953    -2847420.811 6  -2149170.805 9
  22223031.570    10033679.272 7   7841592.587 9
  20894883.352    -1311894.498 8   -979734.083 9
  22474428.852    -5880970.397 7  -4478375.665 9
 94  3  3 21 40 30.0000000  0  5  2 16 18 19 31
  21936726.406   -12497816.950 7  -9610406.019 9
  23668982.664    -2834872.153 5  -2139392.613 9
  22242269.352    10134775.795 7   7920369.064 9
  20900597.289    -1281868.425 8   -956337.128 9
  22483955.008    -5830910.974 7  -4439368.327 9
 94  3  3 21 41  0.0000000  0  5  2 16 18 19 31
  21927934.617   -12544018.392 7  -9646407.064 9
  23671486.281    -2821730.611 6  -2129152.446 9
  22261584.109    10236276.990 7   7999460.869 9
  20906370.883    -1251530.055 8   -932696.821 9
  22493605.453    -5780197.792 7  -4399851.564 9
 94  3  3 21 41 30.0000000  0  5  2 16 18 19 31
  21919213.742   -12589847.183 7  -9682117.742 9
  23674095.930    -2808009.844 6  -2118460.906 9
  22280975.672    10338179.418 7   8078865.327 9
  20912202.937    -1220879.235 8   -908813.047 9
  22503383.727    -5728810.946 7  -4359809.861 9
 94  3  3 21 42  0.0000000  0  5  2 16 18 19 31
  21910565.313   -12635291.757 7  -9717529.029 9
  23676815.227    -2793717.686 5  -2107324.148 9
  22300442.469    10440475.601 7   8158576.606 9
  20918093.656    -1189922.002 8   -884690.518 9
  22513289.445    -5676755.892 7  -4319247.482 9
 94  3  3 21 42 30.0000000  0  5  2 16 18 19 31
  21901990.523   -12680352.945 7  -9752641.574 9
  23679646.953    -2778841.297 6  -2095732.169 9
  22319981.922    10543156.904 7   8238587.970 9
  20924044.867    -1158650.971 8   -860323.470 9
  22523322.742    -5624029.204 6  -4278161.754 9
 94  3  3 21 43  0.0000000  0  5  2 16 18 19 31
  21893485.141   -12725051.479 7  -9787471.539 9
  23682589.977    -2763373.098 6  -2083678.998 9
  22339593.234    10646218.018 7   8318895.291 9
  20930057.758    -1127050.825 8   -835699.959 9
  22533485.102    -5570626.721 6  -4236549.427 9
 94  3  3 21 43 30.0000000  0  5  2 16 18 19 31
  21885049.672   -12769377.796 7  -9822011.465 9
  23685647.352    -2747295.927 5  -2071151.355 9
  22359276.805    10749650.394 7   8399491.907 9
  20936135.734    -1095110.573 8   -810811.431 9
  22543773.055    -5516565.927 7  -4194424.140 9
 94  3  3 21 44  0.0000000  0  5  2 16 18 19 31
  21876688.484   -12813313.974 7  -9856247.386 9
  23688831.203    -2730583.605 6  -2058128.707 9
  22379028.203    10853448.118 7   8480373.205 9
  20942278.570    -1062831.466 8   -785658.865 9
  22554182.313    -5461864.362 7  -4151799.557 9
 94  3  3 21 44 30.0000000  0  5  2 16 18 19 31
  21868403.000   -12856854.249 7  -9890174.819 9
  23692133.156    -2713221.519 5  -2044599.796 9
  22398852.211    10957623.940 7   8561549.124 9
  20948485.141    -1030214.036 8   -760242.673 9
  22564712.930    -5406522.668 6  -4108676.158 9
 94  3  3 21 45  0.0000000  0  5  2 16 18 19 31
  21860194.555   -12899990.488 7  -9923787.418 9
  23695559.359    -2695215.367 6  -2030569.025 9
  22418748.664    11062179.256 7   8643020.756 9
  20954754.555     -997269.531 8   -734571.609 9
  22575365.203    -5350546.988 7  -4065058.744 9
 94  3  3 21 45 30.0000000  0  5  2 16 18 19 31
  21852067.023   -12942701.012 7  -9957068.291 9
  23699109.609    -2676559.834 5  -2016032.221 9
  22438718.477    11167119.768 7   8724792.534 9
  20961084.641     -964003.105 8   -708649.704 9
  22586137.602    -5293937.659 7  -4020947.582 9
 94  3  3 21 46  0.0000000  0  5  2 16 18 19 31
  21844018.766   -12984995.194 7  -9990024.746 9
  23702778.961    -2657284.617 6  -2001012.580 9
  22458760.508    11272443.483 7   8806862.920 9
  20967475.141     -930420.713 8   -682481.595 9
  22597029.625    -5236697.798 6  -3976345.089 9
 94  3  3 21 46 30.0000000  0  5  2 16 18 19 31
  21836048.031   -13026881.172 7 -10022663.116 9
  23706557.367    -2637424.102 6  -1985536.810 9
  22478877.734    11378157.764 7   8889237.637 9
  20973928.563     -896508.810 8   -656056.721 9
  22608043.242    -5178821.293 7  -3931246.521 9
 94  3  3 21 47  0.0000000  0  5  2 16 18 19 31
  21828153.109   -13068369.662 7 -10054991.753 9
  23710444.031    -2616995.745 5  -1969618.641 9
  22499065.344    11484240.890 7   8971899.768 9
  20980446.688     -862255.924 8   -629366.149 9
  22619177.242    -5120312.814 7  -3885655.498 9
 94  3  3 21 47 30.0000000  0  5  2 16 18 19 31
  21820332.836   -13109464.585 7 -10087013.707 9
  23714438.094    -2596010.870 5  -1953266.772 9
  22519322.227    11590699.153 6   9054854.222 9
  20987031.992     -827649.390 8   -602400.003 9
  22630429.609    -5061181.380 7  -3839579.062 9
 94  3  3 21 48  0.0000000  0  5  2 16 18 19 31
  21812585.250   -13150179.674 7 -10118739.699 9
  23718536.836    -2574474.844 6  -1936485.426 9
  22539650.461    11697526.886 6   9138096.563 9
  20993684.227     -792692.100 8   -575160.554 9
  22641800.711    -5001426.591 7  -3793016.893 9
 94  3  3 21 48 30.0000000  0  5  2 16 18 19 31
  21804910.844   -13190509.181 7 -10150165.225 9
  23722746.930    -2552347.381 5  -1919243.274 9
  22560050.000    11804726.485 6   9221628.674 9
  21000401.563     -757389.865 8   -547652.312 9
  22653291.352    -4941041.531 7  -3745963.608 9
 94  3  3 21 49  0.0000000  0  5  2 16 18 19 31
  21797308.500   -13230457.609 7 -10181293.813 9
  23727076.844    -2529598.785 6  -1901517.087 9
  22580521.039    11912299.245 6   9305451.548 9
  21007185.164     -721743.945 8   -519876.264 9
  22664900.375    -4880035.260 6  -3698426.269 9
 94  3  3 21 49 30.0000000  0  5  2 16 18 19 31
  21789780.102   -13270021.057 7 -10212122.419 9
  23731524.430    -2506217.252 5  -1883297.686 9
  22601065.648    12020261.915 6   9389578.257 9
  21014031.891     -685763.595 8   -491839.623 9
  22676629.148    -4818399.345 6  -3650398.291 9
 94  3  3 21 50  0.0000000  0  5  2 16 18 19 31
  21782325.570   -13309192.813 7 -10242645.807 9
  23736100.930    -2482176.261 5  -1864564.496 9
  22621683.109    12128605.667 6   9474001.898 9
  21020939.688     -649464.378 8   -463554.514 9
  22688481.945    -4756113.938 6  -3601864.216 9
 94  3  3 21 50 30.0000000  0  5  2 16 18 19 31
  21774945.422   -13347975.961 7 -10272866.390 9
  23740798.469    -2457487.339 5  -1845326.354 9
  22642373.633    12237335.988 6   9558726.767 9
  21027908.094     -612843.445 7   -435018.713 9
  22700456.891    -4693183.161 6  -3552827.245 9
 94  3  3 21 51  0.0000000  0  5  2 16 18 19 31
  21767638.219   -13386375.325 7 -10302787.915 9
  23745611.320    -2432191.094 5  -1825615.007 9
  22663135.641    12346439.489 6   9643742.421 9
  21034938.227     -575898.368 7   -406230.338 9
  22712554.000    -4629612.958 6  -3503292.037 9
 94  3  3 21 51 30.0000000  0  5  2 16 18 19 31
  21760406.078   -13424379.368 7 -10332401.407 9
  23750537.633    -2406302.578 5  -1805442.124 9
  22683962.437    12455891.069 6   9729029.313 9
  21042028.922     -538637.661 7   -377196.014 9
  22724772.344    -4565403.258 6  -3453258.505 9
 94  3  3 21 52  0.0000000  0  5  2 16 18 19 31
  21753249.164   -13461989.809 7 -10361708.197 9
  23755576.391    -2379833.475 6  -1784816.856 9
  22704854.633    12565673.191 6   9814573.752 9
  21049179.789     -501057.263 7   -347912.579 9
  22737110.906    -4500565.258 6  -3402735.395 9
 94  3  3 21 52 30.0000000  0  5  2 16 18 19 31
  21746165.422   -13499214.447 7 -10390714.361 9
  23760717.461    -2352811.757 5  -1763761.005 9
  22725805.531    12675772.592 6   9900365.447 9
  21056395.742     -463138.826 7   -318365.742 9
  22749564.523    -4435121.922 6  -3351740.594 9
 94  3  3 21 53  0.0000000  0  5  2 16 18 19 31
  21739157.266   -13536041.861 7 -10419411.005 9
  23765968.906    -2325223.056 5  -1742263.314 9
  22746814.305    12786170.266 6   9986389.530 9
  21063675.023     -424885.618 7   -288558.036 9
  22762132.742    -4369076.839 6  -3300276.905 9
 94  3  3 21 53 30.0000000  0  6  2 16 18 19  7 31
  21732224.563   -13572475.317 7 -10447800.669 9
  23771326.945    -2297057.159 5  -1720315.864 9
  22767879.203    12896868.428 6  10072647.798 9
  21071016.055     -386305.982 7   -258495.976 9
  24334386.406      -35259.08115
  22774813.539    -4302438.720 6  -3248351.086 9
 94  3  3 21 54  0.0000000  0  6  2 16 18 19  7 31
  21725364.188   -13608527.156 7 -10475892.972 9
  23776798.086    -2268317.215 6  -1697921.142 9
  22789003.945    13007883.437 6  10159152.931 9
  21078420.250     -347396.805 7   -228177.133 9
  24316102.070     -131353.008 5
  22787606.672    -4235209.989 6  -3195965.078 9
 94  3  3 21 54 30.0000000  0  6  2 16 18 19  7 31
  21718575.898   -13644198.497 7 -10503688.781 9
  23782376.234    -2238999.495 6  -1675076.174 9
  22810192.375    13119225.569 6  10245912.964 9
  21085888.648     -308152.338 7   -197597.026 9
  24297838.813     -227319.305 5    -54825.93519
  22800511.727    -4167391.834 6  -3143119.768 9
 94  3  3 21 55  0.0000000  0  6  2 16 18 19  7 31
  21711858.328   -13679500.135 7 -10531196.517 9
  23788066.234    -2209094.611 6  -1651773.655 9
  22831445.555    13230908.727 6  10332938.740 9
  21093417.367     -268588.905 7   -166768.368 9
  24279604.031     -323137.722 5   -129489.476 9
  22813530.352    -4098980.791 6  -3089812.472 9
 94  3  3 21 55 30.0000000  0  6  2 16 18 19  7 31
  21705209.117   -13714441.586 7 -10558423.587 9
  23793867.469    -2178614.723 6  -1628023.154 9
  22852764.539    13342946.287 6  10420240.670 9
  21101008.867     -228696.448 7   -135683.337 9
  24261399.430     -418817.850 6   -204045.192 9
  22826662.492    -4029970.715 6  -3036038.392 9
 94  3  3 21 56  0.0000000  0  6  2 16 18 19  7 31
  21698629.375   -13749018.300 7 -10585366.444 9
  23799773.648    -2147566.027 5  -1603829.338 9
  22874153.406    13455336.610 6  10507817.474 9
  21108664.156     -188465.557 7   -104334.585 9
  24243210.938     -514374.756 4   -278504.928 9
  22839910.547    -3960351.160 6  -2981789.399 9
 94  3  3 21 56 30.0000000  0  6  2 16 18 19  7 31
  21692119.859   -13783225.491 7 -10612021.365 9
  23805791.430    -2115950.723 6  -1579194.092 9
  22895607.008    13568085.042 6  10595673.324 9
  21116384.258     -147897.515 7    -72723.116 9
  24225054.695     -609811.167 5   -352870.679 9
  22853276.672    -3890114.294 6  -2927059.380 9
 94  3  3 21 57  0.0000000  0  6  2 16 18 19  7 31
  21685680.781   -13817063.076 7 -10638388.276 9
  23811911.984    -2083780.748 5  -1554126.606 9
  22917129.234    13681181.057 6  10683800.024 9
  21124166.063     -107002.686 7    -40857.005 9
  24206913.664     -705135.261 5   -427148.977 9
  22866758.984    -3819258.141 6  -2871846.807 9
 94  3  3 21 57 30.0000000  0  6  2 16 18 19  7 31
  21679314.148   -13850519.068 7 -10664457.840 9
  23818138.742    -2051069.792 6  -1528637.540 9
  22938712.703    13794602.030 6  10772179.936 9
  21132011.484      -65775.391 7     -8731.830 9
  24188792.266     -800349.278 5   -501341.425 7
  22880359.766    -3747789.101 6  -2816156.654 9
 94  3  3 21 58  0.0000000  0  6  2 16 18 19  7 31
  21673021.219   -13883587.782 7 -10690225.632 9
  23824465.539    -2017814.972 6  -1502724.727 9
  22960354.977    13908337.161 6  10860804.648 9
  21139919.320      -24219.187 7     23649.643 9
  24170699.055     -895433.879 5   -575433.033 9
  22894074.391    -3675718.054 6  -2759997.417 9
 94  3  3 21 58 30.0000000  0  6  2 16 18 19  7 31
  21666799.555   -13916282.728 7 -10715702.168 9
  23830897.367    -1984016.336 5  -1476388.181 9
  22982056.695    14022376.250 6  10949666.193 9
  21147888.734       17659.405 7     56282.325 9
  24152630.969     -990390.125 5   -649424.587 9
  22907897.133    -3603076.780 6  -2703393.833 9
 94  3  3 21 59  0.0000000  0  6  2 16 18 19  7 31
  21660650.453   -13948594.414 7 -10740880.057 9
  23837434.141    -1949663.039 5  -1449619.357 9
  23003811.953    14136698.908 6  11038748.706 9
  21155920.688       59867.342 7     89171.640 9
  24134586.578    -1085211.253 5   -723310.849 8
  22921826.281    -3529883.815 6  -2646360.374 9
 94  3  3 21 59 30.0000000  0  6  2 16 18 19  7 31
  21654575.961   -13980518.912 7 -10765756.247 9
  23844079.438    -1914750.453 6  -1422414.783 9
  23025617.844    14251296.210 6  11128045.245 9
  21164016.000      102409.356 7    122321.268 9
  24116567.398    -1179902.985 5   -797096.310 9
  22935855.742    -3456156.336 6  -2588910.404 9
 94  3  3 22  0  0.0000000  0  6  2 16 18 19  7 31
  21648571.398   -14012070.823 7 -10790342.104 9
  23850826.391    -1879280.739 5  -1394776.056 9
  23047479.039    14366167.986 6  11217555.633 9
  21172171.664      145267.743 7    155717.426 9
  24098570.844    -1274478.825 6   -870791.455 9
  22949986.516    -3381902.203 6  -2531050.066 9
 94  3  3 22  0 30.0000000  0  6  2 16 18 19  7 31
  21642638.211   -14043251.936 7 -10814639.029 9
  23857684.680    -1843251.054 6  -1366701.016 9
  23069389.195    14481317.803 6  11307282.686 9
  21180387.125      188437.817 8    189356.455 9
  24080594.031    -1368937.837 5   -944395.530 9
  22964216.859    -3307117.936 6  -2472776.639 9
 94  3  3 22  1  0.0000000  0  6  2 16 18 19  7 31
  21636775.336   -14074060.020 7 -10838645.286 9
  23864643.242    -1806675.048 5  -1338200.268 9
  23091353.500    14596741.784 6  11397223.385 9
  21188661.742      231922.513 8    223240.638 9
  24062643.367    -1463269.117 5  -1017900.159 9
  22978552.828    -3231783.580 6  -2414074.565 9
 94  3  3 22  1 30.0000000  0  6  2 16 18 19  7 31
  21630981.797   -14104505.409 7 -10862368.922 9
  23871706.680    -1769558.575 5  -1309278.298 9
  23113375.336    14712457.036 6  11487391.033 9
  21196996.656      275723.668 7    257371.420 9
  24044717.852    -1557475.521 5  -1091307.432 9
  22992996.680    -3155875.839 6  -2354925.683 9
 94  3  3 22  2  0.0000000  0  6  2 16 18 19  7 31
  21625252.531   -14134612.605 7 -10885829.037 9
  23878873.883    -1731900.449 6  -1279934.382 9
  23135447.711    14828452.918 6  11577777.350 9
  21205389.242      319826.835 7    291737.534 9
  24026814.438    -1651556.681 6  -1164617.121 9
  23007551.453    -3079391.388 6  -2295327.430 9
 94  3  3 22  2 30.0000000  0  6  2 16 18 19  7 31
  21619587.406   -14164382.233 7 -10909026.104 9
  23886144.031    -1693704.950 6  -1250171.704 9
  23157574.688    14944723.389 6  11668377.627 9
  21213840.875      364239.936 7    326345.148 9
  24008934.227    -1745495.453 5  -1237815.932 9
  23022216.008    -3002330.021 6  -2235279.635 9
 94  3  3 22  3  0.0000000  0  6  2 16 18 19  7 31
  21613987.586   -14193810.564 7 -10931957.231 9
  23893507.508    -1654986.756 5  -1220001.600 9
  23179751.672    15061263.637 6  11759188.128 9
  21222351.141      408963.172 7    361194.435 9
  23991088.672    -1839296.977 6  -1310907.753 9
  23036989.281    -2924694.292 6  -2174784.273 9
 94  3  3 22  3 30.0000000  0  6  2 16 18 19  7 31
  21608450.492   -14222906.089 7 -10954629.026 9
  23900979.680    -1615742.567 6  -1189421.853 9
  23201976.227    15178058.097 6  11850196.724 9
  21230916.563      453973.969 7    396267.795 9
  23973259.008    -1932963.209 5  -1383894.219 9
  23051867.383    -2846511.459 6  -2113862.605 9
 94  3  3 22  4  0.0000000  0  6  2 16 18 19  7 31
  21602977.141   -14251670.384 7 -10977042.724 9
  23908544.289    -1575984.538 6  -1158441.580 9
  23224246.055    15295092.867 6  11941392.562 9
  21239534.906      499264.177 7    431558.874 9
  23955464.836    -2026484.054 5  -1456767.359 9
  23066844.164    -2767809.974 6  -2052536.788 9
 94  3  3 22  4 30.0000000  0  6  2 16 18 19  7 31
  21597569.289   -14280087.146 7 -10999185.623 9
  23916201.016    -1535736.456 5  -1127079.380 9
  23246566.219    15412387.678 6  12032791.013 9
  21248207.969      544842.071 7    467074.125 9
  23937693.766    -2119861.380 5  -1529528.660 9
  23081918.352    -2688593.304 6  -1990809.535 9
 94  3  3 22  5  0.0000000  0  6  2 16 18 19  7 31
  21592228.273   -14308155.328 7 -11021056.899 9
  23923954.969    -1494995.658 5  -1095333.350 9
  23268937.531    15529948.657 6  12124396.913 9
  21256937.109      590715.233 7    502819.449 9
  23919951.742    -2213107.535 5  -1602187.723 9
  23097089.328    -2608870.074 6  -1928687.543 9
 94  3  3 22  5 30.0000000  0  6  2 16 18 19  7 31
  21586949.563   -14335892.792 7 -11042670.464 9
  23931802.148    -1453762.530 5  -1063203.659 9
  23291357.055    15647766.724 6  12216203.102 9
  21265722.570      636880.972 7    538792.757 9
  23902228.805    -2306219.464 4  -1674742.273 9
  23112353.391    -2528653.904 6  -1866181.454 9
 94  3  3 22  6  0.0000000  0  6  2 16 18 19  7 31
  21581737.891   -14363282.563 7 -11064013.115 9
  23939738.586    -1412046.493 5  -1030697.688 9
  23313830.891    15765857.754 6  12308222.001 9
  21274567.398      683361.363 7    575011.247 9
  23884537.734    -2399191.311 5  -1747187.610 9
  23127714.391    -2447931.554 6  -1803280.921 9
 94  3  3 22  6 30.0000000  0  6  2 16 18 19  7 31
  21576593.234   -14390313.317 7 -11085076.004 9
  23947773.227    -1369836.010 6   -997806.398 9
  23336354.539    15884216.969 6  12400449.883 9
  21283473.039      730161.623 7    611478.981 9
  23866875.109    -2492023.468 5  -1819524.065 9
  23143174.727    -2366690.111 6  -1739975.902 9
 94  3  3 22  7  0.0000000  0  6  2 16 18 19  7 31
  21571517.398   -14416989.987 7 -11105862.989 9
  23955899.945    -1327120.003 5   -964521.298 9
  23358920.656    16002812.350 6  12492861.770 9
  21292439.313      777278.835 7    648193.692 9
  23849239.336    -2584703.654 5  -1891742.141 9
  23158730.813    -2284941.458 6  -1676275.650 9
 94  3  3 22  7 30.0000000  0  6  2 16 18 19  7 31
  21566508.445   -14443312.383 7 -11126373.912 9
  23964123.258    -1283908.426 5   -930849.838 9
  23381530.953    16121623.141 6  12585441.521 9
  21301463.445      824701.235 7    685146.205 9
  23831633.367    -2677222.917 6  -1963834.765 9
  23174383.680    -2202686.220 6  -1612180.673 9
 94  3  3 22  8  0.0000000  0  6  2 16 18 19  7 31
  21561567.547   -14469277.747 7 -11146606.632 9
  23972442.156    -1240202.828 6   -896793.639 9
  23404180.453    16240641.279 6  12678182.833 9
  21310544.242      872420.460 7    722330.012 9
  23814057.914    -2769594.518 6  -2035812.377 9
  23190131.297    -2119931.195 6  -1547696.230 9
 94  3  3 22  8 30.0000000  0  6  2 16 18 19  7 31
  21556689.125   -14494912.194 7 -11166581.500 9
  23980849.688    -1196008.508 5   -862356.458 9
  23426866.695    16359856.148 6  12771077.456 9
  21319679.195      920425.466 7    759736.504 9
  23796502.594    -2861837.142 6  -2107689.463 9
  23205971.484    -2036690.082 6  -1482833.023 9
 94  3  3 22  9  0.0000000  0  6  2 16 18 19  7 31
  21551874.453   -14520215.902 7 -11186298.653 9
  23989351.188    -1151333.053 5   -827544.424 9
  23449590.188    16479280.509 6  12864135.318 9
  21328869.922      968723.180 7    797371.077 9
  23778974.828    -2953940.734 5  -2179458.203 9
  23221906.234    -1952955.155 6  -1417585.050 9
 94  3  3 22  9 30.0000000  0  6  2 16 18 19  7 31
  21547120.852   -14545192.449 7 -11205760.875 9
  23997942.211    -1106186.778 5   -792365.558 9
  23472359.680    16598925.677 6  12957365.217 9
  21338116.805     1017314.069 7    835234.100 9
  23761472.727    -3045912.681 6  -2251124.394 9
  23237935.867    -1868717.619 6  -1351945.418 9
 94  3  3 22 10  0.0000000  0  6  2 16 18 19  7 31
  21542430.273   -14569845.121 7 -11224970.722 9
  24006624.391    -1060570.976 5   -756820.878 9
  23495171.438    16718802.954 6  13050775.994 9
  21347419.930     1066203.040 7    873329.396 9
  23743996.844    -3137758.973 6  -2322692.679 9
  23254062.828    -1783970.742 6  -1285908.893 9
 94  3  3 22 10 30.0000000  0  6  2 16 18 19  7 31
  21537798.539   -14594184.888 7 -11243936.748 9
  24015389.414    -1014501.208 5   -720922.284 9
  23518024.422    16838903.966 6  13144361.120 9
  21356780.977     1115394.914 7    911660.714 9
  23726544.156    -3229463.861 6  -2394150.777 9
  23270285.906    -1698714.714 6  -1219475.638 9
 94  3  3 22 11  0.0000000  0  6  2 16 18 19  7 31
  21533228.211   -14618203.281 7 -11262652.348 9
  24024245.148     -967968.823 5   -684663.423 9
  23540920.250    16959215.395 6  13238110.208 9
  21366198.781     1164888.100 7    950226.825 9
  23709126.391    -3321000.530 6  -2465477.822 9
  23286604.977    -1612959.611 6  -1152653.503 9
 94  3  3 22 11 30.0000000  0  6  2 16 18 19  7 31
  21528714.086   -14641923.094 7 -11281135.294 9
  24033187.664     -920976.087 5   -648045.614 9
  23563848.836    17079715.274 6  13332006.118 9
  21375672.539     1214671.450 7    989019.034 9
  23691737.258    -3412374.275 5  -2536677.917 9
  23303013.859    -1526731.930 6  -1085463.129 9
 94  3  3 22 12  0.0000000  0  6  2 16 18 19  7 31
  21524257.781   -14665340.454 7 -11299382.572 9
  24042219.289     -873518.425 5   -611065.731 8
  23586815.992    17200399.352 6  13426045.599 9
  21385201.109     1264745.311 7   1028037.621 9
  23674383.102    -3503565.823 5  -2607736.054 9
  23319509.945    -1440040.910 6  -1017911.721 9
 94  3  3 22 12 30.0000000  0  6  2 16 18 19  7 31
  21519858.813   -14688457.318 7 -11317395.686 9
  24051336.852     -825597.861 5   -573724.958 9
  23609814.203    17321261.961 6  13520224.176 9
  21394784.164     1315103.465 7   1067277.734 9
  23657065.031    -3594565.425 5  -2678644.659 9
  23336092.211    -1352904.068 6   -950012.922 9
 94  3  3 22 13  0.0000000  0  6  2 16 18 19  7 31
  21515519.055   -14711263.260 7 -11335166.519 9
  24060544.625     -777212.281 5   -536022.011 7
  23632847.813    17442307.995 6  13614545.653 9
  21404418.766     1365735.612 7   1106731.345 9
  23639784.359    -3685391.447 6  -2749418.004 9
  23352759.742    -1265313.301 6   -881760.405 9
 94  3  3 22 13 30.0000000  0  6  2 16 18 19  7 31
  21511241.156   -14733742.121 7 -11352682.483 9
  24069840.617     -728368.820 5   -497962.155 9
  23655924.156    17563558.840 6  13709026.747 9
  21414106.383     1416641.569 7   1146398.324 9
  23622528.109    -3776061.389 5  -2820069.746 9
  23369518.008    -1177244.552 6   -813135.456 9
 94  3  3 22 14  0.0000000  0  6  2 16 18 19  7 31
  21507028.789   -14755879.770 7 -11369932.565 9
  24079218.523     -679073.114 4   -459550.003 8
  23679035.953    17685021.098 6  13803672.595 9
  21423843.594     1467812.944 7   1186272.115 9
  23605302.203    -3866593.903 6  -2890614.408 9
  23386367.969    -1088703.638 6   -744142.573 9
 94  3  3 22 14 30.0000000  0  6  2 16 18 19  7 31
  21502880.773   -14777675.141 7 -11386915.946 9
  24088688.125     -629324.373 5   -420784.644 9
  23702190.930    17806694.620 6  13898483.046 9
  21433632.648     1519253.175 7   1226355.401 9
  23588099.156    -3957003.994 6  -2961063.681 9
  23403306.500     -999690.914 6   -674782.065 9
 94  3  3 22 15  0.0000000  0  6  2 16 18 19  7 31
  21498798.391   -14799130.419 7 -11403634.311 9
  24098241.125     -579130.406 5   -381672.780 8
  23725381.492    17928563.599 6  13993445.793 9
  21443473.148     1570965.832 7   1266650.971 9
  23570915.531    -4047290.449 6  -3031416.647 9
  23420331.422     -910221.114 6   -605065.374 9
 94  3  3 22 15 30.0000000  0  6  2 16 18 19  7 31
  21494778.094   -14820257.436 7 -11420096.901 9
  24107870.492     -528507.331 4   -342225.910 8
  23748605.984    18050607.559 6  14088544.893 9
  21453366.102     1622954.412 7   1307161.549 9
  23553761.031    -4137441.754 6  -3101664.289 9
  23437436.508     -820329.425 6   -535019.928 9
 94  3  3 22 16  0.0000000  0  6  2 16 18 19  7 31
  21490815.266   -14841080.914 7 -11436322.960 9
  24117589.352     -477456.049 6   -302446.001 9
  23771858.695    18172799.804 6  14183759.513 9
  21463314.570     1675232.827 7   1347897.972 9
  23536632.086    -4227438.060 5  -3171791.180 9
  23454621.719     -730029.202 6   -464656.176 9
 94  3  3 22 16 30.0000000  0  6  2 16 18 19  7 31
  21486906.219   -14861622.319 7 -11452329.220 9
  24127377.570     -425988.500 3   -262341.278 9
  23795134.492    18295126.523 5  14279078.947 9
  21473319.500     1727809.961 7   1388867.162 9
  23519541.633    -4317257.432 5  -3241780.182 9
  23471883.438     -639316.770 6   -393971.177 9
 94  3  3 22 17  0.0000000  0  6  2 16 18 19  7 31
  21483050.648   -14881884.265 7 -11468117.722 9
  24137254.148     -374111.757 5   -221917.911 9
  23818440.297    18417585.585 6  14374501.488 9
  21483381.063     1780683.187 7   1430067.071 9
  23502488.055    -4406880.068 6  -3311615.886 9
  23489225.992     -548176.516 6   -322952.837 9
 94  3  3 22 17 30.0000000  0  6  2 16 18 19  7 31
  21479248.031   -14901865.734 7 -11483687.668 9
  24147203.883     -321822.199 5   -181172.850 9
  23841769.859    18540190.783 5  14470037.905 9
  21493497.945     1833848.834 7   1471494.847 9
  23485469.539    -4496306.733 6  -3381298.889 9
  23506656.258     -456583.895 6   -251581.983 9
 94  3  3 22 18  0.0000000  0  6  2 16 18 19  7 31
  21475497.703   -14921574.411 7 -11499045.047 9
  24157231.383     -269123.131 5   -140108.625 6
  23865131.078    18662947.966 6  14565692.747 9
  21503668.758     1887295.387 7   1513141.501 9
  23468487.938    -4585540.664 5  -3450831.685 9
  23524171.344     -364537.299 6   -179857.389 9
 94  3  3 22 18 30.0000000  0  6  2 16 18 19  7 31
  21471803.492   -14940986.910 7 -11514171.641 9
  24167337.695     -216016.665 5    -98726.984 9
  23888520.742    18785865.667 5  14661472.682 9
  21513890.398     1941012.913 7   1554999.307 9
  23451544.602    -4674586.565 6  -3520217.987 9
  23541773.250     -272039.688 6   -107781.363 9
 94  3  3 22 19  0.0000000  0  6  2 16 18 19  7 31
  21468168.602   -14960088.220 7 -11529055.750 9
  24177520.805     -162500.149 5    -57025.893 9
  23911941.813    18908944.141 5  14757377.868 9
  21524161.555     1994986.070 7   1597056.297 9
  23434631.047    -4763456.926 5  -3589467.494 9
  23559459.367     -179101.359 6    -35361.911 9
 94  3  3 22 19 30.0000000  0  6  2 16 18 19  7 31
  21464592.859   -14978880.454 7 -11543699.029 9
  24187782.469     -108574.199 5    -15005.590 9
  23935392.508    19032186.522 5  14853410.827 9
  21534482.305     2049225.397 7   1639320.697 9
  23417752.461    -4852161.605 6  -3658587.887 9
  23577221.742      -85757.777 6     37373.317 9
 94  3  3 22 20  0.0000000  0  6  2 16 18 19  7 31
  21461074.695   -14997367.496 7 -11558104.492 9
  24198122.203      -54244.409 5     27329.143 9
  23958875.000    19155577.193 5  14949559.265 9
  21544855.711     2103736.112 7   1681796.565 9
  23400905.328    -4940694.441 6  -3727574.377 9
  23595057.508        7970.062 6    110407.967 9
 94  3  3 22 20 30.0000000  0  6  2 16 18 19  7 31
  21457614.563   -15015551.425 7 -11572273.768 9
  24208534.266         482.693 5
  23982380.672    19279103.186 5  15045813.215 9
  21555279.000     2158511.261 7   1724478.495 9
  23384090.406    -5029056.795 6  -3796428.016 9
  23612967.148      102085.551 6    183744.681 9
 94  3  3 22 21  0.0000000  0  6  2 16 18 19  7 31
  21454207.336   -15033456.880 7 -11586226.058 9
  24219023.977       55595.189 5
  24005910.836    19402762.214 5  15142170.788 9
  21565752.094     2213547.954 7   1767364.216 9
  23367306.867    -5117252.313 6  -3865151.647 9
  23630948.305      196575.409 6    257373.095 9
 94  3  3 22 21 30.0000000  0  6  2 16 18 19  7 31
  21450848.758   -15051104.432 7 -11599977.376 9
  24229578.797      111076.548 4     23090.61717
  24029465.977    19526532.416 6  15238614.967 9
  21576273.383     2268836.206 7   1810445.962 9
  23350555.852    -5205286.113 6  -3933749.287 9
  23648998.414      291434.236 5    331289.031 9
 94  3  3 22 22  0.0000000  0  6  2 16 18 19  7 31
  21447538.648   -15068499.254 7 -11613531.762 9
  24240210.750      166929.620 5     66612.464 9
  24053034.383    19650390.030 5  15335127.284 9
  21586837.406     2324351.585 7   1853704.687 9
  23333831.469    -5293162.862 6  -4002224.545 9
  23667123.016      386677.843 5    405504.777 9
 94  3  3 22 22 30.0000000  0  6  2 16 18 19  7 31
  21444276.805   -15085639.888 7 -11626888.087 9
  24250910.047      223158.282 5    110426.933 8
  24076622.773    19774340.013 6  15431711.603 9
  21597443.609     2380087.238 7   1897135.062 9
  23317136.891    -5380894.751 6  -4070586.915 9
  23685320.047      482304.659 5    480019.127 9
 94  3  3 22 23  0.0010000  0  6  2 16 18 19  7 31
  21441063.646   -15102527.448 7 -11640047.210 9
  24261684.075      279771.858 5    154541.459 9
  24100224.442    19898382.157 5  15528367.696 9
  21608094.146     2436056.323 7   1940747.335 9
  23300469.856    -5468481.348 6  -4138836.077 9
  23703588.567      578307.505 5    554826.490 9
 94  3  3 22 23 30.0010000  0  6  2 16 18 19  7 31
  21437900.153   -15119149.389 7 -11652999.356 9
  24272531.146      336777.295 5    198961.113 8
  24123846.481    20022500.880 6  15625083.490 9
  21618790.044     2492264.832 7   1984546.162 9
  23283832.638    -5555910.895 6  -4206962.892 9
  23721930.099      674690.711 5    629930.223 9
 94  3  3 22 24  0.0010000  0  6  2 16 18 19  7 31
  21434787.583   -15135505.651 7 -11665744.480 9
  24283450.903      394167.572 5    243680.891 8
  24147482.036    20146712.339 5  15721871.519 9
  21629535.700     2548732.289 7   2028546.777 9
  23267226.864    -5643174.566 6  -4274960.446 9
  23740343.810      771452.829 6    705329.231 9
 94  3  3 22 24 30.0010000  0  6  2 16 18 19  7 31
  21431724.966   -15151602.149 7 -11678287.202 9
  24294440.505      451912.149 5    288676.560 9
  24171138.771    20271024.671 5  15818738.179 9
  21640332.052     2605467.072 7   2072755.689 9
  23250653.552    -5730267.811 6  -4342825.204 9
  23758825.747      868577.175 5    781010.488 9
 94  3  3 22 25  0.0010000  0  6  2 16 18 19  7 31
  21428709.786   -15167445.480 7 -11690632.647 9
  24305491.981      509987.485 5    333930.052 9
  24194812.669    20395423.752 6  15915672.393 9
  21651178.575     2662466.160 7   2117170.552 9
  23234112.583    -5817186.985 6  -4410554.337 9
  23777375.981      966055.568 6    856967.626 9
 94  3  3 22 25 30.0010000  0  6  2 16 18 19  7 31
  21425742.310   -15183039.556 7 -11702783.860 9
  24316604.013      568379.437 5    379430.237 9
  24218501.192    20519916.137 6  16012679.370 9
  21662073.005     2719715.614 7   2161780.509 9
  23217603.864    -5903945.257 6  -4478158.105 9
  23795991.763     1063884.400 6    933197.838 9
 94  3  3 22 26  0.0010000  0  7  2 16 18 19  7 26 31
  21422822.349   -15198383.757 7 -11714740.357 9
  24327772.622      627071.863 5    425164.547 8
  24242208.192    20644495.687 6  16109754.262 9
  21673011.747     2777201.528 7   2206574.719 9
  23201125.278    -5990539.943 6  -4545634.403 9
  24615727.036      -13032.35515
  23814670.849     1162046.200 6   1009687.505 9
 94  3  3 22 26 30.0010000  0  7  2 16 18 19  7 26 31
  21419952.763   -15213464.646 7 -11726491.678 9
  24339001.138      686079.888 5    471144.763 9
  24265927.958    20769150.440 5  16206887.728 9
  21683994.575     2834914.143 7   2251545.575 9
  23184678.974    -6076963.498 6  -4612977.361 9
  24600865.763      -91131.220 5
  23833413.810     1260541.792 6   1086437.264 9
 94  3  3 22 27  0.0010000  0  7  2 16 18 19  7 26 31
  21417133.294   -15228279.953 7 -11738036.057 9
  24350292.067      745415.883 5    517380.584 9
  24289662.638    20893875.393 5  16304075.847 9
  21695019.856     2892852.802 7   2296692.573 9
  23168266.771    -6163207.381 6  -4680180.327 9
  24586037.599     -169049.572 5    -38435.47318
  23852223.036     1359378.701 6   1163452.993 9
 94  3  3 22 27 30.0010000  0  7  2 16 18 19  7 26 31
  21414363.544   -15242835.346 7 -11749377.902 9
  24361647.661      805084.308 5    563875.311 6
  24313409.372    21018661.407 5  16401311.609 9
  21706089.552     2951024.063 7   2342020.823 9
  23151889.567    -6249268.647 6  -4747240.985 9
  24571244.669     -246793.655 5    -99015.200 9
  23871094.450     1458552.489 6   1240731.222 9
 94  3  3 22 28  0.0010000  0  7  2 16 18 19  7 26 31
  21411642.427   -15257135.578 7 -11760520.930 9
  24373065.169      865085.445 5    610629.522 9
  24337163.575    21143491.750 5  16498581.876 9
  21717205.380     3009437.201 7   2387537.542 9
  23135551.153    -6335128.164 6  -4814144.451 9
  24556481.958     -324370.147 5   -159464.311 9
  23890030.310     1558058.593 6   1318268.419 9
 94  3  3 22 28 30.0010000  0  7  2 16 18 19  7 26 31
  21408967.708   -15271190.926 7 -11771473.130 9
  24384544.849      925420.567 5    657643.756 8
  24360925.747    21268370.151 5  16595889.639 9
  21728369.185     3068101.784 7   2433250.198 9
  23119249.771    -6420793.302 6  -4880896.440 9
  24541752.075     -401766.829 5   -219773.324 9
  23909028.536     1657900.360 5   1396067.147 9
 94  3  3 22 29  0.0010000  0  7  2 16 18 19  7 26 31
  21406336.716   -15285016.813 7 -11782246.531 9
  24396089.544      986081.929 5    704912.378 8
  24384698.583    21393297.868 5  16693235.825 9
  21739579.692     3127016.018 7   2479157.377 9
  23102982.700    -6506281.373 6  -4947510.467 9
  24527062.903     -478975.191 5   -279935.597 9
  23928089.864     1758062.968 6   1474115.889 9
 94  3  3 22 29 30.0010000  0  7  2 16 18 19  7 26 31
  21403749.646   -15298610.528 7 -11792839.015 9
  24407697.646     1047078.123 5    752441.868 9
  24408483.677    21518276.974 5  16790621.978 9
  21750837.810     3186177.667 7   2525257.352 9
  23086748.028    -6591595.774 6  -5013989.153 9
  24512406.638     -555977.499 5   -339937.319 9
  23947209.060     1858536.271 5   1552406.720 9
 94  3  3 22 30  0.0010000  0  7  2 16 18 19  7 26 31
  21401207.653   -15311969.500 7 -11803248.578 9
  24419365.411     1108397.412 5    800223.048 9
  24432277.239    21643319.743 5  16888057.773 8
  21762140.130     3245572.168 7   2571538.765 9
  23070545.997    -6676734.375 6  -5080330.849 9
  24497796.763     -632757.897 5   -399766.113 9
  23966387.224     1959322.184 5   1630941.140 9
 94  3  3 22 30 30.0010000  0  7  2 16 18 19  7 26 31
  21398710.224   -15325092.629 7 -11813474.369 9
  24431094.169     1170033.621 4    848251.242 8
  24456084.403    21768434.754 3  16985549.879 7
  21773484.841     3305187.107 7   2617991.950 9
  23054378.130    -6761700.869 6  -5146538.430 9
  24483230.591     -709306.029 5   -459413.911 9
  23985626.638     2060419.073 5   1709717.890 9
 94  3  3 22 31  0.0010000  0  7  2 16 18 19  7 26 31
  21396258.692   -15337976.130 7 -11823513.444 9
  24442884.974     1231989.884 5    896528.805 8
  24479910.083    21893623.744 5  17083099.623 9
  21784870.575     3365016.818 7   2664612.488 9
  23038244.731    -6846478.125 6  -5212598.545 9
  24468706.849     -785625.997 5   -518883.943 9
  24004923.583     2161830.189 5   1788739.476 9
 94  3  3 22 31 30.0010000  0  7  2 16 18 19  7 26 31
  21393854.388   -15350611.579 7 -11833359.227 9
  24454732.544     1294262.377 3    945052.812 9
  24503749.841    22018899.606 5  17180717.049 9
  21796299.036     3425077.457 7   2711412.967 9
  23022152.646    -6931044.595 6  -5278494.409 9
  24454227.349     -861713.947 5   -578173.174 9
  24024284.536     2263578.460 5   1868023.790 9
 94  3  3 22 32  0.0010000  0  7  2 16 18 19  7 26 31
  21391497.005   -15362999.002 7 -11843011.750 9
  24466643.599     1356841.325 5    993815.557 8
  24527604.106    22144254.806 5  17278396.284 9
  21807774.005     3485377.168 7   2758399.740 9
  23006102.427    -7015389.815 6  -5344217.856 9
  24439790.856     -937577.943 5   -637287.894 9
  24043714.974     2365672.028 5   1947577.146 9
 94  3  3 22 32 30.0010000  0  7  2 16 18 19  7 26 31
  21389189.989   -15375123.370 7 -11852459.296 9
  24478613.052     1419741.626 3   1042828.738 8
  24551469.356    22269673.985 5  17376125.421 9
  21819297.177     3545933.156 7   2805586.212 9
  22990095.849    -7099501.819 6  -5409759.569 9
  24425397.817    -1013216.131 5   -696226.649 9
  24063207.396     2468110.218 5   2027399.070 9
 94  3  3 22 33  0.0010000  0  7  2 16 18 19  7 26 31
  21386935.341   -15386970.943 7 -11861691.155 9
  24490644.919     1482972.377 4   1092099.406 7
  24575349.786    22395155.362 5  17473902.985 9
  21830874.403     3606769.640 7   2852991.245 9
  22974135.489    -7183376.434 7  -5475116.299 9
  24411049.075    -1088613.361 5   -754977.678 9
  24082766.927     2570898.551 5   2107493.843 9
 94  3  3 22 33 30.0010000  0  7  2 16 18 19  7 26 31
  21384735.185   -15398532.553 7 -11870700.181 9
  24502735.481     1546517.307 3   1141614.883 7
  24599233.872    22520683.733 4  17571717.234 9
  21842504.755     3667890.605 7   2900617.957 9
  22958219.224    -7267015.366 6  -5540289.358 9
  24396750.716    -1163754.031 5   -813528.746 9
  24102392.544     2674027.912 6   2187854.331 9
 94  3  3 22 34  0.0010000  0  7  2 16 18 19  7 26 31
  21382589.263   -15409808.289 7 -11879486.449 9
  24514888.989     1610370.668 5   1191370.741 8
  24623129.247    22646239.632 5  17669552.848 9
  21854189.661     3729296.673 7   2948466.825 9
  22942347.606    -7350419.051 6  -5605279.116 9
  24382500.458    -1238639.669 5   -871881.103 9
  24122078.255     2777473.315 6   2268461.095 9
 94  3  3 22 34 30.0010000  0  7  2 16 18 19  7 26 31
  21380497.208   -15420801.753 7 -11888052.761 9
  24527098.146     1674537.433 3   1241370.744 7
  24647026.692    22771825.695 5  17767412.034 9
  21865928.833     3790986.739 7   2996536.984 9
  22926518.755    -7433597.743 6  -5670093.549 9
  24368299.130    -1313269.677 5   -930034.286 9
  24141819.911     2881222.002 6   2349304.169 9
 94  3  3 22 35  0.0010000  0  7  2 16 18 19  7 26 31
  21378456.310   -15431527.062 7 -11896410.129 9
  24539366.364     1739005.504 4   1291605.602 8
  24670933.739    22897458.590 5  17865307.683 8
  21877719.778     3852947.233 7   3044817.873 9
  22910733.442    -7516550.195 6  -5734731.682 9
  24354145.114    -1387648.881 5   -987992.014 9
  24161623.075     2985278.853 6   2430387.398 9
 94  3  3 22 35 30.0010000  0  7  2 16 18 19  7 26 31
  21376464.583   -15441992.800 7 -11904565.244 9
  24551689.325     1803763.725 4   1342066.564 7
  24694849.060    23023132.033 5  17963234.933 8
  21889559.263     3915165.349 7   3093299.496 9
  22894992.513    -7599266.442 6  -5799185.767 9
  24340036.153    -1461794.337 5  -1045767.623 9
  24181479.052     3089637.080 5   2511705.458 9
 94  3  3 22 36  0.0010000  0  7  2 16 18 19  7 26 31
  21374524.341   -15452190.908 7 -11912511.805 9
  24564069.380     1868823.298 3   1392762.227 8
  24718773.911    23148858.559 5  18061203.494 7
  21901447.216     3977635.729 7   3141977.698 9
  22879298.692    -7681742.044 6  -5863452.332 9
  24325968.864    -1535713.309 5  -1103366.745 9
  24201398.677     3194302.068 6   2593262.534 9
 94  3  3 22 36 30.0010000  0  7  2 16 18 19  7 26 31
  21372635.372   -15462118.161 8 -11920247.308 9
  24576507.239     1934175.545 5   1443686.072 8
  24742710.825    23274647.607 5  18159220.863 7
  21913377.856     4040331.039 7   3190831.171 9
  22863650.505    -7763973.635 6  -5927528.750 9
  24311948.263    -1609392.663 5  -1160779.137 9
  24221373.497     3299278.050 5   2675061.956 9
 94  3  3 22 37  0.0010000  0  6  2 16 19  7 26 31
  21370797.247   -15471777.245 8 -11927773.851 9
  24588995.599     1999805.897 3   1494826.556 7
  21925351.192     4103251.506 7   3239860.089 9
  22848050.935    -7845946.180 6  -5991403.333 9
  24297976.013    -1682826.412 5  -1218000.137 9
  24241409.247     3404563.678 5   2757102.650 9
 94  3  3 22 37 30.0010000  0  5  2 19  7 26 31
  21369011.286   -15481162.278 7 -11935086.839 9
  21937372.771     4166424.702 7   3289085.941 9
  22832503.974    -7927648.787 6  -6055067.571 9
  24284050.364    -1755996.354 5  -1275015.609 9
  24261501.669     3510151.320 5   2839378.689 9
 94  3  3 22 38  0.0010000  0  5  2 19  7 26 31
  21367277.380   -15490272.724 7 -11942185.864 9
  21949444.864     4229862.443 7   3338517.931 9
  22817005.606    -8009087.286 6  -6118526.026 9
  24270179.403    -1828885.334 5  -1331812.150 9
  24281651.450     3616036.605 5   2921886.638 9
 94  3  3 22 38 30.0010000  0  5  2 19  7 26 31
  21365591.849   -15499130.518 7 -11949088.025 9
  21961569.630     4293579.317 7   3388167.429 9
  22801561.020    -8090254.909 6  -6181773.418 9
  24256363.794    -1901487.050 5  -1388384.817 9
  24301854.427     3722211.854 5   3004620.579 9
 94  3  3 22 39  0.0010000  0  4  2  7 26 31
  21363953.755   -15507736.985 7 -11955794.345 9
  22786167.622    -8171146.700 6  -6244805.885 9
  24242604.060    -1973798.438 5  -1444731.274 9
  24322115.185     3828678.171 5   3087581.300 9
 94  3  3 22 39 30.0010000  0  5  2 19  7 26 31
  21362364.192   -15516089.117 7 -11962302.473 9
  21986000.333       49358.750 7
  22770824.653    -8251773.358 6  -6307631.759 9
  24228899.224    -2045814.203 5  -1500847.384 9
  24342430.763     3935433.440 5   3170767.171 9
 94  3  3 22 40  0.0010000  0  5  2 19  7 26 31
  21360823.427   -15524188.854 7 -11968613.939 9
  21998301.966      114002.240 7     35281.73519
  22755530.919    -8332141.196 6  -6370255.975 9
  24215250.669    -2117537.666 5  -1556735.721 9
  24362800.200     4042477.875 5   3254178.343 9
 94  3  3 22 40 30.0010000  0  5  2 19  7 26 31
  21359330.333   -15532034.295 7 -11974727.251 9
  22010656.731      178928.304 7     85873.459 9
  22740289.185    -8412236.092 6  -6432667.516 9
  24201661.692    -2188961.488 6  -1612390.582 9
  24383225.411     4149817.204 5   3337819.352 9
 94  3  3 22 41  0.0010000  0  4  2  7 26 31
  21357888.739   -15539609.574 7 -11980630.033 9
  22725101.856    -8492048.808 7  -6494859.177 9
  24188128.067    -2260074.766 5  -1667803.428 9
  24403711.731     4257464.060 5   3421699.986 9
 94  3  3 22 41 30.0010000  0  5  2 19  7 26 31
  21356498.810   -15546912.221 7 -11986320.392 9
  22035523.942       63287.210 7
  22709967.106    -8571578.586 6  -6556830.378 9
  24174652.794    -2330882.548 5  -1722978.262 9
  24424255.731     4365422.651 6   3505823.512 9
 94  3  3 22 42  0.0010000  0  5  2 19  7 26 31
  21355162.747   -15553935.870 7 -11991793.347 9
  22048031.247       10969.91717
  22694889.638    -8650813.682 7  -6618571.979 9
  24161234.778    -2401391.162 5  -1777919.962 9
  24444858.708     4473686.578 6   3590185.005 9
 94  3  3 22 42 30.0010000  0  5  2 19  7 26 31
  21353880.317   -15560675.033 7 -11997044.629 9
  22060590.208       76966.934 7        -1.82219
  22679869.005    -8729746.913 6  -6680078.340 9
  24147873.997    -2471600.413 5  -1832628.387 9
  24465517.810     4582260.748 5   3674788.239 9
 94  3  3 22 43  0.0010000  0  5  2 19  7 26 31
  21352653.130   -15567125.551 8 -12002070.989 9
  22073203.333      143249.295 7     51646.743 9
  22664905.192    -8808381.641 6  -6741352.122 9
  24134570.114    -2541517.650 5  -1887109.287 9
  24486239.247     4691150.863 5   3759637.648 9
 94  3  3 22 43 30.0010000  0  5  2 19  7 26 31
  21351479.356   -15573292.420 8 -12006876.323 9
  22085869.849      209813.016 7    103514.559 9
  22649998.606    -8886716.109 6  -6802391.938 9
  24121320.536    -2611142.571 5  -1941362.382 9
  24507019.388     4800347.488 5   3844725.885 9
 94  3  3 22 44  0.0010000  0  5  2 19  7 26 31
  21350356.708   -15579191.310 8 -12011472.852 9
  22098590.395      276659.545 7    155602.737 9
  22635148.466    -8964756.180 7  -6863202.356 9
  24108125.942    -2680475.698 5  -1995388.127 9
  24527852.825     4909835.063 5   3930040.835 9
 94  3  3 22 44 30.0010000  0  5  2 19  7 26 31
  21349284.317   -15584825.354 8 -12015863.005 9
  22111365.403      343790.922 7    207912.861 9
  22620353.294    -9042501.683 6  -6923783.235 9
  24094992.442    -2749496.445 5  -2049170.440 9
  24548745.427     5019629.589 5   4015594.995 9
 94  3  3 22 45  0.0010000  0  5  2 19  7 26 31
  21348262.067   -15590198.815 8 -12020050.109 9
  22124191.450      411193.609 7    260434.413 9
  22605614.997    -9119953.931 6  -6984135.606 9
  24081919.106    -2818200.652 6  -2102706.128 9
  24569694.981     5129721.460 5   4101380.820 9
 94  3  3 22 45 30.0010000  0  4  2 19  7 26
  21347291.403   -15595299.007 8 -12024024.272 9
  22137070.528      478873.339 7    313171.828 9
  22590932.403    -9197109.690 6  -7044256.941 9
  24068908.521    -2886573.626 6  -2155983.681 9
 94  3  3 22 46  0.0010000  0  4  2 19  7 26
  21346373.981   -15600121.153 8 -12027781.776 9
  22150001.989      546827.708 7    366123.257 9
  22576305.396    -9273976.385 6  -7104153.031 9
  24055960.255    -2954615.556 6  -2209003.302 9
 94  3  3 22 46 30.0010000  0  4  2 19  7 26
  21345509.536   -15604664.051 8 -12031321.687 9
  22162988.888      615071.998 7    419300.593 9
  22561735.833    -9350539.673 6  -7163812.695 9
  24043074.575    -3022329.755 6  -2261767.547 9
 94  3  3 22 47  0.0010000  0  4  2 19  7 26
  21344696.942   -15608933.432 8 -12034648.465 9
  22176030.802      683611.162 7    472707.716 9
  22547225.247    -9426793.483 6  -7223231.195 9
  24030248.692    -3089735.957 6  -2314291.773 9
 94  3  3 22 47 30.0010000  0  4  2 19  7 26
  21343936.239   -15612931.061 8 -12037763.496 9
  22189130.958      752451.129 7    526349.217 9
  22532774.692    -9502730.651 6  -7282402.966 9
  24017479.489    -3156831.946 6  -2366574.289 9
 94  3  3 22 48  0.0010000  0  4  2 19  7 26
  21343223.310   -15616677.574 8 -12040682.856 9
  22202286.747      821586.499 7    580220.913 9
  22518385.271    -9578343.175 6  -7341321.760 9
  24004769.044    -3223622.560 6  -2418618.857 9
 94  3  3 22 48 30.0010000  0  4  2 19  7 26
  21342558.083   -15620173.551 8 -12043406.986 9
  22215498.646      891014.880 7    634320.913 9
  22504059.060    -9653631.308 6  -7399987.797 9
  23992119.005    -3290102.522 6  -2470421.352 9
 94  3  3 22 49  0.0010000  0  4  2 19  7 26
  21341940.099   -15623420.718 8 -12045937.233 9
  22228761.278      960711.053 7    688629.593 9
  22489790.966    -9728610.105 7  -7458412.773 9
  23979528.653    -3356259.558 6  -2521972.212 9
 94  3  3 22 49 30.0010000  0  4  2 19  7 26
  21341369.028   -15626422.661 8 -12048276.394 9
  22242073.239     1030662.300 7    743137.015 9
  22475581.591    -9803279.251 7  -7516596.471 9
  23967005.669    -3422066.101 6  -2573249.958 9
 94  3  3 22 50  0.0010000  0  4  2 19  7 26
  21340843.474   -15629185.046 8 -12050428.892 9
  22255429.966     1100855.086 7    797832.674 9
  22461430.849    -9877642.867 7  -7574542.095 9
  23954551.106    -3487525.810 6  -2624257.454 9
 94  3  3 22 50 30.0010000  0  4  2 19  7 26
  21340364.083   -15631702.695 8 -12052390.684 9
  22268833.583     1171290.023 7    852717.005 9
  22447339.364    -9951694.398 7  -7632244.530 9
  23942163.341    -3552624.372 6  -2674983.529 9
 94  3  3 22 51  0.0010000  0  4  2 19  7 26
  21339930.333   -15633982.700 8 -12054167.289 9
  22282283.411     1241969.006 7    907791.505 9
  22433310.310   -10025416.476 7  -7689690.262 9
  23929842.263    -3617365.440 6  -2725431.046 9
 94  3  3 22 51 30.0010000  0  4  2 19  7 26
  21339543.911   -15636012.084 8 -12055748.612 9
  22295783.771     1312913.791 7    963073.131 9
  22419347.435   -10098793.554 7  -7746867.160 9
  23917588.489    -3681757.043 6  -2775606.255 9
 94  3  3 22 52  0.0010000  0  4  2 19  7 26
  21339207.810   -15637779.894 8 -12057126.113 9
  22309338.981     1384149.859 7   1018581.737 9
  22405451.091   -10171819.469 7  -7803770.432 9
  23905398.013    -3745816.419 6  -2825522.589 9
 94  3  3 22 52 30.0010000  0  4  2 19  7 26
  21338920.919   -15639287.585 8 -12058300.915 9
  22322952.841     1455691.477 7   1074328.426 9
  22391622.341   -10244489.557 7  -7860396.429 9
  23893272.567    -3809537.776 6  -2875175.518 9
 94  3  3 22 53  0.0010000  0  4  2 19  7 26
  21338685.114   -15640524.909 8 -12059265.052 9
  22336625.747     1527539.693 7   1130314.023 9
  22377860.849   -10316805.112 7  -7916746.172 9
  23881209.794    -3872930.861 6  -2924572.664 9
 94  3  3 22 53 30.0010000  0  4  2 19  7 26
  21338502.106   -15641488.802 8 -12060016.122 9
  22350356.747     1599698.014 7   1186541.251 9
  22364165.403   -10388777.354 7  -7972828.401 9
  23869211.989    -3935982.128 6  -2973703.441 9
 94  3  3 22 54  0.0010000  0  4  2 19  7 26
  21338368.130   -15642192.796 8 -12060564.675 9
  22364146.974     1672164.410 7   1243008.551 9
  22350534.927   -10460403.987 7  -8028641.316 9
  23857282.661    -3998670.748 6  -3022551.643 9
 94  3  3 22 54 30.0010000  0  4  2 19  7 26
  21338282.450   -15642640.243 8 -12060913.316 9
  22377989.536     1744910.516 7   1299693.799 9
  22336969.083   -10531692.883 7  -8084191.064 9
  23845423.575    -4060988.058 6  -3071110.528 9
 94  3  3 22 55  0.0010000  0  4  2 19  7 26
  21338245.661   -15642833.110 8 -12061063.590 9
  22391885.302     1817931.661 7   1356593.367 9
  22323466.692   -10602650.590 7  -8139482.739 9
  23833635.950    -4122931.571 6  -3119378.131 9
 94  3  3 22 55 30.0010000  0  4  2 19  7 26
  21338253.747   -15642791.181 8 -12061030.905 9
  22405834.560     1891235.993 7   1413713.592 9
  22310027.989   -10673271.035 7  -8194511.606 9
  23821920.356    -4184495.011 6  -3167349.596 9
 94  3  3 22 56  0.0010000  0  4  2 19  7 26
  21338305.114   -15642521.707 8 -12060820.916 9
  22419834.646     1964805.517 7   1471040.475 9
  22296655.255   -10743542.807 7  -8249268.783 9
  23810275.185    -4245693.355 6  -3215036.549 9
 94  3  3 22 56 30.0010000  0  4  2 19  7 26
  21338401.505   -15642014.182 8 -12060425.435 9
  22433882.028     2038626.963 7   1528563.652 9
  22283349.052   -10813469.177 7  -8303756.805 9
  23798696.606    -4306534.632 6  -3262445.273 9
 94  3  3 22 57  0.0010000  0  4  2 19  7 26
  21338544.622   -15641263.808 8 -12059840.723 9
  22447980.942     2112716.049 7   1586295.382 9
  22270111.106   -10883031.107 7  -8357960.855 9
  23787189.536    -4367007.503 6  -3309566.927 9
 94  3  3 22 57 30.0010000  0  4  2 19  7 26
  21338735.099   -15640261.187 8 -12059059.453 9
  22462128.567     2187064.118 7   1644228.922 9
  22256946.278   -10952215.964 7  -8411871.073 9
  23775750.849    -4427111.706 6  -3356401.315 9
 94  3  3 22 58  0.0010000  0  4  2 19  7 26
  21338977.810   -15638986.896 8 -12058066.488 9
  22476324.677     2261663.767 7   1702358.479 9
  22243851.091   -11021027.441 7  -8465490.346 9
  23764386.606    -4486834.973 6  -3402938.861 9
 94  3  3 22 58 30.0010000  0  4  2 19  7 26
  21339271.935   -15637441.932 8 -12056862.609 9
  22490572.021     2336534.702 7   1760699.451 9
  22230825.692   -11089478.074 7  -8518828.434 9
  23753095.146    -4546170.621 6  -3449174.361 9
 94  3  3 22 59  0.0010000  0  4  2 19  7 26
  21339614.919   -15635638.686 8 -12055457.471 9
  22504873.661     2411691.909 6   1819263.480 9
  22217869.833   -11157560.747 7  -8571879.803 9
  23741878.497    -4605113.978 6  -3495104.191 9
 94  3  3 22 59 30.0010000  0  4  2 19  7 26
  21340005.372   -15633586.839 8 -12053858.622 9
  22519230.513     2487135.144 6   1878050.393 9
  22204982.520   -11225286.478 7  -8624653.034 9
  23730735.036    -4663675.634 6  -3540736.585 9
 94  3  3 23  0  0.0010000  0  4  2 19  7 26
  21340440.989   -15631297.122 8 -12052074.408 9
  22533640.388     2562860.652 6   1937057.257 9
  22192159.763   -11292667.536 7  -8677157.686 9
  23719663.950    -4721859.066 6  -3586074.259 9
 94  3  3 23  0 30.0010000  0  4  2 19  7 26
  21340922.271   -15628768.209 8 -12050103.815 9
  22548104.044     2638867.867 6   1996283.628 9
  22179406.208   -11359687.853 7  -8729381.249 9
  23708662.653    -4779669.595 6  -3631121.374 9
 94  3  3 23  1  0.0010000  0  4  2 19  7 26
  21341449.505   -15625997.417 8 -12047944.744 9
  22562619.302     2715141.486 6   2055717.588 9
  22166724.036   -11426333.156 7  -8781312.587 9
  23697732.310    -4837107.796 6  -3675878.354 9
 94  3  3 23  1 30.0010000  0  4  2 19  7 26
  21342026.161   -15622967.021 8 -12045583.378 9
  22577184.020     2791682.328 6   2115359.778 9
  22154113.067   -11492605.028 7  -8832952.951 9
  23686873.575    -4894172.908 6  -3720344.612 9
 94  3  3 23  2  0.0010000  0  4  2 19  7 26
  21342653.146   -15619672.841 8 -12043016.474 9
  22591800.192     2868494.414 6   2175213.314 9
  22141576.661   -11558484.145 7  -8884287.267 9
  23676089.521    -4950845.459 6  -3764504.985 9
 94  3  3 23  2 30.0010000  0  4  2 19  7 26
  21343328.208   -15616124.376 8 -12040251.421 9
  22606470.060     2945579.438 7   2235279.539 9
  22129116.075   -11623965.090 7  -8935311.328 9
  23665379.294    -5007124.105 6  -3808358.427 9
 94  3  3 23  3  0.0010000  0  4  2 19  7 26
  21344050.278   -15612330.992 8 -12037295.529 9
  22621190.700     3022942.060 6   2295562.070 9
  22116729.833   -11689057.896 7  -8986032.954 9
  23654746.521    -5063001.451 6  -3851899.154 9
 94  3  3 23  3 30.0010000  0  4  2 19  7 26
  21344816.731   -15608302.678 8 -12034156.570 9
  22635967.021     3100588.736 6   2356065.929 9
  22104414.966   -11753770.749 7  -9036458.505 9
  23644190.583    -5118473.957 6  -3895124.431 9
 94  3  3 23  4  0.0010000  0  4  2 19  7 26
  21345626.810   -15604044.406 7 -12030838.425 9
  22650794.052     3178505.888 6   2416780.556 9
  22092173.966   -11818096.101 7  -9086582.117 9
  23633711.935    -5173536.104 6  -3938029.946 9
 94  3  3 23  4 30.0010000  0  4  2 19  7 26
  21346483.021   -15599545.427 8 -12027332.720 9
  22665674.497     3256699.308 7   2477710.453 9
  22080004.231   -11882049.635 7  -9136416.001 9
  23623310.661    -5228196.468 6  -3980622.386 9
 94  3  3 23  5  0.0010000  0  4  2 19  7 26
  21347383.974   -15594812.562 8 -12023644.768 9
  22680606.325     3335166.212 7   2538853.456 9
  22067901.903   -11945645.587 7  -9185971.253 9
  23612982.435    -5282466.165 6  -4022910.417 9
 94  3  3 23  5 30.0010000  0  4  2 19  7 26
  21348330.286   -15589838.486 8 -12019768.852 9
  22695589.755     3413907.313 6   2600210.121 9
  22055869.270   -12008878.157 7  -9235243.349 9
  23602729.411    -5336349.719 6  -4064897.553 9
 94  3  3 23  6  0.0010000  0  4  2 19  7 26
  21349324.474   -15584613.854 8 -12015697.696 9
  22710626.888     3492927.770 6   2661784.476 9
  22043908.380   -12071733.436 7  -9284221.457 9
  23592551.685    -5389837.874 6  -4106576.579 9
 94  3  3 23  6 30.0010000  0  4  2 19  7 26
  21350362.630   -15579160.023 8 -12011447.950 9
  22725718.067     3572231.499 6   2723579.535 9
  22032019.122   -12134210.320 7  -9332904.715 9
  23582448.567    -5442927.839 6  -4147945.350 9
 94  3  3 23  7  0.0010000  0  4  2 19  7 26
  21351442.653   -15573481.714 8 -12007023.283 9
  22740862.145     3651814.824 6   2785592.480 9
  22020208.263   -12196280.692 7  -9381271.218 9
  23572423.138    -5495611.472 6  -4188997.478 9
 94  3  3 23  7 30.0010000  0  4  2 19  7 26
  21352568.161   -15567568.556 8 -12002415.611 9
  22756058.271     3731672.101 6   2847818.873 9
  22008477.200   -12257926.723 7  -9429307.055 9
  23562476.552    -5547879.122 6  -4229725.470 9
 94  3  3 23  8  0.0010000  0  4  2 19  7 26
  21353734.497   -15561440.598 8 -11997640.564 9
  22771305.669     3811797.242 6   2910254.000 9
  21996825.989   -12319154.188 7  -9477016.738 9
  23552611.677    -5599721.493 6  -4270122.084 9
 94  3  3 23  8 30.0010000  0  4  2 19  7 26
  21354938.770   -15555112.630 8 -11992709.668 9
  22786602.888     3892183.301 6   2972892.431 9
  21985251.067   -12379979.650 7  -9524413.175 9
  23542824.614    -5651149.020 6  -4310195.442 9
 94  3  3 23  9  0.0010000  0  4  2 19  7 26
  21356187.427   -15548551.538 8 -11987597.110 9
  22801950.794     3972837.445 6   3035739.758 9
  21973753.646   -12440397.753 7  -9571492.178 9
  23533116.192    -5702165.006 6  -4349948.119 9
 94  3  3 23  9 30.0010000  0  4  2 19  7 26
  21357478.708   -15541763.989 8 -11982308.098 9
  22817349.083     4053757.948 6   3098794.645 9
  21962330.216   -12500429.368 7  -9618270.029 9
  23523486.419    -5752768.765 6  -4389379.571 9
 94  3  3 23 10  0.0010000  0  4  2 19  7 26
  21358812.810   -15534753.094 8 -11976845.046 9
  22832799.716     4134950.786 6   3162061.737 9
  21950980.700   -12560069.712 7  -9664742.988 9
  23513936.489    -5802957.731 6  -4428487.815 9
 94  3  3 23 10 30.0010000  0  4  2 19  7 26
  21360190.356   -15527513.283 8 -11971203.616 9
  22848300.036     4216399.576 6   3225528.274 9
  21939707.231   -12619311.255 7  -9710905.192 9
  23504462.060    -5852748.661 6  -4467285.895 9
 94  3  3 23 11  0.0010000  0  4  2 19  7 26
  21361612.739   -15520038.071 8 -11965378.758 9
  22863847.114     4298102.778 6   3289193.051 9
  21928512.630   -12678142.016 7  -9756747.294 9
  23495064.927    -5902131.482 6  -4505765.972 9
 94  3  3 23 11 30.0010000  0  4  2 19  7 26
  21363076.841   -15512344.089 8 -11959383.433 9
  22879444.302     4380068.348 6   3353062.270 9
  21917397.349   -12736552.185 7  -9802261.668 9
  23485749.677    -5951081.594 6  -4543908.865 9
 94  3  3 23 12  0.0010000  0  4  2 19  7 26
  21364582.739   -15504431.055 8 -11953217.419 9
  22895091.497     4462293.742 6   3417133.952 9
  21906364.349   -12794529.008 7  -9847438.366 9
  23476517.091    -5999595.872 6  -4581712.162 9
 94  3  3 23 12 30.0010000  0  4  2 19  7 26
  21366132.880   -15496285.078 8 -11946869.893 9
  22910788.364     4544781.296 6   3481409.913 9
  21895414.661   -12852074.947 7  -9892279.310 9
  23467369.661    -6047664.857 6  -4619168.477 9
 94  3  3 23 13  0.0010000  0  4  2 19  7 26
  21367728.638   -15487901.113 8 -11940336.925 9
  22926535.435     4627533.219 6   3545891.878 9
  21884543.333   -12909199.630 7  -9936791.996 9
  23458307.005    -6095288.439 6  -4656277.714 9
 94  3  3 23 13 30.0010000  0  4  2 19  7 26
  21369369.310   -15479280.056 8 -11933619.214 9
  22942330.099     4710535.072 6   3610568.603 9
  21873753.521   -12965900.776 7  -9980974.659 9
  23449327.294    -6142477.259 6  -4693048.190 9
 94  3  3 23 14  0.0010000  0  4  2 19  7 26
  21371056.325   -15470411.998 8 -11926709.033 9
  22958170.919     4793773.885 6   3675429.964 9
  21863041.599   -13022191.986 7 -10024837.893 9
  23440428.474    -6189240.497 6  -4729487.031 9
 94  3  3 23 14 30.0010000  0  4  2 19  7 26
  21372790.716   -15461297.764 8 -11919607.024 9
  22974056.903     4877257.916 6   3740482.414 9
  21852407.974   -13078072.644 7 -10068381.208 9
  23431610.341    -6235578.875 6  -4765594.814 9
 94  3  3 23 15  0.0010000  0  4  2 19  7 26
  21374567.380   -15451961.939 8 -11912332.348 9
  22989991.005     4960989.793 6   3805727.997 9
  21841851.771   -13133541.903 7 -10111603.955 9
  23422874.349    -6281489.620 6  -4801369.391 9
 94  3  3 23 15 30.0010000  0  4  2 19  7 26
  21376382.130   -15442423.328 8 -11904899.660 9
  23005974.966     5044985.302 6   3871179.002 9
  21831374.880   -13188599.881 7 -10154506.225 9
  23414221.169    -6326961.682 6  -4836802.111 9
 94  3  3 23 16  0.0010000  0  4  2 19  7 26
  21378233.544   -15432695.153 8 -11897319.261 9
  23022013.825     5129273.186 6   3936857.834 9
  21820975.497   -13243247.532 7 -10197088.757 9
  23405655.044    -6371976.384 6  -4871878.465 9
 94  3  3 23 16 30.0010000  0  4  2 19  7 26
  21380120.552   -15422778.850 8 -11889592.271 9
  23038112.239     5213869.443 6   4002776.966 9
  21810659.208   -13297459.621 7 -10239331.887 9
  23397177.692    -6416528.472 6  -4906594.351 9
 94  3  3 23 17  0.0010000  0  4  2 19  7 26
  21382044.411   -15412668.538 8 -11881714.108 9
  23054267.075     5298768.854 6   4068932.311 9
  21800424.255   -13351248.436 7 -10281245.198 9
  23388787.153    -6460617.109 6  -4940949.099 9
 94  3  3 23 17 30.0010000  0  4  2 19  7 26
  21384009.216   -15402342.242 8 -11873667.640 9
  23070480.622     5383969.484 6   4135322.369 9
  21790271.950   -13404599.784 7 -10322817.635 9
  23380487.286    -6504237.775 6  -4974939.186 9
 94  3  3 23 18  0.0010000  0  4  2 19  7 26
  21386018.200   -15391785.867 8 -11865441.897 9
  23086745.575     5469444.549 6   4201926.258 9
  21780203.052   -13457510.028 7 -10364046.350 9
  23372271.927    -6547408.449 6  -5008578.653 9
 94  3  3 23 18 30.0010000  0  4  2 19  7 26
  21388073.177   -15380987.579 8 -11857027.647 9
  23103056.989     5555155.284 6   4268713.786 9
  21770215.028   -13509997.354 7 -10404945.532 9
  23364137.458    -6590153.652 6  -5041886.572 9
 94  3  3 23 19  0.0010000  0  4  2 19  7 26
  21390173.552   -15369949.608 8 -11848426.624 9
  23119411.270     5641096.887 6   4335681.233 9
  21760306.872   -13562063.889 7 -10445516.821 9
  23356085.974    -6632463.491 6  -5074855.250 9
 94  3  3 23 19 30.0010000  0  4  2 19  7 26
  21392317.669   -15358682.619 8 -11839647.146 9
  23135808.333     5727267.065 6   4402826.791 9
  21750483.231   -13613688.472 7 -10485743.730 9
  23348119.567    -6674327.683 6  -5107476.667 9
 94  3  3 23 20  0.0010000  0  4  2 19  7 26
  21394504.106   -15347193.343 8 -11830694.457 9
  23152250.263     5813673.345 6   4470156.307 9
  21740742.630   -13664875.456 7 -10525629.654 9
  23340238.575    -6715743.293 6  -5139748.541 9
 94  3  3 23 20 30.0010000  0  4  2 19  7 26
  21396730.192   -15335495.240 8 -11821579.039 9
  23168740.669     5900330.011 6   4537680.947 9
  21731088.091   -13715611.661 7 -10565164.321 9
  23332447.255    -6756685.440 6  -5171651.480 9
 94  3  3 23 21  0.0010000  0  4  2 19  7 26
  21398992.724   -15323605.068 8 -11812313.958 9
  23185279.638     5987242.757 6   4605405.137 9
  21721520.364   -13765889.812 7 -10604342.064 9
  23324747.474    -6797149.238 6  -5203181.688 9
 94  3  3 23 21 30.0010000  0  4  2 19  7 26
  21401294.786   -15311506.539 8 -11802886.518 9
  23201869.169     6074416.447 6   4673332.667 9
  21712040.263   -13815708.587 7 -10643161.852 9
  23317137.130    -6837139.450 6  -5234342.847 9
 94  3  3 23 22  0.0020000  0  4  2 19  7 26
  21403640.010   -15299183.171 8 -11793283.872 9
  23218508.330     6161855.339 6   4741466.827 9
  21702646.174   -13865073.389 7 -10681627.892 9
  23309615.221    -6876667.640 6  -5265144.003 9
 94  3  3 23 22 30.0020000  0  4  2 19  7 26
  21406024.807   -15286651.489 8 -11783518.909 9
  23235195.916     6249547.593 6   4809798.420 9
  21693338.104   -13913987.855 7 -10719743.024 9
  23302181.189    -6915735.008 6  -5295586.076 9
 94  3  3 23 23  0.0020000  0  4  2 19  7 26
  21408451.479   -15273898.536 8 -11773581.530 9
  23251933.799     6337509.238 6   4878339.936 9
  21684114.260   -13962460.138 7 -10757513.602 9
  23294835.807    -6954334.933 6  -5325663.903 9
 94  3  3 23 23 30.0020000  0  4  2 19  7 26
  21410919.588   -15260930.308 8 -11763476.398 9
  23268723.471     6425737.588 6   4947089.247 9
  21674973.861   -14010490.427 7 -10794939.766 9
  23287580.010    -6992462.536 6  -5355373.688 9
 94  3  3 23 24  0.0020000  0  4  2 19  7 26
  21413423.877   -15247768.558 8 -11753220.471 9
  23285561.525     6514227.738 6   5016042.569 9
  21665918.916   -14058077.702 7 -10832020.724 9
  23280419.049    -7030095.618 6  -5384698.124 9
 94  3  3 23 24 30.0020000  0  4  2 19  7 26
  21415962.908   -15234424.841 8 -11742822.756 9
  23302447.994     6602970.572 6   5085192.814 9
  21656947.353   -14105222.376 7 -10868756.799 9
  23273354.541    -7067221.442 6  -5413627.302 9
 94  3  3 23 25  0.0020000  0  5  2 15 19  7 26
  21418542.916   -15220868.331 8 -11732259.224 9
  24712659.432      -16631.52515
  23319382.369     6691954.629 6   5154530.985 9
  21648061.541   -14151916.179 7 -10905141.548 9
  23266385.502    -7103841.111 6  -5442162.072 9
 94  3  3 23 25 30.0020000  0  5  2 15 19  7 26
  21421162.111   -15207103.683 8 -11721533.513 9
  24708605.291      -37934.086 5     -3842.30619
  23336358.205     6781162.233 6   5224043.367 9
  21639262.572   -14198155.150 7 -10941171.882 9
  23259509.096    -7139977.319 6  -5470320.118 9
 94  3  3 23 26  0.0020000  0  5  2 15 19  7 26
  21423823.080   -15193119.216 8 -11710636.511 9
  24704635.705      -58792.686 5    -20095.663 9
  23353378.064     6870600.412 6   5293735.410 9
  21630550.846   -14243936.994 7 -10976846.019 9
  23252720.830    -7175652.529 6  -5498118.938 9
 94  3  3 23 26 30.0020000  0  5  2 15 19  7 26
  21426530.885   -15178892.046 8 -11699550.388 9
  24700751.705      -79204.164 5    -36000.629 9
  23370441.729     6960274.645 6   5363611.402 9
  21621926.096   -14289258.097 7 -11012161.131 9
  23246015.275    -7210886.558 6  -5525573.990 9
 94  3  3 23 27  0.0020000  0  5  2 15 19  7 26
  21429283.189   -15164426.589 8 -11688278.592 9
  24696953.236      -99166.657 5    -51555.757 9
  23387551.893     7050190.755 6   5433675.854 9
  21613388.361   -14334125.169 7 -11047122.461 9
  23239392.135    -7245692.077 6  -5552695.143 9
 94  3  3 23 27 30.0020000  0  5  2 15 19  7 26
  21432077.908   -15149740.555 8 -11676834.912 9
  24693240.041     -118675.880 5    -66757.658 9
  23404712.166     7140369.293 6   5503944.795 9
  21604938.346   -14378528.738 7 -11081722.611 9
  23232853.143    -7280052.770 6  -5579469.666 9
 94  3  3 23 28  0.0020000  0  5  2 15 19  7 26
  21434913.697   -15134839.022 8 -11665223.312 9
  24689614.783     -137728.442 5    -81603.700 9
  23421925.166     7230816.576 6   5574423.163 9
  21596576.775   -14422470.810 7 -11115963.159 9
  23226401.478    -7313956.859 6  -5605888.401 9
 94  3  3 23 28 30.0020000  0  5  2 15 19  7 26
  21437787.346   -15119736.499 8 -11653455.097 9
  24686077.486     -156321.421 5    -96091.646 9
  23439184.721     7321522.351 6   5645102.932 9
  21588300.314   -14465960.672 7 -11149851.333 9
  23220041.846    -7347376.728 6  -5631929.819 9
 94  3  3 23 29  0.0020000  0  5  2 15 19  7 26
  21440696.182   -15104449.229 8 -11641542.930 9
  24682626.330     -174456.320 5   -110222.636 9
  23456496.143     7412485.550 6   5715983.297 9
  21580111.432   -14508995.891 7 -11183385.242 9
  23213776.705    -7380302.305 6  -5657586.079 9
 94  3  3 23 29 30.0020000  0  5  2 15 19  7 26
  21443643.252   -15088963.947 8 -11629476.465 9
  24679263.018     -192124.202 5   -123989.736 9
  23473857.275     7503722.543 6   5787077.024 9
  21572012.627   -14551555.561 7 -11216548.589 9
  23207609.252    -7412714.125 6  -5682842.001 9
 94  3  3 23 30  0.0020000  0  5  2 15 19  7 26
  21446628.838   -15073274.048 8 -11617250.557 9
  24675990.736     -209324.594 5   -137392.541 9
  23491269.260     7595224.340 6   5858377.082 9
  21564003.643   -14593641.350 7 -11249342.682 9
  23201537.963    -7444614.775 6  -5707699.623 9
 94  3  3 23 30 30.0020000  0  5  2 15 19  7 26
  21449655.049   -15057372.185 8 -11604859.483 9
  24672807.275     -226054.717 5   -150428.937 9
  23508731.393     7686985.347 6   5929879.103 9
  21556086.744   -14635246.527 7 -11281762.272 9
  23195566.971    -7475994.387 6  -5732151.233 9
 94  3  3 23 31  0.0020000  0  5  2 15 19  7 26
  21452721.994   -15041255.642 8 -11592301.124 9
  24669713.643     -242311.403 5   -163096.424 9
  23526243.104     7779008.993 6   6001585.816 9
  21548262.791   -14676361.639 7 -11313799.990 9
  23189691.807    -7506866.470 6  -5756207.374 9
 94  3  3 23 31 30.0020000  0  5  2 15 19  7 26
  21455829.283   -15024927.153 8 -11579577.613 9
  24666710.072     -258092.172 5   -175393.046 9
  23543803.479     7871289.435 6   6073492.599 9
  21540532.471   -14716984.269 7 -11345453.953 9
  23183913.658    -7537235.778 6  -5779871.740 9
 94  3  3 23 32  0.0020000  0  5  2 15 19  7 26
  21458974.783   -15008394.917 8 -11566695.335 9
  24663799.346     -273393.942 5   -187316.448 9
  23561409.893     7963812.647 6   6145588.568 9
  21532894.994   -14757119.468 7 -11376728.101 9
  23178228.877    -7567105.477 6  -5803146.798 9
 94  3  3 23 32 30.0020000  0  5  2 15 19  7 26
  21462158.447   -14991664.839 8 -11553658.898 9
  24660977.424     -288217.711 5   -198867.419 9
  23579061.689     8056573.349 6   6217869.571 9
  21525349.213   -14796773.598 7 -11407627.387 9
  23172639.619    -7596477.526 6  -5826034.083 9
 94  3  3 23 33  0.0020000  0  5  2 15 19  7 26
  21465380.752   -14974733.355 8 -11540465.526 9
  24658249.400     -302556.226 5   -210040.260 9
  23596759.838     8149578.749 6   6290341.272 9
  21517896.244   -14835937.741 7 -11438144.866 9
  23167144.924    -7625354.463 6  -5848535.559 9
 94  3  3 23 33 30.0020000  0  5  2 15 19  7 26
  21468642.533   -14957592.746 8 -11527109.197 9
  24655612.479     -316405.796 5   -220832.052 9
  23614504.900     8242828.685 6   6363003.512 9
  21510537.369   -14874610.297 7 -11468279.291 9
  23161747.463    -7653716.241 6  -5870635.616 9
 94  3  3 23 34  0.0020000  0  5  2 15 19  7 26
  21471945.096   -14940235.865 8 -11513584.343 9
  24653070.744     -329767.553 5   -231243.750 9
  23632295.689     8336321.413 6   6435854.926 9
  21503268.760   -14912804.738 7 -11498041.160 9
  23156451.447    -7681549.706 6  -5892324.002 9
 94  3  3 23 34 30.0020000  0  5  2 15 19  7 26
  21475288.854   -14922664.111 8 -11499892.059 9
  24650622.564     -342635.856 5   -241270.985 9
  23650134.205     8430059.980 6   6508897.921 9
  21496093.049   -14950513.667 7 -11527424.705 9
  23151256.971    -7708847.149 6  -5913594.706 9
 94  3  3 23 35  0.0020000  0  5  2 15 19  7 26
  21478672.072   -14904885.657 8 -11486038.714 9
  24648266.877     -355011.252 5   -250914.160 9
  23668020.721     8524050.357 6   6582137.160 9
  21489011.252   -14987729.106 7 -11556423.705 9
  23146163.424    -7735609.428 6  -5934448.410 9
 94  3  3 23 35 30.0020000  0  5  2 15 19  7 26
  21482092.705   -14886911.198 8 -11472032.634 9
  24646005.330     -366889.511 5   -260169.882 9
  23685953.447     8618302.279 6   6655580.136 9
  21482022.635   -15024454.311 7 -11585040.713 9
  23141173.494    -7761827.806 6  -5954878.295 9
 94  3  3 23 36  0.0020000  0  5  2 15 19  7 26
  21485549.189   -14868745.949 8 -11457877.884 9
  24643841.033     -378270.840 5   -269038.388 9
  23703940.064     8712808.292 6   6729221.145 9
  21475128.174   -15060683.569 7 -11613271.268 9
  23136283.268    -7787529.205 6  -5974905.341 9
 94  3  3 23 36 30.0020000  0  5  2 15 19  7 26
  21489041.002   -14850397.620 8 -11443580.480 9
  24641770.580     -389153.123 6   -277518.075 9
  23721972.221     8807574.662 6   6803065.054 9
  21468330.674   -15096406.621 7 -11641107.378 9
  23131487.424    -7812729.810 6  -5994542.157 9
 94  3  3 23 37  0.0020000  0  5  2 15 19  7 26
  21492571.658   -14831843.630 8 -11429122.811 9
  24639795.619     -399531.343 5   -285604.976 9
  23740057.275     8902608.094 6   6877117.033 9
  21461626.752   -15131635.802 7 -11668558.652 9
  23126787.416    -7837426.206 6  -6013786.098 9
 94  3  3 23 37 30.0020000  0  5  2 15 19  7 26
  21496143.002   -14813074.575 8 -11414497.555 9
  24637914.736     -409402.417 5   -293296.674 9
  23758190.408     8997900.407 6   6951370.728 9
  21455015.916   -15166375.562 7 -11695628.555 9
  23122185.783    -7861614.352 6  -6032633.985 9
 94  3  3 23 38  0.0020000  0  5  2 15 19  7 26
  21499758.885   -14794073.296 8 -11399691.352 9
  24636133.518     -418767.560 5   -300594.169 9
  23776371.838     9093441.649 6   7025818.416 9
  21448498.354   -15200625.647 7 -11722316.902 9
  23117679.643    -7885292.775 6  -6051084.681 9
 94  3  3 23 38 30.0020000  0  5  2 15 19  7 26
  21503421.627   -14774826.811 8 -11384694.080 9
  24634450.346     -427618.024 6   -307490.585 9
  23794601.041     9189243.614 6   7100469.269 9
  21442074.533   -15234384.143 7 -11748622.184 9
  23113276.455    -7908427.470 6  -6069111.697 9
 94  3  3 23 39  0.0020000  0  5  2 15 19  7 26
  21507130.533   -14755333.815 8 -11369504.720 9
  24632863.791     -435959.696 6   -313990.586 9
  23812879.385     9285290.127 6   7175310.665 9
  21435744.377   -15267647.812 7 -11774541.892 9
  23108978.877    -7931017.648 6  -6086714.418 9
 94  3  3 23 39 30.0020000  0  5  2 15 19  7 26
  21510885.182   -14735604.314 8 -11354131.071 9
  24631374.572     -443786.543 6   -320089.398 9
  23831204.658     9381585.078 6   7250345.656 9
  21429515.150   -15300383.852 7 -11800050.460 9
  23104784.088    -7953060.129 6  -6103890.355 9
 94  3  3 23 40  0.0020000  0  5  2 15 19  7 26
  21514683.330   -14715644.752 8 -11338578.144 9
  24629981.955     -451096.588 5   -325785.494 9
  23849574.400     9478122.347 6   7325569.451 9
  21423385.814   -15332593.184 7 -11825148.598 9
  23100693.314    -7974557.722 6  -6120641.709 9
 94  3  3 23 40 30.0020000  0  5  2 15 19  7 26
  21518521.002   -14695478.365 8 -11322864.059 9
  24628687.525     -457894.678 5   -331082.698 9
  23867990.228     9574900.058 6   7400980.635 9
  21417354.189   -15364289.177 7 -11849846.739 9
  23096703.361    -7995527.651 7  -6136981.884 9
 94  3  3 23 41  0.0020000  0  5  2 15 19  7 26
  21522395.502   -14675118.207 8 -11306998.982 9
  24627492.697     -464176.082 5   -335977.279 9
  23886453.072     9671920.518 6   7476580.949 9
  21411420.354   -15395472.152 7 -11874145.123 9
  23092810.494    -8015981.661 6  -6152920.053 9
 94  3  3 23 41 30.0020000  0  5  2 15 19  7 26
  21526307.182   -14654560.486 8 -11290979.962 9
  24626398.322     -469932.366 6   -340462.734 9
  23904962.049     9769185.062 6   7552371.453 9
  21405582.697   -15426148.873 7 -11898049.024 9
  23089019.861    -8035901.245 6  -6168441.788 9
 94  3  3 23 42  0.0020000  0  5  2 15 19  7 26
  21530259.002   -14633794.366 8 -11274798.551 9
  24625404.596     -475158.323 6   -344534.894 9
  23923518.627     9866703.757 6   7628360.011 9
  21399838.799   -15456331.958 7 -11921568.271 9
  23085331.377    -8055280.894 6  -6183542.790 9
 94  3  3 23 42 30.0020000  0  5  2 15 19  7 26
  21534250.838   -14612816.480 8 -11258452.130 9
  24624511.354     -479849.675 6   -348190.509 9
  23942127.064     9964495.998 6   7704561.715 9
  21394193.174   -15486001.776 7 -11944687.576 9
  23081747.111    -8074115.159 6  -6198218.813 9
 94  3  3 23 43  0.0020000  0  5  2 15 19  7 26
  21538283.713   -14591624.679 8 -11241939.030 9
  24623719.697     -484004.907 5   -351428.343 9
  23960786.752    10062547.782 6   7780965.638 9
  21388646.908   -15515146.098 7 -11967397.402 9
  23078271.010    -8092389.540 6  -6212458.575 9
 94  3  3 23 43 30.0020000  0  5  2 15 19  7 26
  21542358.846   -14570208.903 8 -11225251.401 9
  24623031.619     -487615.951 5   -354242.100 9
  23979494.900    10160862.026 5   7857574.085 9
  21383202.916   -15543753.727 7 -11989689.024 9
  23074899.893    -8110097.096 6  -6226256.643 9
 94  3  3 23 44  0.0020000  0  5  2 15 19  7 26
  21546475.416   -14548574.277 8 -11208393.232 9
  24622448.760     -490682.316 5   -356631.456 9
  23998255.744    10259452.210 6   7934397.565 9
  21377861.861   -15571822.201 7 -12011560.523 9
  23071635.174    -8127254.321 6  -6239625.888 9
 94  3  3 23 44 30.0020000  0  5  2 15 19  7 26
  21550632.494   -14526729.751 8 -11191371.502 9
  24621969.291     -493205.892 6   -358597.874 9
  24017065.572    10358297.011 5   8011419.425 9
  21372623.213   -15599350.041 7 -12033010.753 9
  23068474.018    -8143868.759 6  -6252572.180 9
 94  3  3 23 45  0.0020000  0  5  2 15 19  7 26
  21554830.502   -14504671.056 8 -11174182.900 9
  24621591.932     -495190.898 6   -360144.636 9
  24035918.783    10457367.793 6   8088617.394 9
  21367482.783   -15626363.452 7 -12054060.128 9
  23065414.127    -8159949.786 6  -6265102.829 9
 94  3  3 23 45 30.0020000  0  5  2 15 19  7 26
  21559070.283   -14482389.993 8 -11156821.028 9
  24621316.330     -496639.240 6   -361273.220 9
  24054815.596    10556674.138 6   8165998.922 9
  21362439.119   -15652868.677 8 -12074713.520 9
  23062454.119    -8175507.205 7  -6277225.471 9
 94  3  3 23 46  0.0020000  0  5  2 15 19  7 26
  21563351.799   -14459889.272 7 -11139287.985 9
  24621142.924     -497547.071 5   -361980.594 9
  24073757.283    10656212.970 6   8243561.609 9
  21357493.268   -15678858.548 8 -12094965.332 9
  23059595.049    -8190524.705 6  -6288927.403 9
 94  3  3 23 46 30.0020000  0  5  2 15 19  7 26
  21567675.658   -14437168.065 8 -11121583.138 9
  24621073.572     -497911.052 5   -362264.201 9
  24092741.049    10755973.607 6   8321297.112 9
  21352646.510   -15704328.186 7 -12114811.771 9
  23056843.979    -8204983.338 6  -6300193.846 9
 94  3  3 23 47  0.0020000  0  5  2 15 19  7 26
  21572042.064   -14414221.875 8 -11103702.976 9
  24621107.893     -497732.267 5   -362124.872 9
  24111770.244    10855968.351 6   8399215.035 9
  21347897.971   -15729282.107 8 -12134256.350 9
  23054201.268    -8218869.125 6  -6311013.918 9
 94  3  3 23 47 30.0020000  0  5  2 15 19  7 26
  21576448.807   -14391065.964 8 -11085659.398 9
  24621243.650     -497013.740 5   -361564.947 9
  24130846.791    10956216.331 6   8477330.280 9
  21343250.283   -15753705.612 8 -12153287.620 9
  23051669.361    -8232174.216 6  -6321381.497 9
 94  3  3 23 48  0.0020000  0  5  2 15 19  7 26
  21580894.205   -14367703.179 8 -11067454.622 9
  24621484.721     -495748.065 5   -360578.675 9
  24149972.955    11056727.450 6   8555650.599 9
  21338706.400   -15777583.738 8 -12171893.920 9
  23049249.119    -8244892.554 6  -6331291.872 9
 94  3  3 23 48 30.0020000  0  5  2 15 19  7 26
  21585380.971   -14344124.987 8 -11049081.998 9
  24621828.799     -493942.614 5   -359171.765 9
  24169152.197    11157508.974 6   8634181.613 9
  21334264.252   -15800927.943 8 -12190084.176 9
  23046936.385    -8257049.410 6  -6340764.733 9
 94  3  3 23 49  0.0020000  0  5  2 15 19  7 26
  21589907.283   -14320339.400 8 -11030547.768 9
  24622275.182     -491595.710 5   -357342.961 9
  24188381.400    11258560.334 6   8712922.874 9
  21329923.268   -15823739.306 7 -12207859.232 9
  23044727.268    -8268655.297 6  -6349808.266 9
 94  3  3 23 49 30.0020000  0  5  2 15 19  7 26
  21594468.400   -14296371.999 8 -11011871.868 9
  24622824.627     -488711.334 5   -355095.351 9
  24207656.994    11359863.060 5   8791860.002 9
  21325683.674   -15846018.650 7 -12225219.724 9
  23042621.728    -8279723.311 6  -6358432.676 9
 94  3  3 23 50  0.0020000  0  5  2 15 19  7 26
  21599061.697   -14272233.190 8 -10993062.397 9
  24623473.658     -485297.257 5   -352435.014 9
  24226978.150    11461385.526 6   8870968.362 9
  21321539.783   -15867793.421 7 -12242187.044 9
  23040615.478    -8290267.459 6  -6366648.872 9
 94  3  3 23 50 30.0020000  0  5  2 15 19  7 26
  21603687.228   -14247925.067 8 -10974120.996 9
  24624224.275     -481353.423 5   -349361.843 9
  24246330.674    11563096.713 5   8950223.799 9
  21317488.283   -15889084.632 7 -12258777.566 9
  23038709.025    -8300281.965 6  -6374452.357 9
 94  3  3 23 51  0.0020000  0  5  2 15 19  7 26
  21608342.385   -14223462.973 8 -10955059.614 9
  24625074.971     -476884.210 5   -345879.333 9
  24265718.205    11664969.001 5   9029604.758 9
  21313528.596   -15909893.751 7 -12274992.427 9
  23036905.479    -8309760.885 6  -6381838.504 9
 94  3  3 23 51 30.0020000  0  5  2 15 19  7 26
  21613029.049   -14198834.237 8 -10935868.374 9
  24626024.963     -471890.928 5   -341988.431 9
  24285134.479    11767006.827 5   9109114.692 9
  21309661.057   -15930217.976 7 -12290829.451 9
  23035204.455    -8318701.535 6  -6388805.206 9
 94  3  3 23 52  0.0020000  0  5  2 15 19  7 26
  21617751.986   -14174014.752 8 -10916528.501 9
  24627075.213     -466372.401 5   -337688.270 9
  24304583.658    11869208.269 5   9188752.137 9
  21305884.674   -15950062.020 7 -12306292.309 9
  23033603.518    -8327111.245 6  -6395358.201 9
 94  3  3 23 52 30.0020000  0  5  2 15 19  7 26
  21622511.986   -14148999.841 8 -10897036.351 9
  24628224.924     -460327.321 5   -332977.801 9
  24324065.682    11971588.938 5   9268529.218 9
  21302202.088   -15969414.165 7 -12321371.866 9
  23032102.908    -8334995.366 6  -6401501.658 9
 94  3  3 23 53  0.0020000  0  5  2 15 19  7 26
  21627309.760   -14123787.815 8 -10877390.611 9
  24629474.354     -453756.339 5   -327857.518 9
  24343588.471    12074181.748 6   9348471.625 9
  21298615.736   -15988259.810 7 -12336056.746 9
  23030701.018    -8342362.451 6  -6407242.217 9
 94  3  3 23 53 30.0020000  0  5  2 15 19  7 26
  21632144.096   -14098379.956 7 -10857592.276 9
  24630825.713     -446659.390 5   -322327.383 9
  24363155.533    12177003.735 6   9428592.597 9
  21295124.666   -16006606.603 7 -12350352.917 9
  23029396.002    -8349223.313 6  -6412588.317 9
 94  3  3 23 54  0.0020000  0  5  2 15 19  7 26
  21637017.674   -14072769.877 7 -10837636.368 9
  24632277.189     -439025.828 5   -316379.141 9
  24382767.627    12280064.525 6   9508899.658 9
  21291729.994   -16024445.755 7 -12364253.524 9
  23028188.635    -8355570.179 6  -6417533.911 9
 94  3  3 23 54 30.0020000  0  5  2 15 19  7 26
  21641925.947   -14046977.462 7 -10817538.371 9
  24633831.244     -430858.464 5   -310014.919 9
  24402425.986    12383373.184 6   9589399.861 9
  21288431.877   -16041773.992 7 -12377756.009 9
  23027080.455    -8361394.520 7  -6422072.344 9
 94  3  3 23 55  0.0020000  0  5  2 15 19  7 26
  21646867.807   -14021007.923 7 -10797302.357 9
  24635488.049     -422156.137 5   -303233.866 9
  24422129.033    12486915.031 6   9670081.776 9
  21285231.455   -16058593.086 7 -12390861.767 9
  23026073.666    -8366682.584 6  -6426192.889 9
 94  3  3 23 55 30.0020000  0  5  2 15 19  7 26
  21651843.502   -13994859.101 7 -10776926.642 9
  24637245.963     -412914.547 5   -296032.578 9
  24441872.416    12590664.778 6   9750925.692 9
  21282128.150   -16074902.287 7 -12403570.201 9
  23025172.768    -8371417.146 7  -6429882.146 9
 94  3  3 23 56  0.0020000  0  5  2 15 19  7 26
  21656853.994   -13968529.142 7 -10756409.783 9
  24639109.111     -403130.529 5   -288408.664 9
  24461653.604    12694606.852 6   9831919.470 9
  21279123.197   -16090693.229 7 -12415874.796 9
  23024381.213    -8375575.890 6  -6433122.722 9
 94  3  3 23 56 30.0020000  0  5  2 15 19  7 26
  21661897.182   -13942027.647 7 -10735759.259 9
  24641073.783     -392803.713 5   -280361.758 9
  24481466.174    12798733.743 5   9913057.238 9
  21276214.838   -16105974.778 7 -12427782.465 9
  23023699.900    -8379155.390 6  -6435911.935 9
 94  3  3 23 57  0.0020000  0  5  2 15 19  7 26
  21666973.861   -13915349.292 7 -10714970.922 9
  24643143.697     -381929.160 5   -271888.070 9
  24501317.080    12903044.566 5   9994338.356 9
  21273404.783   -16120741.749 7 -12439289.165 9
  23023127.736    -8382163.952 6  -6438256.264 9
 94  3  3 23 57 30.0020000  0  5  2 15 19  7 26
  21672084.057   -13888495.574 7 -10694045.945 9
  24645317.783     -370506.345 5   -262987.171 9
  24521203.588    13007556.371 5  10075776.060 9
  21270692.853   -16134993.917 7 -12450394.723 9
  23022660.580    -8384619.472 7  -6440169.646 9
 94  3  3 23 58  0.0020000  0  5  2 15 19  7 26
  21677227.635   -13861466.222 7 -10672984.110 9
  24647596.432     -358531.150 5   -253655.846 9
  24541134.221    13112292.216 5  10157388.343 9
  21268079.744   -16148723.526 7 -12461093.090 9
  23022296.135    -8386534.499 7  -6441661.857 9
 94  3  3 23 58 30.0020000  0  5  2 15 19  7 26
  21682405.322   -13834257.247 7 -10651782.305 9
  24649980.174     -346002.074 5   -243892.931 9
  24561112.158    13217269.842 5  10239189.032 9
  21265568.799   -16161919.282 7 -12471375.470 9
  23022031.182    -8387927.116 7  -6442747.006 9
 94  3  3 23 59  0.0020000  0  5  2 15 19  7 26
  21687619.135   -13806857.913 7 -10630432.174 9
  24652469.221     -332923.124 5   -233701.500 9
  24581133.908    13322483.377 5  10321173.536 9
  21263161.775   -16174569.850 7 -12481233.025 9
  23021864.416    -8388800.651 6  -6443427.678 9
 94  3  3 23 59 30.0020000  0  5  2 15 19  7 26
  21692872.229   -13779252.952 7 -10608921.809 9
  24655063.854     -319291.492 5   -223079.475 9
  24601196.166    13427918.768 5  10403330.912 9
  21260859.057   -16186672.034 7 -12490663.271 9
  23021801.572    -8389134.319 7  -6443687.681 9
 94  3  4  0  0  0.0020000  0  5  2 15 19  7 26
  21698164.947   -13751439.925 7 -10587249.314 9
  24657763.018     -305104.463 5   -212024.636 9
  24621300.338    13533557.982 6  10485647.134 9
  21258659.174   -16198229.061 7 -12499668.724 9
  23021842.244    -8388918.597 6  -6443519.594 9
 94  3  4  0  0 30.0020000  0  5  2 15 19  7 26
  21703496.080   -13723425.566 8 -10565419.941 9
  24660568.447     -290363.735 5   -200538.331 9
  24641436.361    13639378.962 5  10568104.997 9
  21256559.471   -16209264.336 7 -12508267.619 9
  23021988.971    -8388147.900 6  -6442919.049 9
 94  3  4  0  1  0.0020000  0  5  2 15 19  7 26
  21708863.588   -13695218.904 8 -10543440.721 9
  24663478.736     -275069.538 5   -188620.777 9
  24661605.064    13745360.213 6  10650687.725 9
  21254554.197   -16219800.494 7 -12516477.588 9
  23022242.627    -8386816.716 7  -6441881.746 9
 94  3  4  0  1 30.0020000  0  5  2 15 19  7 26
  21714265.494   -13666829.444 8 -10521319.053 9
  24666493.854     -259222.048 5   -176272.063 9
  24681803.064    13851503.712 6  10733396.875 9
  21252640.463   -16229858.631 7 -12524315.073 9
  23022600.932    -8384932.890 7  -6440413.833 9
 94  3  4  0  2  0.0020000  0  5  2 15 19  7 26
  21719700.096   -13638272.196 8 -10499066.653 9
  24669614.689     -242822.452 5   -163493.151 9
  24702034.205    13957826.048 5  10816245.397 9
  21250817.010   -16239442.547 7 -12531783.046 9
  23023062.830    -8382506.016 7  -6438522.747 9
 94  3  4  0  2 30.0020000  0  5  2 15 19  7 26
  21725170.127   -13609526.664 8 -10476667.541 9
  24672841.768     -225861.912 5   -150277.093 9
  24722303.471    14064339.673 5  10899242.960 9
  21249086.658   -16248532.770 7 -12538866.305 9
  23023631.119    -8379517.608 6  -6436194.114 9
 94  3  4  0  3  0.0020000  0  5  2 15 19  7 26
  21730675.854   -13580593.413 8 -10454122.145 9
  24676174.760     -208345.144 5   -136627.628 9
  24742610.994    14171055.449 5  10982398.060 9
  21247454.236   -16257112.021 7 -12545551.416 9
  23024306.205    -8375969.320 6  -6433429.224 9
 94  3  4  0  3 30.0020000  0  5  2 15 19  7 26
  21736216.393   -13551479.005 8 -10431435.585 9
  24679613.830     -190272.654 5   -122545.134 8
  24762959.979    14277983.894 5  11065718.856 9
  21245920.877   -16265171.317 7 -12551831.364 9
  23025090.088    -8371850.420 6  -6430219.687 9
 94  3  4  0  4  0.0020000  0  5  2 15 19  7 26
  21741790.260   -13522186.363 8 -10408610.140 9
  24683159.119     -171638.644 5   -108025.106 9
  24783348.346    14385129.219 5  11149208.671 9
  21244489.135   -16272693.718 7 -12557692.954 9
  23025985.275    -8367149.815 7  -6426556.866 9
 94  3  4  0  4 30.0020000  0  5  2 15 19  7 26
  21747397.658   -13492719.931 8 -10385649.276 9
  24686811.650     -152447.240 5    -93070.699 9
  24803775.979    14492478.542 5  11232857.423 9
  21243157.947   -16279689.405 7 -12563144.113 9
  23026987.947    -8361879.308 7  -6422449.979 9
 94  3  4  0  5  0.0020000  0  5  2 15 19  7 26
  21753035.979   -13463092.335 8 -10362562.829 9
  24690569.643     -132696.707 5    -77680.633 7
  24824244.541    14600039.317 5  11316670.942 9
  21241926.666   -16286160.344 8 -12568186.382 9
  23028097.979    -8356047.017 7  -6417905.329 9
 94  3  4  0  5 30.0020000  0  5  2 15 19  7 26
  21758706.213   -13433296.087 8 -10339344.964 9
  24694434.197     -112384.053 5    -61852.618 8
  24844751.236    14707804.606 5  11400643.848 9
  21240794.494   -16292109.503 8 -12572822.071 9
  23029312.611    -8349661.978 7  -6412929.978 9
 94  3  4  0  6  0.0020000  0  5  2 15 19  7 26
  21764411.588   -13403311.112 8 -10315980.049 9
  24698406.041      -91512.185 5    -45588.785 8
  24865294.064    14815764.536 4  11484768.395 9
  21239763.775   -16297526.756 8 -12577043.282 9
  23030629.557    -8342740.670 6  -6407536.742 9
 94  3  4  0  6 30.0020000  0  5  2 15 19  7 26
  21770155.814   -13373125.413 8 -10292458.724 9
  24702484.588      -70079.131 5    -28887.722 7
  24885875.549    14923910.599 5  11569037.968 8
  21238834.424   -16302409.369 8 -12580847.893 9
  23032049.143    -8335281.448 7  -6401724.356 9
 94  3  4  0  7  0.0020000  0  5  2 15 19  7 26
  21775939.361   -13342733.005 8 -10268776.322 9
  24706670.158      -48079.473 4    -11745.123 8
  24906489.650    15032239.521 5  11653450.043 9
  21238009.064   -16306747.764 8 -12584228.439 9
  23033572.947    -8327273.915 7  -6395484.714 9
 94  3  4  0  7 30.0020000  0  5  2 15 19  7 26
  21781762.533   -13312133.171 8 -10244932.289 9
  24710964.783      -25512.712 5      5839.381 8
  24927135.150    15140733.315 5  11737990.581 9
  21237286.135   -16310545.784 8 -12587187.911 9
  23035201.416    -8318717.842 7  -6388817.633 9
 94  3  4  0  8  0.0020000  0  5  2 15 19  7 26
  21787622.361   -13281340.251 8 -10220937.799 9
  24715366.744       -2384.094 5     23861.671 9
  24947808.994    15249381.107 4  11822651.109 9
  21236662.619   -16313822.827 8 -12589741.427 9
  23036934.424    -8309608.009 7  -6381719.054 9
 94  3  4  0  8 30.0020000  0  5  2 15 19  7 26
  21793515.479   -13250370.623 8 -10196805.615 9
  24719874.791       21308.443 5     42323.399 9
  24968515.150    15358185.466 5  11907433.656 7
  21236132.838   -16316605.530 8 -12591909.746 9
  23038773.705    -8299942.762 6  -6374187.687 9
 94  3  4  0  9  0.0020000  0  5  2 15 19  7 26
  21799442.408   -13219223.984 8 -10172535.506 9
  24724491.963       45566.496 5     61225.752 9
  24989249.783    15467151.906 5  11992342.518 9
  21235697.830   -16318892.410 8 -12593691.709 9
  23040718.166    -8289724.288 6  -6366225.234 9
 94  3  4  0  9 30.0020000  0  5  2 15 19  7 26
  21805404.400   -13187894.739 8 -10148123.108 9
  24729215.377       70388.723 5     80567.733 8
  25010018.697    15576290.911 5  12077385.823 8
  21235356.002   -16320688.371 8 -12595091.140 9
  23042769.033    -8278946.692 7  -6357827.108 9
 94  3  4  0 10  0.0020000  0  5  2 15 19  7 26
  21811402.088   -13156376.803 8 -10123563.678 9
  24734046.143       95772.649 5    100347.447 9
  25030825.283    15685626.077 5  12162582.007 8
  21235107.557   -16321994.850 8 -12596109.159 9
  23044925.744    -8267615.405 7  -6348997.530 9
 94  3  4  0 10 30.0020000  0  5  2 15 19  7 26
  21817434.455   -13124675.598 8 -10098861.441 9
  24738983.908      121721.259 5    120567.147 9
  25051668.721    15795172.215 3  12247942.525 8
  21234957.111   -16322785.075 8 -12596724.901 9
  23047186.057    -8255735.426 7  -6339740.396 9
 94  3  4  0 11  0.0020000  0  4  2 15  7 26
  21823502.260   -13092790.320 8 -10074015.764 9
  24744029.369      148235.389 5    141227.498 9
  21234909.486   -16323034.804 8 -12596919.483 9
  23049552.189    -8243299.928 6  -6330050.391 9
 94  3  4  0 11 30.0020000  0  4  2 15  7 26
  21829605.189   -13060719.669 8 -10049025.657 9
  24749182.486      175313.343 5    162327.219 9
  21234962.307   -16322756.598 8 -12596702.683 9
  23052025.064    -8230307.864 6  -6319926.702 9
 94  3  4  0 12  0.0020000  0  4  2 15  7 26
  21835741.088   -13028473.746 8 -10023898.969 9
  24754441.283      202951.338 5    183863.313 9
  21235116.330   -16321948.839 8 -12596073.244 9
  23054598.463    -8216781.101 6  -6309386.375 9
 94  3  4  0 12 30.0020000  0  4  2 15  7 26
  21841911.947   -12996045.127 8  -9998629.914 9
  24759808.877      231155.151 5    205840.341 9
  21235372.799   -16320599.355 8 -12595021.686 9
  23057278.127    -8202704.665 6  -6298417.723 9
 94  3  4  0 13  0.0020000  0  4  2 15  7 26
  21848122.541   -12963411.069 8  -9973200.778 9
  24765283.002      259922.734 5    228256.655 9
  21235729.330   -16318727.549 8 -12593563.123 9
  23060060.018    -8188082.046 6  -6287023.479 9
 94  3  4  0 13 30.0020000  0  4  2 15  7 26
  21854370.322   -12930576.190 8  -9947615.160 9
  24770865.291      289252.251 5    251110.837 9
  21236183.174   -16316342.106 8 -12591704.325 9
  23062943.510    -8172929.781 6  -6275216.521 9
 94  3  4  0 14  0.0020000  0  4  2 15  7 26
  21860654.104   -12897556.597 8  -9921885.602 9
  24776552.682      319145.723 5    274404.447 9
  21236736.541   -16313434.117 8 -12589438.342 9
  23065925.541    -8157257.061 6  -6263004.010 9
 94  3  4  0 14 30.0020000  0  4  2 15  7 26
  21866970.580   -12864361.362 8  -9896019.186 9
  24782348.322      349601.881 5    298136.571 9
  21237387.830   -16310009.909 8 -12586770.113 9
  23069010.596    -8141046.503 6  -6250372.415 9
 94  3  4  0 15  0.0020000  0  4  2 15  7 26
  21873318.705   -12831001.389 8  -9870024.401 9
  24788251.150      380619.683 5    322306.263 9
  21238133.939   -16306088.930 8 -12583714.788 9
  23072197.354    -8124301.890 6  -6237324.664 9
 94  3  4  0 15 30.0020000  0  4  2 15  7 26
  21879696.088   -12797489.267 8  -9843911.055 9
  24794260.502      412201.889 5    346915.791 9
  21238975.533   -16301667.061 8 -12580269.155 9
  23075486.729    -8107015.307 6  -6223854.609 9
 94  3  4  0 16  0.0020000  0  4  2 15  7 26
  21886103.627   -12763816.972 8  -9817672.896 9
  24800376.744      444341.503 5    371959.661 9
  21239910.947   -16296751.656 8 -12576438.953 9
  23078881.369    -8089175.664 6  -6209953.587 9
 94  3  4  0 16 30.0020000  0  4  2 15  7 26
  21892545.119   -12729966.668 8  -9791296.036 9
  24806599.486      477040.635 5    397439.543 9
  21240940.307   -16291340.307 8 -12572222.298 9
  23082384.088    -8070767.443 6  -6195609.527 9
 94  3  4  0 17  0.0020000  0  4  2 15  7 26
  21899022.689   -12695926.746 8  -9764771.421 9
  24812929.135      510301.448 5    423357.079 9
  21242065.338   -16285430.577 8 -12567617.299 9
  23085992.799    -8051805.186 6  -6180833.752 9
 94  3  4  0 17 30.0020000  0  4  2 15  7 26
  21905534.822   -12661705.156 8  -9738105.239 9
  24819363.783      544119.118 5    449708.593 9
  21243287.166   -16279009.600 8 -12562613.915 9
  23089705.768    -8032292.588 6  -6165629.125 9
 94  3  4  0 18  0.0020000  0  4  2 15  7 26
  21912081.588   -12627302.036 8  -9711297.608 9
  24825904.525      578494.223 5    476494.200 2
  21244607.135   -16272073.051 8 -12557208.795 9
  23093525.650    -8012220.700 6  -6149988.687 9
 94  3  4  0 18 30.0030000  0  4  2 15  7 26
  21918659.132   -12592734.560 8  -9684361.904 9
  24832551.882      613424.226 5
  21246022.843   -16264632.748 8 -12551411.138 9
  23097449.851    -7991597.680 6  -6133918.804 9
 94  3  4  0 19  0.0030000  0  4  2 15  7 26
  21925267.390   -12558008.846 8  -9657302.906 9
  24839304.030      648906.727 5     12032.23919
  21247534.437   -16256689.366 8 -12545221.472 9
  23101478.444    -7970427.272 6  -6117422.387 9
 94  3  4  0 19 30.0030000  0  4  2 15  7 26
  21931906.015   -12523122.432 8  -9630118.690 9
  24846161.358      684943.957 5     40113.243 9
  21249141.983   -16248241.148 7 -12538638.430 9
  23105613.030    -7948699.943 6  -6100492.005 9
 94  3  4  0 20  0.0030000  0  4  2 15  7 26
  21938575.507   -12488073.367 8  -9602807.726 9
  24853125.905      721536.998 5     68627.277 9
  21250843.796   -16239298.103 8 -12531669.810 9
  23109852.788    -7926420.557 6  -6083131.449 9
 94  3  4  0 20 30.0030000  0  4  2 15  7 26
  21945276.397   -12452862.320 8  -9575370.547 9
  24860195.382      758684.883 5     97573.686 9
  21252638.601   -16229867.027 7 -12524320.896 9
  23114194.046    -7903610.104 6  -6065357.063 9
 94  3  4  0 21  0.0030000  0  4  2 15  7 26
  21952007.827   -12417486.600 8  -9547805.052 9
  24867369.827      796384.262 6    126949.825 9
  21254527.562   -16219939.366 7 -12516585.039 9
  23118631.647    -7880286.437 6  -6047182.782 9
 94  3  4  0 21 30.0030000  0  4  2 15  7 26
  21958770.632   -12381947.584 8  -9520112.321 9
  24874647.437      834629.782 6    156751.533 9
  21256511.280   -16209513.598 7 -12508461.047 9
  23123164.647    -7856463.474 6  -6028619.438 9
 94  3  4  0 22  0.0030000  0  4  2 15  7 26
  21965565.515   -12346240.504 8  -9492288.628 9
  24882029.452      873423.483 6    186980.396 9
  21258591.210   -16198585.091 8 -12499945.314 9
  23127791.530    -7832148.356 6  -6009672.596 9
 94  3  4  0 22 30.0030000  0  4  2 15  7 26
  21972394.983   -12310352.562 8  -9464323.994 9
  24889516.976      912769.522 6    217639.635 9
  21260768.054   -16187145.403 7 -12491031.258 9
  23132513.124    -7807339.703 6  -5990341.187 9
 94  3  4  0 23  0.0030000  0  4  2 15  7 26
  21979258.429   -12274286.203 8  -9436220.342 9
  24897107.944      952658.528 6    248721.965 9
  21263041.405   -16175200.373 8 -12481723.429 9
  23137331.054    -7782023.029 6  -5970613.911 9
 94  3  4  0 23 30.0030000  0  4  2 15  7 26
  21986156.077   -12238035.615 8  -9407973.123 9
  24904802.030      993092.519 6    280228.971 9
  21265408.405   -16162760.015 8 -12472029.631 9
  23142249.710    -7756174.624 6  -5950472.289 9
 94  3  4  0 24  0.0030000  0  4  2 15  7 26
  21993088.632   -12201606.004 8  -9379586.415 9
  24912598.390     1034065.146 6    312155.690 9
  21267865.835   -16149846.859 7 -12461967.419 9
  23147271.288    -7729786.027 6  -5929909.755 9
 94  3  4  0 24 30.0030000  0  4  2 15  7 26
  22000053.647   -12165004.510 8  -9351065.771 9
  24920496.093     1075575.701 5    344501.565 9
  21270410.968   -16136471.473 7 -12451545.029 9
  23152397.671    -7702844.191 6  -5908916.122 9
 94  3  4  0 25  0.0030000  0  4  2 15  7 26
  22007052.186   -12128227.990 8  -9322408.752 9
  24928498.413     1117632.472 5    377273.075 9
  21273046.304   -16122622.366 7 -12440753.504 9
  23157631.405    -7675343.308 6  -5887486.853 9
 94  3  4  0 25 30.0030000  0  4  2 15  7 26
  22014081.530   -12091288.646 8  -9293624.843 9
  24936606.913     1160233.727 5    410468.846 9
  21275770.843   -16108304.826 8 -12429596.971 9
  23162966.882    -7647304.938 6  -5865638.779 9
 94  3  4  0 26  0.0030000  0  4  2 15  7 26
  22021137.640   -12054207.170 8  -9264730.178 9
  24944815.351     1203370.911 5    444082.247 9
  21278583.663   -16093522.218 8 -12418078.040 9
  23168399.210    -7618756.524 6  -5843393.264 9
 94  3  4  0 26 30.0030000  0  4  2 15  7 26
  22028220.585   -12016987.913 8  -9235728.161 9
  24953126.835     1247047.020 5    478115.595 9
  21281488.788   -16078256.502 7 -12406182.664 9
  23173926.569    -7589709.650 6  -5820759.335 9
 94  3  4  0 27  0.0030000  0  3  2  7 26
  22035329.882   -11979627.733 8  -9206616.316 9
  21284487.663   -16062498.484 8 -12393903.677 9
  23179547.983    -7560169.956 6  -5797741.404 9
 94  3  4  0 27 30.0030000  0  3  2  7 26
  22042467.163   -11942121.436 8  -9177390.623 9
  21287578.304   -16046256.458 8 -12381247.542 9
  23185264.069    -7530134.244 6  -5774336.956 9
 94  3  4  0 28  0.0030000  0  3  2  7 26
  22049635.390   -11904449.439 8  -9148035.818 9
  21290763.249   -16029518.633 8 -12368205.070 9
  23191073.897    -7499600.061 6  -5750544.083 9
 94  3  4  0 28 30.0030000  0  3  2  7 26
  22056839.710   -11866592.651 8  -9118537.009 9
  21294042.226   -16012287.372 8 -12354778.100 9
  23196981.366    -7468555.991 6  -5726353.918 9
 94  3  4  0 29  0.0030000  0  3  2  7 26
  22064080.187   -11828543.126 8  -9088888.020 9
  21297413.874   -15994569.418 8 -12340971.889 9
  23202986.202    -7437001.264 6  -5701765.821 9
 94  3  4  0 29 30.0030000  0  3  2  7 26
  22071358.788   -11790293.728 8  -9059083.286 9
  21300877.569   -15976368.699 8 -12326789.499 9
  23209086.522    -7404944.599 6  -5676786.615 9
 94  3  4  0 30  0.0030000  0  4  2  9  7 26
  22078674.569   -11751848.424 8  -9029125.898 9
  25105964.538      -13893.96515
  21304434.069   -15957677.336 8 -12312224.794 9
  23215282.968    -7372382.327 6  -5651413.416 9
 94  3  4  0 30 30.0030000  0  4  2  9  7 26
  22086024.116   -11713227.122 8  -8999031.376 9
  25090103.062      -97247.031 5
  21308080.960   -15938513.457 8 -12297291.888 9
  23221576.437    -7339309.663 6  -5625642.513 9
 94  3  4  0 31  0.0030000  0  4  2  9  7 26
  22093401.819   -11674456.481 8  -8968820.483 9
  25074246.968     -180569.823 5    -41114.60419
  21311815.788   -15918887.030 8 -12281998.560 9
  23227963.608    -7305742.633 6  -5599486.395 9
 94  3  4  0 31 30.0030000  0  4  2  9  7 26
  22100806.671   -11635542.213 8  -8938497.677 9
  25058404.101     -263826.196 5   -105989.663 9
  21315640.335   -15898789.210 8 -12266337.915 9
  23234448.647    -7271665.412 6  -5572932.733 9
 94  3  4  0 32  0.0030000  0  4  2  9  7 26
  22108236.702   -11596500.638 8  -8908075.674 9
  25042573.507     -347014.557 5   -170811.646 9
  21319552.397   -15878229.870 8 -12250317.640 9
  23241030.179    -7237079.270 6  -5545982.499 9
 94  3  4  0 32 30.0030000  0  4  2  9  7 26
  22115690.702   -11557327.061 8  -8877550.810 9
  25026753.538     -430143.567 5   -235587.405 9
  21323551.874   -15857213.871 8 -12233941.533 9
  23247708.577    -7201984.532 6  -5518635.960 9
 94  3  4  0 33  0.0030000  0  4  2  9  7 26
  22123172.265   -11518010.501 8  -8846914.538 9
  25010946.577     -513217.347 5   -300320.159 9
  21327637.991   -15835739.669 7 -12217208.380 9
  23254480.226    -7166398.751 6  -5490906.786 9
 94  3  4  0 33 30.0030000  0  4  2  9  7 26
  22130684.976   -11478531.812 8  -8816151.923 9
  24995145.366     -596248.889 5   -365019.991 9
  21331812.405   -15813803.281 7 -12200115.088 9
  23261344.226    -7130325.761 6  -5462797.976 9
 94  3  4  0 34  0.0030000  0  4  2  9  7 26
  22138229.882   -11438880.354 7  -8785254.683 9
  24979352.624     -679251.398 5   -429697.179 9
  21336071.866   -15791420.463 8 -12182673.924 9
  23268300.218    -7093775.323 6  -5434317.135 9
 94  3  4  0 34 30.0030000  0  4  2  9  7 26
  22145808.968   -11399053.262 8  -8754220.592 9
  24963562.835     -762218.085 5   -494346.481 9
  21340416.632   -15768588.490 8 -12164882.767 9
  23275345.952    -7056748.318 6  -5405464.937 9
 94  3  4  0 35  0.0030000  0  4  2  9  7 26
  22153421.491   -11359047.449 7  -8723047.232 9
  24947781.179     -845139.796 5   -558960.708 9
  21344847.038   -15745305.814 7 -12146740.414 9
  23282483.194    -7019241.956 6  -5376239.208 9
 94  3  4  0 35 30.0030000  0  4  2  9  7 26
  22161066.046   -11318876.365 7  -8691745.098 9
  24932014.335     -927999.877 5   -623526.934 9
  21349364.015   -15721569.520 8 -12128244.593 9
  23289713.788    -6981244.367 6  -5346630.711 9
 94  3  4  0 36  0.0030000  0  4  2  9  7 26
  22168739.327   -11278553.911 7  -8660325.008 9
  24916262.069    -1010782.697 5   -688032.958 9
  21353968.522   -15697372.284 7 -12109389.595 9
  23297039.741    -6942748.436 6  -5316633.896 9
 94  3  4  0 36 30.0030000  0  4  2  9  7 26
  22176439.304   -11238089.327 7  -8628794.175 9
  24900521.976    -1093492.636 5   -752482.159 9
  21358664.671   -15672694.152 8 -12090159.870 9
  23304460.686    -6903748.030 6  -5286243.979 9
 94  3  4  0 37  0.0030000  0  4  2  9  7 26
  22184167.562   -11197476.765 7  -8597148.024 9
  24884797.265    -1176134.404 5   -816878.252 9
  21363452.936   -15647531.383 8 -12070552.506 9
  23311978.890    -6864242.595 6  -5255460.530 9
 94  3  4  0 37 30.0030000  0  4  2  9  7 26
  22191924.093   -11156717.638 7  -8565387.667 9
  24869082.101    -1258708.578 5   -881221.692 9
  21368334.999   -15621876.428 7 -12050561.621 9
  23319591.874    -6824235.869 6  -5224286.469 9
 94  3  4  0 38  0.0030000  0  4  2  9  7 26
  22199710.155   -11115799.427 7  -8533503.345 9
  24853378.491    -1341226.063 5   -945520.959 9
  21373309.710   -15595734.417 7 -12030191.217 9
  23327300.866    -6783724.130 6  -5192718.904 9
 94  3  4  0 38 30.0030000  0  5  2  9  4  7 26
  22207527.921   -11074716.994 7  -8501491.059 9
  24837688.663    -1423683.878 5  -1009773.716 9
  25090032.897      -83598.598 5
  21378372.343   -15569128.606 7 -12009459.406 9
  23335103.890    -6742722.322 6  -5160769.406 9
 94  3  4  0 39  0.0030000  0  5  2  9  4  7 26
  22215379.499   -11033457.893 7  -8469341.112 9
  24822010.366    -1506070.430 5  -1073970.958 9
  25073566.077     -170119.372 4    -29217.55418
  21383519.897   -15542078.454 7 -11988381.356 9
  23342995.522    -6701248.526 6  -5128452.204 9
 94  3  4  0 39 30.0030000  0  5  2  9  4  7 26
  22223262.647   -10992031.815 7  -8437061.060 9
  24806348.804    -1588375.091 5  -1138104.384 9
  25057096.538     -256678.671 5    -96666.176 9
  21388748.968   -15514600.130 7 -11966969.664 9
  23350977.413    -6659307.320 6  -5095770.749 9
 94  3  4  0 40  0.0030000  0  5  2  9  4  7 26
  22231178.077   -10950437.531 8  -8404649.930 9
  24790704.718    -1670595.049 6  -1202171.821 9
  25040614.030     -343283.759 5   -164150.580 8
  21394055.655   -15486712.594 7 -11945239.116 9
  23359045.226    -6616907.598 6  -5062732.026 9
 94  3  4  0 40 30.0030000  0  5  2  9  4  7 26
  22239124.632   -10908674.751 7  -8372107.510 9
  24775077.444    -1752717.639 6  -1266163.366 9
  25024125.811     -429926.536 4   -231664.319 7
  21399439.772   -15458419.381 7 -11923192.451 9
  23367198.976    -6574061.401 6  -5029345.404 9
 94  3  4  0 41  0.0030000  0  5  2  9  4  7 26
  22247100.905   -10866761.535 7  -8339447.861 9
  24759463.788    -1834754.838 5  -1330088.379 9
  25007637.601     -516580.428 5   -299186.709 9
  21404900.351   -15429724.549 7 -11900832.835 9
  23375437.194    -6530766.696 6  -4995609.274 9
 94  3  4  0 41 30.0030000  0  5  2  9  4  7 26
  22255104.022   -10824706.061 8  -8306677.369 9
  24743866.624    -1916715.499 5  -1393953.734 9
  24991146.147     -603240.300 5   -366713.794 9
  21410440.663   -15400608.341 7 -11878144.881 9
  23383764.179    -6487006.055 6  -4961510.086 9
 94  3  4  0 42  0.0030000  0  5  2  9  4  7 26
  22263133.835   -10782508.588 8  -8273796.227 9
  24728281.140    -1998619.330 5  -1457774.841 9
  24974654.569     -689905.973 5   -434245.392 9
  21416063.061   -15371063.866 7 -11855123.214 9
  23392179.796    -6442784.964 6  -4927052.106 9
 94  3  4  0 42 30.0030000  0  5  2  9  4  7 26
  22271191.960   -10740163.543 8  -8240800.095 9
  24712705.132    -2080471.031 5  -1521555.312 9
  24958163.827     -776556.396 5   -501765.088 9
  21421771.046   -15341067.821 7 -11831749.669 9
  23400686.093    -6398084.580 6  -4892220.658 9
 94  3  4  0 43  0.0030000  0  5  2  9  4  7 26
  22279278.616   -10697667.017 8  -8207685.927 9
  24697138.765    -2162277.426 5  -1585300.474 9
  24941680.108     -863185.688 5   -569268.311 9
  21427568.015   -15310603.756 7 -11808011.434 9
  23409284.218    -6352898.499 6  -4857010.742 9
 94  3  4  0 43 30.0030000  0  5  2  9  4  7 26
  22287397.890   -10654999.931 8  -8174438.857 9
  24681579.437    -2244034.420 5  -1649007.159 9
  24925198.304     -949799.060 5   -636759.122 7
  21433456.421   -15279659.836 7 -11783899.284 9
  23417976.108    -6307225.777 6  -4821421.628 9
 94  3  4  0 44  0.0030000  0  5  2  9  4  7 26
  22295550.390   -10612159.120 8  -8141056.419 9
  24666037.155    -2325717.294 5  -1712656.087 9
  24908720.640    -1036391.755 5   -704233.887 9
  21439432.851   -15248253.537 7 -11759426.839 9
  23426757.851    -6261075.112 6  -4785460.082 9
 94  3  4  0 44 30.0030000  0  5  2  9  4  7 26
  22303735.624   -10569145.211 8  -8107539.089 9
  24650511.366    -2407306.769 6  -1776232.268 9
  24892245.772    -1122968.204 5   -771695.911 9
  21445495.905   -15216393.269 7 -11734600.653 9
  23435630.124    -6214452.417 6  -4749130.721 9
 94  3  4  0 45  0.0030000  0  5  2  9  4  7 26
  22311953.554   -10525960.183 8  -8073888.424 9
  24635007.726    -2488780.106 6  -1839717.901 9
  24875773.077    -1209528.224 5   -839145.132 9
  21451642.265   -15184091.017 7 -11709430.062 9
  23444588.749    -6167372.702 6  -4712445.244 9
 94  3  4  0 45 30.0030000  0  5  2  9  4  7 26
  22320200.366   -10482622.588 8  -8040118.871 9
  24619525.280    -2570136.327 6  -1903112.306 9
  24859304.546    -1296071.059 5   -906580.989 9
  21457869.046   -15151370.120 7 -11683933.257 9
  23453632.077    -6119851.100 6  -4675415.435 9
 94  3  4  0 46  0.0030000  0  5  2  9  4  7 26
  22328473.897   -10439145.529 8  -8006240.648 9
  24604066.812    -2651373.563 6  -1966413.997 9
  24842838.718    -1382600.044 5   -974006.044 9
  21464173.186   -15118243.544 7 -11658120.338 9
  23462756.819    -6071900.089 6  -4638051.021 9
 94  3  4  0 46 30.0030000  0  5  2  9  4  7 26
  22336777.124   -10395509.651 8  -7972238.671 9
  24588628.796    -2732506.431 6  -2029634.349 9
  24826378.608    -1469100.722 5  -1041409.050 9
  21470555.468   -15084704.273 7 -11631985.832 9
  23471963.780    -6023517.461 6  -4600350.301 9
 94  3  4  0 47  0.0030000  0  5  2  9  4  7 26
  22345109.772   -10351721.479 8  -7938118.015 9
  24573204.843    -2813552.733 6  -2092787.238 9
  24809923.187    -1555566.101 5  -1108784.586 9
  21477014.163   -15050762.417 7 -11605537.626 9
  23481250.499    -5974716.830 6  -4562323.853 9
 94  3  4  0 47 30.0030000  0  5  2  9  4  7 26
  22353474.022   -10307767.908 8  -7903868.469 9
  24557799.726    -2894513.869 6  -2155873.773 9
  24793479.171    -1641985.201 5  -1176124.036 9
  21483551.804   -15016405.714 7 -11578766.159 9
  23490618.827    -5925486.044 6  -4523962.217 9
 94  3  4  0 48  0.0030000  0  5  2  9  4  7 26
  22361872.897   -10263630.114 8  -7869475.385 9
  24542409.913    -2975382.756 6  -2218888.413 9
  24777042.733    -1728358.608 5  -1243427.884 9
  21490171.038   -14981621.508 7 -11551661.573 9
  23500071.007    -5875812.774 6  -4485255.779 9
 94  3  4  0 48 30.0030000  0  5  2  9  4  7 26
  22370309.468   -10219295.230 7  -7834928.727 9
  24527039.608    -3056152.068 6  -2281825.467 9
  24760617.343    -1814677.654 5  -1310689.385 9
  21496872.694   -14946406.055 7 -11524220.955 9
  23509610.069    -5825685.572 6  -4446195.651 9
 94  3  4  0 49  0.0030000  0  5  2  9  4  7 26
  22378778.679   -10174791.140 8  -7800250.211 9
  24511690.624    -3136806.047 6  -2344672.665 9
  24744199.476    -1900949.755 5  -1377914.318 9
  21503657.093   -14910752.510 7 -11496438.961 9
  23519234.780    -5775104.420 6  -4406781.791 9
 94  3  4  0 49 30.0030000  0  5  2  9  4  7 26
  22387277.780   -10130126.560 7  -7765446.649 9
  24496367.788    -3217328.121 6  -2407417.058 9
  24727788.616    -1987183.312 5  -1445109.254 9
  21510525.249   -14874659.246 7 -11468314.338 9
  23528950.741    -5724051.355 6  -4367000.207 9
 94  3  4  0 50  0.0030000  0  5  2  9  4  7 26
  22395807.702   -10085301.656 7  -7730518.155 9
  24481072.413    -3297715.701 6  -2470056.667 9
  24711386.811    -2073381.063 5  -1512276.253 9
  21517475.038   -14838137.309 7 -11439855.675 9
  23538754.046    -5672529.782 6  -4326853.541 9
 94  3  4  0 50 30.0030000  0  5  2  9  4  7 26
  22404365.452   -10040330.703 7  -7695475.854 9
  24465799.218    -3377970.703 6  -2532592.937 9
  24694992.765    -2159536.401 5  -1579410.224 9
  21524504.632   -14801197.616 7 -11411071.494 9
  23548645.812    -5620552.885 6  -4286352.081 9
 94  3  4  0 51  0.0030000  0  5  2  9  4  7 26
  22412947.476    -9995231.164 7  -7660333.359 9
  24450551.187    -3458101.476 6  -2595032.431 9
  24678604.569    -2245655.019 6  -1646515.599 9
  21531614.069   -14763838.368 7 -11381960.383 9
  23558620.929    -5568129.313 6  -4245502.564 9
 94  3  4  0 51 30.0030000  0  5  2  9  4  7 26
  22421559.062    -9949976.400 7  -7625069.919 9
  24435324.140    -3538117.613 6  -2657382.592 9
  24662223.647    -2331732.739 5  -1713589.072 9
  21538801.819   -14726066.508 7 -11352527.759 9
  23568683.429    -5515257.288 6  -4204303.613 9
 94  3  4  0 52  0.0030000  0  5  2  9  4  7 26
  22430202.483    -9904556.668 7  -7589677.928 9
  24420116.858    -3618027.244 6  -2719649.764 9
  24645851.851    -2417762.437 5  -1780625.149 9
  21546067.257   -14687885.971 7 -11322776.688 9
  23578825.569    -5461956.034 6  -4162770.179 9
 94  3  4  0 52 30.0030000  0  5  2  9  4  7 26
  22438874.272    -9858984.127 7  -7554166.867 9
  24404930.819    -3697831.205 6  -2781834.598 9
  24629489.194    -2503741.943 5  -1847622.096 9
  21553410.757   -14649295.441 7 -11292706.143 9
  23589047.757    -5408236.809 6  -4120911.058 9
 94  3  4  0 53  0.0030000  0  5  2  9  4  7 26
  22447579.046    -9813241.432 7  -7518523.221 9
  24389766.804    -3777520.042 6  -2843929.722 9
  24613138.483    -2589672.905 5  -1914581.205 9
  21560831.851   -14610297.213 7 -11262317.910 9
  23599349.952    -5354096.128 6  -4078723.517 9
 94  3  4  0 53 30.0030000  0  5  2  9  4  7 26
  22456317.882    -9767317.549 7  -7482738.397 9
  24374625.687    -3857084.087 6  -2905927.617 9
  24596797.804    -2675549.984 5  -1981498.358 9
  21568328.765   -14570899.437 7 -11231618.347 9
  23609730.554    -5299551.173 6  -4036220.977 9
 94  3  4  0 54  0.0030000  0  5  2  9  4  7 26
  22465086.069    -9721239.792 7  -7446833.651 9
  24359511.210    -3936515.152 6  -2967821.888 9
  24580466.296    -2761371.328 5  -2048372.057 9
  21575901.858   -14531103.253 7 -11200608.337 9
  23620183.351    -5244619.720 6  -3993417.256 9
 94  3  4  0 54 30.0030000  0  5  2  9  4  7 26
  22473882.101    -9675016.192 7  -7410815.276 9
  24344421.405    -4015812.803 6  -3029612.207 9
  24564142.538    -2847141.354 5  -2115205.770 9
  21583549.804   -14490913.617 7 -11169291.739 9
  23630708.991    -5189307.380 6  -3950316.745 9
 94  3  4  0 55  0.0030000  0  5  2  9  4  7 26
  22482706.272    -9628646.408 7  -7374682.986 9
  24329356.311    -4094970.800 6  -3091293.697 9
  24547830.991    -2932865.698 5  -2182003.883 9
  21591272.163   -14450332.316 7 -11137669.954 9
  23641306.647    -5133614.268 6  -3906919.529 9
 94  3  4  0 55 30.0030000  0  5  2  9  4  7 26
  22491554.624    -9582148.244 7  -7338450.656 9
  24314320.476    -4173992.772 6  -3152869.209 9
  24531532.694    -3018523.147 6  -2248749.881 9
  21599070.421   -14409351.042 7 -11105736.499 9
  23651979.468    -5077533.170 6  -3863219.989 9
 94  3  4  0 56  0.0030000  0  5  2  9  4  7 26
  22500426.702    -9535525.367 7  -7302121.150 9
  24299305.046    -4252891.884 6  -3214348.972 9
  24515246.796    -3104098.129 5  -2315431.640 9
  21606942.616   -14367983.862 7 -11073502.338 9
  23662728.522    -5021043.333 6  -3819201.950 9
 94  3  4  0 56 30.0030000  0  5  2  9  4  7 26
  22509326.616    -9488756.025 7  -7265677.510 9
  24284316.085    -4331671.274 6  -3275735.453 9
  24498979.179    -3189586.846 5  -2382046.167 9
  21614885.429   -14326244.188 7 -11040977.918 9
  23673557.632    -4964135.554 6  -3774858.237 9
 94  3  4  0 57  0.0030000  0  5  2  9  4  7 26
  22518256.194    -9441832.616 8  -7229113.822 9
  24269344.616    -4410340.691 6  -3337036.248 9
  24482728.413    -3274979.437 5  -2448585.771 9
  21622898.124   -14284134.822 7 -11008165.428 9
  23684467.132    -4906803.067 6  -3730183.595 9
 94  3  4  0 57 30.0030000  0  5  2  9  4  7 26
  22527217.569    -9394739.455 8  -7192417.859 9
  24254393.726    -4488909.211 6  -3398258.416 9
  24466500.710    -3360260.249 6  -2515038.300 9
  21630982.522   -14241650.945 7 -10975061.112 9
  23695459.116    -4849039.849 6  -3685173.316 9
 94  3  4  0 58  0.0030000  0  5  2  9  4  7 26
  22536213.343    -9347466.372 8  -7155581.695 9
  24239462.843    -4567369.835 6  -3459396.509 9
  24450291.007    -3445451.080 6  -2581420.686 9
  21639138.569   -14198791.843 7 -10941664.410 9
  23706530.187    -4790861.687 6  -3639839.702 9
 94  3  4  0 58 30.0030000  0  5  2  9  4  7 26
  22545242.655    -9300018.062 8  -7118608.990 9
  24224554.343    -4645711.512 6  -3520441.919 9
  24434089.311    -3530572.847 5  -2647749.293 9
  21647369.460   -14155538.185 7 -10907960.257 9
  23717676.421    -4732292.437 6  -3594201.335 9
 94  3  4  0 59  0.0030000  0  5  2  9  4  7 26
  22554299.991    -9252420.356 8  -7081519.870 9
  24209668.890    -4723939.884 6  -3581399.032 9
  24417908.921    -3615624.637 6  -2714023.326 9
  21655675.874   -14111888.009 7 -10873947.130 9
  23728892.194    -4673354.241 6  -3548275.482 9
 94  3  4  0 59 30.0030000  0  5  2  9  4  7 26
  22563383.210    -9204688.248 8  -7044326.026 9
  24194807.663    -4802032.594 6  -3642250.437 9
  24401735.772    -3700597.530 5  -2780235.903 9
  21664057.444   -14067844.785 7 -10839627.733 9
  23740174.140    -4614063.226 6  -3502074.709 9
 94  3  4  1  0  0.0030000  0  5  2  9  4  7 26
  22572490.194    -9156830.793 8  -7007034.500 9
  24179976.890    -4879970.149 6  -3702980.949 9
  24385581.913    -3785489.735 6  -2846385.575 9
  21672509.655   -14023425.821 7 -10805015.546 9
  23751521.741    -4554432.924 6  -3455609.563 9
 94  3  4  1  0 30.0030000  0  5  2  9  4  7 26
  22581621.686    -9108844.384 8  -6969642.493 9
  24165177.374    -4957741.845 6  -3763582.224 9
  24369446.491    -3870281.571 6  -2912457.050 9
  21681030.812   -13978647.253 7 -10770123.148 9
  23762933.733    -4494462.512 6  -3408879.393 9
 94  3  4  1  1  0.0030000  0  5  2  9  4  7 26
  22590777.530    -9060729.914 8  -6932150.699 9
  24150410.116    -5035341.644 6  -3824049.542 9
  24353337.124    -3954945.603 6  -2978428.929 9
  21689618.163   -13933519.929 7 -10734958.996 9
  23774413.163    -4434139.930 6  -3361874.807 9
 94  3  4  1  1 30.0030000  0  5  2  9  4  7 26
  22599960.819    -9012471.941 8  -6894547.083 9
  24135677.749    -5112763.529 6  -3884378.216 9
  24337246.468    -4039492.658 6  -3044309.695 9
  21698270.499   -13888051.884 7 -10699529.349 9
  23785963.249    -4373445.074 6  -3314580.126 9
 94  3  4  1  2  0.0030000  0  6  2  9  4  7 26 12
  22609174.804    -8964052.466 8  -6856817.625 9
  24120977.530    -5190012.806 6  -3944572.398 9
  24321176.093    -4123941.670 6  -3110114.019 9
  21706987.327   -13842243.512 7 -10663834.517 9
  23797584.983    -4312366.651 6  -3266986.571 9
  25036408.726      -42927.88713    -47223.05119
 94  3  4  1  2 30.0030000  0  6  2  9  4  7 26 12
  22618419.061    -8915472.249 7  -6818962.909 9
  24106308.663    -5267097.386 6  -4004638.249 9
  24305125.436    -4208291.708 6  -3175841.210 9
  21715771.405   -13796083.738 7 -10627865.861 9
  23809283.241    -4250892.142 6  -3219084.376 9
  25021988.679     -118711.551 4   -106275.141 9
 94  3  4  1  3  0.0030000  0  6  2  9  4  7 26 12
  22627693.554    -8866734.129 7  -6780985.162 9
  24091668.515    -5344033.320 6  -4064588.261 9
  24289089.983    -4292551.208 6  -3241497.884 9
  21724623.171   -13749566.080 7 -10591618.338 9
  23821058.132    -4189015.921 6  -3170869.169 9
  25007560.054     -194530.226 4   -165354.544 9
 94  3  4  1  3 30.0030000  0  6  2  9  4  7 26 12
  22637002.335    -8817818.799 7  -6742869.321 9
  24077057.272    -5420820.888 6  -4124422.681 9
  24273070.780    -4376736.245 6  -3307096.490 9
  21733542.351   -13702695.098 7 -10555095.496 9
  23832908.843    -4126740.945 6  -3122343.223 9
  24993126.897     -270376.998 4   -224455.824 9
 94  3  4  1  4  0.0030000  0  6  2  9  4  7 26 12
  22646341.968    -8768737.075 7  -6704623.830 9
  24062471.030    -5497465.270 6  -4184145.515 9
  24257067.952    -4460834.722 6  -3372627.676 9
  21742529.093   -13655470.777 7 -10518297.329 9
  23844831.015    -4064090.102 6  -3073524.393 9
  24978688.483     -346253.688 4   -283580.432 9
 94  3  4  1  4 30.0030000  0  6  2  9  4  7 26 12
  22655711.460    -8719498.673 7  -6666256.249 9
  24047912.593    -5573971.526 6  -4243760.726 9
  24241085.061    -4544825.541 6  -3438074.954 9
  21751583.608   -13607889.657 7 -10481221.131 9
  23856822.624    -4001072.009 6  -3024419.395 9
  24964243.788     -422159.241 4   -342727.512 9
 94  3  4  1  5  0.0030000  0  6  2  9  4  7 26 12
  22665111.163    -8670103.075 7  -6627766.181 9
  24033380.155    -5650344.198 6  -4303271.840 9
  24225120.968    -4628713.869 6  -3503442.357 9
  21760702.796   -13559966.463 7 -10443878.384 9
  23868882.522    -3937697.701 6  -2975036.845 9
  24949794.007     -498091.878 4   -401895.713 9
 94  3  4  1  5 30.0030000  0  6  2  9  4  7 26 12
  22674537.569    -8620565.544 7  -6589165.511 9
  24018870.085    -5726590.183 6  -4362684.255 9
  24209178.249    -4712501.636 6  -3568731.418 9
  21769884.054   -13511720.333 7 -10406284.009 9
  23881006.343    -3873987.449 6  -2925392.534 9
  24935339.140     -574054.393 4   -461087.204 9
 94  3  4  1  6  0.0030000  0  6  2  9  4  7 26 12
  22683989.421    -8570896.991 7  -6550462.751 9
  24004388.147    -5802694.292 6  -4421986.099 9
  24193253.155    -4796176.904 6  -3633932.810 9
  21779129.944   -13463132.138 7 -10368423.066 9
  23893193.561    -3809943.183 6  -2875487.938 9
  24920878.796     -650043.050 4   -520299.068 9
 94  3  4  1  6 30.0030000  0  6  2  9  4  7 26 12
  22693466.062    -8521094.471 7  -6511655.600 9
  23989934.741    -5878646.721 6  -4481169.774 9
  24177354.788    -4879729.037 6  -3699038.249 9
  21788440.546   -13414204.127 7 -10330297.346 9
  23905446.796    -3745554.845 6  -2825315.218 9
  24906414.905     -726051.117 5   -579526.051 9
 94  3  4  1  7  0.0030000  0  6  2  9  4  7 26 12
  22702969.632    -8471154.682 7  -6472741.490 9
  23975513.335    -5954426.508 6  -4540218.910 9
  24161477.944    -4963152.317 6  -3764043.299 9
  21797815.366   -13364938.009 7 -10291908.167 9
  23917763.921    -3680826.959 6  -2774877.936 9
  24891947.132     -802077.397 4   -638767.235 9
 94  3  4  1  7 30.0030000  0  6  2  9  4  7 26 12
  22712498.522    -8421080.284 7  -6433722.481 9
  23961128.772    -6030021.826 6  -4599124.293 9
  24145629.608    -5046431.855 6  -3828936.361 9
  21807257.210   -13315321.694 7 -10253246.105 9
  23930142.851    -3615769.527 6  -2724183.859 9
  24877475.874     -878125.029 5   -698025.051 9
 94  3  4  1  8  0.0030000  0  6  2  9  4  7 26 12
  22722053.429    -8370869.441 7  -6394597.159 9
  23946780.171    -6105423.822 6  -4657879.049 9
  24129811.069    -5129570.183 6  -3893719.357 9
  21816765.319   -13265356.676 7 -10214312.322 9
  23942586.726    -3550379.490 6  -2673230.611 9
  24863000.827     -954191.847 5   -757297.830 9
 94  3  4  1  8 30.0030000  0  6  2  9  4  7 26 12
  22731633.468    -8320527.075 7  -6355369.381 9
  23932466.311    -6180645.538 6  -4716493.328 9
  24114017.210    -5212564.741 6  -3958390.352 9
  21826334.257   -13215072.673 7 -10175129.955 9
  23955092.210    -3484661.421 6  -2622021.757 9
  24848521.632    -1030279.975 5   -816587.220 9
 94  3  4  1  9  0.0030000  0  6  2  9  4  7 26 12
  22741239.382    -8270045.488 7  -6316033.053 9
  23918186.718    -6255684.652 6  -4774965.311 9
  24098247.897    -5295428.026 6  -4022959.072 9
  21835965.624   -13164460.419 7 -10135691.874 9
  23967657.757    -3418628.638 6  -2570567.657 9
  24834039.187    -1106387.107 5   -875891.409 9
 94  3  4  1  9 30.0030000  0  6  2  9  4  7 26 12
  22750873.718    -8219417.682 7  -6276582.830 9
  23903940.077    -6330548.858 6  -4833301.013 9
  24082504.319    -5378165.845 6  -4087430.030 9
  21845657.929   -13113526.263 7 -10096002.914 9
  23980283.483    -3352282.884 6  -2518869.698 9
  24819552.710    -1182511.438 5   -935208.998 9
 94  3  4  1 10  0.0030000  0  6  2  9  4  7 26 12
  22760534.671    -8168647.580 7  -6237021.715 9
  23889726.538    -6405242.551 6  -4891503.845 9
  24066783.499    -5460784.025 6  -4151807.741 9
  21855407.991   -13062288.854 7 -10056077.655 9
  23992966.530    -3285629.936 6  -2466932.349 9
  24805063.358    -1258654.010 5   -994540.806 9
 94  3  4  1 10 30.0030000  0  6  2  9  4  7 26 12
  22770227.991    -8117711.389 7  -6197331.193 9
  23875548.249    -6479748.572 6  -4949560.440 9
  24051090.491    -5543259.250 6  -4216074.084 9
  21865220.249   -13010725.079 7 -10015898.084 9
  24005705.608    -3218683.649 6  -2414766.430 9
  24790571.733    -1334807.191 5  -1053880.884 9
 94  3  4  1 11  0.0030000  0  6  2  9  4  7 26 12
  22779954.327    -8066598.309 7  -6157502.821 9
  23861406.999    -6554063.134 6  -5007467.835 9
  24035422.452    -5625589.059 6  -4280227.119 9
  21875096.655   -12958824.805 7  -9975456.309 9
  24018501.913    -3151444.926 6  -2362372.642 9
  24776077.554    -1410974.325 5  -1113231.834 9
 94  3  4  1 11 30.0030000  0  6  2  9  4  7 26 12
  22789713.772    -8015314.092 7  -6117541.100 9
  23847301.897    -6628186.733 6  -5065226.438 9
  24019784.507    -5707766.165 6  -4344261.145 9
  21885032.765   -12906608.599 7  -9934768.356 9
  24031355.405    -3083898.323 6  -2309738.952 9
  24761580.413    -1487157.567 5  -1172595.336 9
 94  3  4  1 12  0.0030000  0  6  2  9  4  7 26 12
  22799503.437    -7963866.845 7  -6077452.341 9
  23833230.999    -6702127.345 6  -5122842.447 9
  24004175.460    -5789795.160 6  -4408179.802 9
  21895030.132   -12854072.774 7  -9893831.351 9
  24044268.366    -3016036.787 6  -2256859.864 9
  24747080.413    -1563355.642 5  -1231970.385 9
 94  3  4  1 12 30.0030000  0  6  2  9  4  7 26 12
  22809325.640    -7912252.373 7  -6037233.275 9
  23819195.655    -6775883.985 6  -5180315.102 9
  23988595.788    -5871666.453 6  -4471975.548 9
  21905091.249   -12801203.286 7  -9852634.351 9
  24057245.780    -2947845.644 6  -2203723.948 9
  24732579.030    -1639561.643 5  -1291351.617 9
 94  3  4  1 13  0.0030000  0  6  2  9  4  7 26 12
  22819173.640    -7860499.362 7  -5996906.260 9
  23805191.640    -6849473.860 6  -5237657.811 9
  23973043.249    -5953385.691 6  -4535652.808 9
  21915212.374   -12748015.742 7  -9811189.513 9
  24070287.397    -2879308.807 6  -2150318.624 9
  24718075.343    -1715777.405 5  -1350740.450 9
 94  3  4  1 13 30.0030000  0  6  2  9  4  7 26 12
  22829044.476    -7808628.674 7  -5956487.548 9
  23791219.241    -6922899.489 6  -5294872.541 9
  23957523.179    -6034947.578 6  -4599207.475 9
  21925394.265   -12694509.942 7  -9769496.687 9
  24083391.546    -2810443.024 6  -2096656.998 9
  24703570.983    -1791999.596 5  -1410134.289 9
 94  3  4  1 14  0.0030000  0  6  2  9  4  7 26 12
  22838936.093    -7756647.740 7  -5915982.926 9
  23777277.530    -6996164.508 6  -5351962.129 9
  23942032.085    -6116345.523 6  -4662634.390 9
  21935637.726   -12640679.026 7  -9727550.524 9
  24096554.085    -2741275.506 6  -2042760.260 9
  24689064.577    -1868229.371 5  -1469534.039 9
 94  3  4  1 14 30.0030000  0  6  2  9  4  7 26 12
  22848848.929    -7704554.456 7  -5875390.767 9
  23763370.999    -7069241.509 6  -5408905.195 9
  23926579.249    -6197559.485 6  -4725917.940 9
  21945942.718   -12586527.087 7  -9685354.207 9
  24109772.968    -2671813.374 6  -1988633.954 9
  24674558.397    -1944460.605 5  -1528934.924 9
 94  3  4  1 15  0.0030000  0  6  2  9  4  7 26 12
  22858785.257    -7652340.656 7  -5834704.685 9
  23749504.569    -7142112.126 6  -5465687.467 9
  23911158.413    -6278592.347 6  -4789060.370 9
  21956305.851   -12532069.206 7  -9642919.499 9
  24123046.460    -2602060.466 6  -1934281.067 9
  24660051.562    -2020692.901 5  -1588336.645 9
 94  3  4  1 15 30.0030000  0  6  2  9  4  7 26 12
  22868746.194    -7599995.494 7  -5793916.246 9
  23735678.983    -7214765.485 6  -5522300.434 9
  23895771.890    -6359450.977 6  -4852067.056 9
  21966723.577   -12477320.410 7  -9600258.105 9
  24136372.210    -2532032.069 6  -1879713.502 9
  24645544.444    -2096928.892 5  -1647741.237 9
 94  3  4  1 16  0.0030000  0  6  2  9  4  7 26 12
  22878738.069    -7547487.911 7  -5753001.249 9
  23721897.140    -7287187.616 6  -5578733.228 9
  23880414.999    -6440144.179 6  -4914944.830 9
  21977195.640   -12422290.270 7  -9557377.482 9
  24149753.155    -2461712.194 6  -1824918.815 9
  24631036.952    -2173166.629 5  -1707147.192 9
 94  3  4  1 16 30.0030000  0  6  2  9  4  7 26 12
  22888762.390    -7494809.626 7  -5711953.235 9
  23708161.913    -7359371.316 6  -5634980.240 9
  23865092.233    -6520674.205 6  -4977695.462 9
  21987721.187   -12366978.548 7  -9514277.444 9
  24163193.015    -2391087.977 6  -1769886.995 9
  24616529.319    -2249403.813 5  -1766552.717 9
 94  3  4  1 17  0.0040000  0  6  2  9  4  7 26 12
  22898818.676    -7441962.731 7  -5670773.845 9
  23694465.168    -7431342.348 6  -5691061.528 9
  23849796.887    -6601050.183 6  -5040326.046 9
  21998300.199   -12311384.505 7  -9470957.417 9
  24176688.512    -2320166.317 6  -1714623.391 9
  24602020.848    -2325646.752 5  -1825962.738 9
 94  3  4  1 17 30.0040000  0  6  2  9  4  7 26 12
  22908905.551    -7388954.752 7  -5629468.929 9
  23680809.324    -7503107.530 6  -5746982.414 9
  23834534.582    -6681257.310 6  -5102825.059 9
  22008935.418   -12255496.243 7  -9427408.128 9
  24190238.668    -2248958.904 6  -1659137.128 9
  24587513.590    -2401882.725 5  -1885367.317 9
 94  3  4  1 18  0.0040000  0  6  2  9  4  7 26 12
  22919022.738    -7335789.199 7  -5588041.226 9
  23667189.715    -7574677.890 6  -5802751.487 9
  23819304.340    -6761284.597 6  -5165183.932 9
  22019628.957   -12199299.160 7  -9383618.194 9
  24203844.793    -2177466.663 6  -1603428.921 9
  24573007.871    -2478110.631 5  -1944765.618 9
 94  3  4  1 18 30.0040000  0  6  2  9  4  7 26 12
  22929163.863    -7282496.760 7  -5546514.654 9
  23653604.598    -7646066.671 6  -5858379.078 9
  23804113.816    -6841118.787 6  -5227392.338 9
  22030381.098   -12142798.025 7  -9339591.340 9
  24217498.621    -2105706.714 6  -1547512.105 9
  24558503.965    -2554328.578 5  -2004156.161 9
 94  3  4  1 19  0.0040000  0  6  2  9  4  7 26 12
  22939327.059    -7229088.794 7  -5504898.062 9
  23640052.957    -7717284.199 6  -5913873.221 9
  23788958.012    -6920763.279 6  -5289452.928 9
  22041186.301   -12086014.998 7  -9295344.827 9
  24231198.730    -2033711.418 6  -1491411.924 9
  24544000.465    -2630545.043 5  -2063545.547 9
 94  3  4  1 19 30.0040000  0  6  2  9  4  7 26 12
  22949515.051    -7175550.859 7  -5463180.197 9
  23626536.230    -7788311.342 6  -5969219.006 9
  23773839.480    -7000209.869 6  -5351359.306 9
  22052045.980   -12028947.436 7  -9250876.594 9
  24244945.488    -1961480.587 6  -1435128.184 9
  24529498.855    -2706750.891 5  -2122926.668 9
 94  3  4  1 20  0.0040000  0  6  2  9  4  7 26 12
  22959728.840    -7121876.974 7  -5421356.395 9
  23613060.715    -7859128.605 6  -6024401.243 9
  23758758.941    -7079453.627 6  -5413107.621 9
  22062956.910   -11971611.966 7  -9206199.605 9
  24258733.676    -1889016.011 6  -1378662.301 9
  24514999.574    -2782945.244 5  -2182298.840 9
 94  3  4  1 20 30.0040000  0  6  2  9  4  7 26 12
  22969968.285    -7068068.832 7  -5379427.979 9
  23599626.324    -7929723.600 6  -6079410.283 9
  23743718.199    -7158494.667 6  -5474697.980 9
  22073915.566   -11914023.928 7  -9161325.807 9
  24272566.418    -1816330.988 6  -1322024.663 9
  24500501.762    -2859130.950 5  -2241664.263 9
 94  3  4  1 21  0.0040000  0  6  2  9  4  7 26 12
  22980234.465    -7014119.143 7  -5337389.265 9
  23586239.543    -8000073.466 6  -6134228.312 9
  23728715.504    -7237334.481 6  -5536131.543 9
  22084923.184   -11856177.677 7  -9116250.802 9
  24286439.519    -1743421.249 6  -1265211.918 9
  24486005.824    -2935308.381 5  -2301023.246 9
 94  3  4  1 21 30.0040000  0  6  2  9  4  7 26 12
  22990526.941    -6960034.425 7  -5295245.329 9
  23572899.395    -8070176.315 6  -6188853.872 9
  23713751.121    -7315973.178 6  -5597408.375 9
  22095980.785   -11798071.514 7  -9070973.273 9
  24300360.910    -1670265.766 6  -1208207.679 9
  24471511.215    -3011477.592 5  -2360375.827 9
 94  3  4  1 22  0.0040000  0  6  2  9  4  7 26 12
  23000843.941    -6905815.814 7  -5252997.068 9
  23559606.684    -8140030.372 7  -6243285.558 9
  23698827.309    -7394398.414 6  -5658518.897 9
  22107084.965   -11739718.700 7  -9025503.544 9
  24314331.691    -1596852.412 6  -1151002.509 9
  24457018.605    -3087636.108 5  -2419720.071 9
 94  3  4  1 22 30.0040000  0  6  2  9  4  7 26 12
  23011185.457    -6851472.261 7  -5210651.448 9
  23546358.535    -8209649.882 7  -6297534.496 9
  23683943.238    -7472616.693 6  -5719468.138 9
  22118236.457   -11681116.492 7  -8979839.489 9
  24328349.910    -1523182.226 6  -1093597.179 9
  24442528.113    -3163784.548 5  -2479056.464 9
 94  3  4  1 23  0.0040000  0  6  2  9  4  7 26 12
  23021550.629    -6797001.679 7  -5168206.846 9
  23533152.996    -8279045.210 6  -6351608.740 9
  23669094.215    -7550642.204 6  -5780267.177 9
  22129434.027   -11622271.928 7  -8933986.582 9
  24342419.090    -1449244.766 6  -1035983.596 9
  24428039.465    -3239921.434 5  -2538383.856 9
 94  3  4  1 23 30.0040000  0  6  2  9  4  7 26 12
  23031942.277    -6742393.599 7  -5125655.103 9
  23519985.566    -8348241.611 7  -6405527.974 9
  23654283.699    -7628478.596 6  -5840918.860 9
  22140676.613   -11563192.932 7  -8887951.006 9
  24356537.840    -1375048.032 6   -978167.995 9
  24413553.301    -3316046.500 5  -2597702.039 9
 94  3  4  1 24  0.0040000  0  6  2  9  4  7 26 12
  23042359.277    -6687648.311 7  -5082996.433 9
  23506856.840    -8417233.147 7  -6459287.590 9
  23639504.434    -7706134.784 6  -5901430.109 9
  22151964.559   -11503874.885 7  -8841729.154 9
  24370703.371    -1300614.658 6   -920167.993 9
  24399069.980    -3392157.848 5  -2657009.517 9
 94  3  4  1 24 30.0040000  0  6  2  9  4  7 26 12
  23052804.145    -6632762.792 7  -5040228.501 9
  23493765.926    -8486024.750 7  -6512891.405 9
  23624761.785    -7783621.615 6  -5961809.397 9
  22163301.730   -11444296.208 7  -8795304.212 9
  24384908.840    -1225961.321 6   -861996.592 9
  24384588.809    -3468255.409 5  -2716306.253 9
 94  3  4  1 25  0.0040000  0  6  2  9  4  7 26 12
  23063277.051    -6577727.570 7  -4997343.929 9
  23480715.098    -8554608.750 7  -6566333.454 9
  23610049.066    -7860929.755 6  -6022049.447 9
  22174691.363   -11384444.298 7  -8748666.372 9
  24399156.105    -1151093.749 6   -803658.253 9
  24370110.520    -3544338.750 5  -2775591.914 9
 94  3  4  1 25 30.0040000  0  6  2  9  4  7 26 12
  23073779.051    -6522540.951 7  -4954341.372 9
  23467706.105    -8622970.963 7  -6619602.685 9
  23595375.379    -7938041.364 6  -6082136.363 9
  22186135.340   -11324306.544 7  -8701805.799 9
  24413441.715    -1076020.837 6   -745159.882 9
  24355635.652    -3620404.717 5  -2834864.040 9
 94  3  4  1 26  0.0040000  0  6  2  9  4  7 26 12
  23084307.527    -6467212.182 7  -4911228.064 9
  23454741.277    -8691098.567 7  -6672689.102 9
  23580740.137    -8014941.896 6  -6142058.807 9
  22197633.762   -11263881.365 7  -8654721.254 9
  24427766.144    -1000745.375 6   -686503.721 9
  24341164.410    -3696452.142 5  -2894121.719 9
 94  3  4  1 26 30.0040000  0  6  2  9  4  7 26 12
  23094862.762    -6411746.343 7  -4868007.931 9
  23441821.340    -8758993.497 6  -6725594.211 9
  23566151.160    -8091608.048 6  -6201798.613 9
  22209184.457   -11203180.648 7  -8607422.003 9
  24442128.824     -925265.640 6   -627688.381 9
  24326696.480    -3772480.427 5  -2953364.479 9
 94  3  4  1 27  0.0040000  0  6  2  9  4  7 26 12
  23105440.340    -6356157.047 7  -4824691.593 9
  23428948.207    -8826644.569 7  -6778309.296 9
  23551608.863    -8168033.394 6  -6261350.797 9
  22220783.730   -11142227.410 7  -8559925.981 9
  24456533.879     -849577.269 6   -568710.468 9
  24312232.785    -3848488.149 5  -3012591.220 9
 94  3  4  1 27 30.0040000  0  6  2  9  4  7 26 12
  23116040.809    -6300454.336 7  -4781286.897 9
  23416120.871    -8894049.292 7  -6830832.432 9
  23537112.887    -8244210.416 6  -6320709.470 9
  22232425.855   -11081047.722 7  -8512253.504 9
  24470976.582     -773675.943 6   -509566.595 9
  24297772.996    -3924474.041 5  -3071800.958 9
 94  3  4  1 28  0.0040000  0  6  2  9  4  7 26 12
  23126661.043    -6244641.959 7  -4737796.731 9
  23403340.793    -8961208.421 7  -6883164.193 9
  23522664.340    -8320135.682 6  -6379871.958 9
  22244107.316   -11019659.900 7  -8464418.841 9
  24485460.566     -697560.175 6   -450255.643 9
  24283317.801    -4000435.771 5  -3130991.864 9
 94  3  4  1 28 30.0040000  0  6  2  9  4  7 26 12
  23137304.293    -6188713.405 7  -4694216.046 9
  23390609.746    -9028115.084 7  -6935299.223 9
  23508260.293    -8395829.207 6  -6438853.891 9
  22255826.277   -10958077.216 7  -8416432.341 9
  24499983.832     -621243.038 6   -390787.767 9
  24268867.066    -4076375.002 5  -3190165.242 9
 94  3  4  1 29  0.0040000  0  6  2  9  4  7 26 12
  23147971.176    -6132657.685 7  -4650536.264 9
  23377926.598    -9094764.661 7  -6987233.935 9
  23493898.293    -8471301.063 6  -6497663.089 9
  22267581.082   -10896304.729 7  -8368297.937 9
  24514545.863     -544716.779 6   -331156.957 9
  24254421.441    -4152287.832 5  -3249318.050 9
 94  3  4  1 29 30.0040000  0  6  2  9  4  7 26 12
  23158665.238    -6076462.593 7  -4606747.890 9
  23365291.699    -9161161.333 7  -7038971.573 9
  23479578.980    -8546549.454 6  -6556298.140 9
  22279372.496   -10834340.799 7  -8320014.365 9
  24529146.644     -467988.814 6   -271368.967 9
  24239981.590    -4228169.615 5  -3308446.672 9
 94  3  4  1 30  0.0040000  0  6  2  9  4  7 26 12
  23169387.434    -6020115.271 7  -4562840.888 9
  23352703.770    -9227308.625 7  -7090514.894 9
  23465299.707    -8621586.731 6  -6614768.701 9
  22291202.824   -10772172.077 7  -8271571.207 9
  24543781.488     -391082.364 6   -211441.891 9
  24225547.879    -4304018.849 5  -3367549.925 9
 94  3  4  1 30 30.0040000  0  6  2  9  4  7 26 12
  23180139.098    -5963613.684 7  -4518813.684 9
  23340161.457    -9293221.477 7  -7141875.528 9
  23451061.332    -8696408.322 6  -6673071.194 9
  22303072.644   -10709795.313 7  -8222965.937 9
  24558447.621     -314010.386 6   -151385.832 9
  24211119.371    -4379840.776 5  -3426631.895 9
 94  3  4  1 31  0.0040000  0  6  2  9  4  7 26 12
  23190918.848    -5906966.515 7  -4474673.034 9
  23327663.191    -9358900.227 7  -7193053.751 9
  23436870.598    -8770984.984 6  -6731182.830 9
  22314984.168   -10647199.138 7  -8174189.698 9
  24573149.035     -236759.695 6    -91190.532 9
  24196698.168    -4455624.760 5  -3485684.304 9
 94  3  4  1 31 30.0040000  0  7  2  9  4  7 24 26 12
  23201725.418    -5850178.608 7  -4430422.733 9
  23315209.363    -9424344.184 7  -7244049.013 9
  23422727.863    -8845306.926 6  -6789095.984 9
  22326939.160   -10584375.706 7  -8125236.375 9
  25365876.387      -93950.014 3
  24587879.621     -159350.579 6    -30871.786 9
  24182283.738    -4531373.260 5  -3544709.062 9
 94  3  4  1 32  0.0040000  0  7  2  9  4  7 24 26 12
  23212558.840    -5793247.583 7  -4386060.889 9
  23302804.504    -9489531.151 7  -7294844.022 9
  23408635.965    -8919357.810 6  -6846797.922 9
  22338939.598   -10521313.302 7  -8076096.838 9
  25347376.160     -191189.050 5    -32837.23019
  24602642.394      -81772.146 6     29578.899 9
  24167878.090    -4607075.493 5  -3603697.770 9
 94  3  4  1 32 30.0040000  0  7  2  9  4  7 24 26 12
  23223414.910    -5736198.979 7  -4341607.434 9
  23290451.598    -9554450.631 7  -7345430.601 9
  23394596.652    -8993136.872 7  -6904288.059 9
  22350984.605   -10458018.850 7  -8026776.489 9
  25328865.637     -288469.382 5   -108639.852 9
  24617440.566       -4003.841 6     90177.550 9
  24153481.152    -4682731.145 5  -3662650.180 9
 94  3  4  1 33  0.0040000  0  7  2  9  4  7 24 26 12
  23234290.207    -5679049.320 7  -4297075.237 9
  23278149.840    -9619091.873 7  -7395800.373 9
  23380604.504    -9066663.124 6  -6961581.188 9
  22363071.816   -10394498.174 7  -7977279.859 9
  25310346.309     -385780.211 5   -184466.415 9
  24632277.238       73955.246 6    150924.855 9
  24139092.863    -4758342.663 5  -3721568.198 9
 94  3  4  1 33 30.0040000  0  7  2  9  4  7 24 26 12
  23245185.988    -5621789.946 7  -4252457.547 9
  23265904.277    -9683446.780 7  -7445947.031 9
  23366659.535    -9139945.114 6  -7018683.990 9
  22375201.035   -10330759.713 7  -7927613.523 9
  25291821.137     -483122.326 4   -260317.323 8
  24647147.988      152106.446 6    211821.837 9
  24124713.043    -4833908.437 5  -3780450.586 9
 94  3  4  1 34  0.0040000  0  7  2  9  4  7 24 26 12
  23256104.551    -5564415.270 7  -4207750.006 9
  23253711.527    -9747516.191 7  -7495871.224 9
  23352760.449    -9212984.970 6  -7075598.115 9
  22387369.668   -10266814.114 7  -7877785.790 9
  25273293.199     -580493.099 5   -336190.463 9
  24662058.840      230456.843 6    272874.060 9
  24110342.473    -4909425.734 5  -3839295.186 9
 94  3  4  1 34 30.0040000  0  7  2  9  4  7 24 26 12
  23267044.770    -5506918.622 7  -4162947.430 9
  23241572.035    -9811310.420 7  -7545580.989 9
  23338909.207    -9285775.229 7  -7132317.755 9
  22399577.363   -10202660.570 7  -7827796.014 9
  25254757.910     -677899.586 5   -412091.541 9
  24677002.144      308998.857 5    334075.587 9
  24095981.473    -4984893.654 5  -3898101.318 9
 94  3  4  1 35  0.0040000  0  7  2  9  4  7 24 26 12
  23278015.066    -5449270.542 7  -4118026.846 9
  23229485.363    -9874828.456 7  -7595075.536 9
  23325109.434    -9358292.446 6  -7188824.634 9
  22411824.512   -10138301.874 7  -7777646.383 9
  25236216.238     -775333.570 5   -488014.056 9
  24691981.512      387710.056 6    395408.971 9
  24081631.043    -5060304.532 5  -3956862.993 9
 94  3  4  1 35 30.0040000  0  7  2  9  4  7 24 26 12
  23289016.598    -5391457.962 7  -4072978.084 9
  23217450.316    -9938071.946 7  -7644356.154 9
  23311360.621    -9430537.336 6  -7245119.308 9
  22424110.059   -10073741.945 7  -7727339.948 9
  25217668.777     -872800.138 5   -563961.969 9
  24706987.645      466566.864 5    456855.799 9
  24067291.816    -5135658.413 5  -4015580.266 9
 94  3  4  1 36  0.0040000  0  7  2  9  4  7 24 26 12
  23300049.785    -5333477.793 7  -4027798.738 9
  23205467.301   -10001044.171 7  -7693425.399 9
  23297667.371    -9502505.384 7  -7301198.266 9
  22436435.137   -10008970.709 7  -7676868.863 9
  25199117.340     -970289.575 5   -639927.703 9
  24722018.512      545552.011 6    518402.627 9
  24052963.262    -5210954.751 5  -4074252.695 9
 94  3  4  1 36 30.0040000  0  7  2  9  4  7 24 26 12
  23311114.957    -5275329.965 7  -3982488.745 9
  23193536.301   -10063735.951 7  -7742276.117 9
  23284025.324    -9574190.495 6  -7357056.748 9
  22448801.410    -9943983.906 7  -7626229.800 9
  25180563.676    -1067789.199 5   -715901.376 9
  24737072.316      624662.838 5    580047.370 9
  24038647.715    -5286183.245 5  -4132872.261 9
 94  3  4  1 37  0.0040000  0  7  2  9  4  7 24 26 12
  23322210.879    -5217019.322 7  -3937051.887 9
  23181661.644   -10126139.654 7  -7790902.344 9
  23270436.582    -9645600.002 6  -7412700.474 9
  22461207.637    -9878788.906 7  -7575428.508 9
  25162009.105    -1165290.752 5   -791876.568 9
  24752149.387      703893.738 6    641785.709 9
  24024345.324    -5361342.949 5  -4191438.229 9
 94  3  4  1 37 30.0040000  0  7  2  9  4  7 24 26 12
  23333336.965    -5158553.514 7  -3891494.123 9
  23169841.488   -10188258.383 7  -7839306.530 9
  23256898.457    -9716741.524 6  -7468135.380 9
  22473652.723    -9813388.845 7  -7524467.430 9
  25143457.816    -1262789.479 5   -867849.556 9
  24767251.340      783254.176 6    703624.955 9
  24010056.035    -5436433.062 5  -4249949.960 9
 94  3  4  1 38  0.0040000  0  7  2  9  4  7 24 26 12
  23344492.191    -5099931.972 7  -3845815.007 9
  23158074.801   -10250091.074 7  -7887487.823 9
  23243415.121    -9787595.482 6  -7523346.210 9
  22486135.574    -9747791.920 7  -7473352.955 9
  25124905.676    -1360276.655 5   -943813.519 9
  24782379.816      862756.927 5    765575.133 9
  23995781.395    -5511446.890 6  -4308402.253 9
 94  3  4  1 38 30.0040000  0  7  2  9  4  7 24 26 12
  23355675.769    -5041164.562 7  -3800022.230 9
  23146364.574   -10311628.659 7  -7935439.153 9
  23229988.387    -9858155.795 7  -7578328.224 9
  22498653.918    -9682009.497 7  -7422093.933 9
  25106354.144    -1457761.338 5  -1019775.509 9
  24797537.246      942407.164 6    827640.207 9
  23981522.160    -5586379.756 6  -4366791.453 9
 94  3  4  1 39  0.0040000  0  7  2  9  4  7 24 26 12
  23366886.527    -4982251.524 7  -3754115.977 9
  23134710.090   -10372871.968 7  -7983161.184 9
  23216616.504    -9928422.560 6  -7633081.501 9
  22511206.324    -9616043.868 7  -7370692.153 9
  25087803.840    -1555250.411 5  -1095740.957 9
  24812723.262     1022210.789 5    889824.824 9
  23967278.418    -5661230.456 6  -4425116.628 9
 94  3  4  1 39 30.0040000  0  7  2  9  4  7 24 26 12
  23378125.934    -4923188.087 7  -3708092.521 9
  23123112.559   -10433818.627 7  -8030652.062 9
  23203302.848    -9998387.425 7  -7687599.530 9
  22523794.394    -9549894.128 7  -7319146.913 9
  25069249.301    -1652744.658 5  -1171710.424 9
  24827938.660     1102170.896 5    952131.353 9
  23953051.324    -5735994.075 6  -4483373.950 9
 94  3  4  1 40  0.0040000  0  7  2  9  4  7 24 26 12
  23389392.262    -4863983.281 7  -3661958.921 9
  23111572.816   -10494458.762 7  -8077904.079 9
  23190049.707   -10068034.658 7  -7741870.052 9
  22536418.332    -9483556.121 7  -7267454.966 9
  25050696.457    -1750245.905 5  -1247685.277 9
  24843185.496     1182288.876 5   1014560.899 9
  23938841.027    -5810670.027 6  -4541562.956 9
 94  3  4  1 40 30.0040000  0  7  2  9  4  7 24 26 12
  23400684.691    -4804640.754 7  -3615717.989 9
  23100092.738   -10554786.774 7  -8124912.894 9
  23176856.965   -10137365.848 7  -7795894.311 9
  22549079.652    -9417020.394 7  -7215608.951 9
  25032141.926    -1847752.008 5  -1323663.968 9
  24858460.637     1262570.279 5   1077117.797 9
  23924647.746    -5885255.883 6  -4599681.758 9
 94  3  4  1 41  0.0040000  0  7  2  9  4  7 24 26 12
  23412006.527    -4745142.994 7  -3569356.091 9
  23088671.496   -10614807.168 7  -8171681.998 9
  23163724.605   -10206372.511 7  -7849665.685 9
  22561779.168    -9350283.600 7  -7163606.253 9
  25013587.098    -1945250.676 5  -1399636.878 9
  24873771.199     1343016.179 6   1139802.902 9
  23910472.402    -5959748.200 6  -4657727.675 9
 94  3  4  1 41 30.0040000  0  7  2  9  4  7 24 26 12
  23423359.184    -4685483.233 7  -3522867.969 9
  23077310.746   -10674508.779 7  -8218202.705 9
  23150656.449   -10275041.418 7  -7903173.877 9
  22574518.363    -9283337.521 7  -7111440.481 9
  24995038.777    -2042732.633 5  -1475596.696 9
  24889107.684     1423612.733 5   1202605.367 9
  23896315.059    -6034144.898 6  -4715699.084 9
 94  3  4  1 42  0.0040000  0  7  2  9  4  7 24 26 12
  23434743.137    -4625661.796 7  -3476253.862 9
  23066012.730   -10733879.251 7  -8264465.386 9
  23137653.965   -10343378.946 7  -7956423.857 9
  22587299.113    -9216175.532 7  -7059106.464 9
  24976491.605    -2140192.163 5  -1551539.112 9
  24904472.637     1504361.361 5   1265526.337 9
  23882177.262    -6108439.595 6  -4773591.010 9
 94  3  4  1 42 30.0040000  0  7  2  9  4  7 24 26 12
  23446157.043    -4565679.543 7  -3429514.440 9
  23054776.957   -10792923.534 7  -8310473.893 9
  23124708.355   -10411408.501 7  -8009433.853 9
  22600118.754    -9148806.822 7  -7006611.365 9
  24957948.262    -2237631.948 5  -1627466.157 9
  24919867.473     1585248.337 5   1328555.113 9
  23868058.863    -6182632.090 6  -4831403.300 9
 94  3  4  1 43  0.0040000  0  7  2  9  4  7 24 26 12
  23457600.855    -4505542.648 7  -3382654.530 9
  23043603.910   -10851637.466 7  -8356224.980 9
  23111820.262   -10479130.848 7  -8062204.469 9
  22612977.559    -9081234.071 7  -6953957.276 9
  24939412.035    -2335048.081 5  -1703374.697 9
  24935281.387     1666259.821 5   1391680.883 9
  23853960.113    -6256721.436 6  -4889135.217 9
 94  3  4  1 43 30.0040000  0  7  2  9  4  7 24 26 12
  23469072.574    -4445260.480 7  -3335681.417 9
  23032495.402   -10910013.931 7  -8401713.104 9
  23098991.262   -10546546.469 7  -8114736.082 9
  22625872.434    -9013471.110 7  -6901154.968 9
  24920882.371    -2432421.639 5  -1779250.127 9
  24950720.887     1747392.702 5   1454901.290 9
  23839881.293    -6330705.570 6  -4946785.149 9
 94  3  4  1 44  0.0040000  0  7  2  9  4  7 24 26 12
  23480571.113    -4384832.937 7  -3288595.018 9
  23021450.918   -10968054.010 7  -8446939.117 9
  23086221.629   -10613652.654 7  -8167026.576 9
  22638802.160    -8945523.973 7  -6848209.146 9
  24902362.660    -2529742.339 5  -1855084.373 9
  24966186.168     1828658.459 5   1518225.211 9
  23825823.488    -6404579.596 6  -5004349.285 9
 94  3  4  1 44 30.0040000  0  7  2  9  4  7 24 26 12
  23492099.480    -4324251.156 7  -3241388.446 9
  23010468.473   -11025763.893 7  -8491907.832 9
  23073514.887   -10680426.723 7  -8219058.280 9
  22651765.668    -8877399.944 7  -6795125.487 9
  24883854.113    -2627001.306 5  -1930870.480 9
  24981673.746     1910050.999 5   1581647.948 9
  23811787.137    -6478341.013 6  -5061825.677 9
 94  3  4  1 45  0.0040000  0  7  2  9  4  7 24 26 12
  23503659.457    -4263506.141 7  -3194054.673 9
  22999550.918   -11083135.787 7  -8536613.175 9
  23060875.527   -10746849.568 7  -8270816.304 9
  22664761.777    -8809107.062 7  -6741910.253 9
  24865360.059    -2724185.749 5  -2006598.561 9
  24997185.223     1991563.198 5   1645163.885 9
  23797772.855    -6551986.803 6  -5119211.969 9
 94  3  4  1 45 30.0040000  0  7  2  9  4  7 24 26 12
  23515249.863    -4202593.812 7  -3146590.522 9
  22988699.519   -11140160.868 7  -8581048.287 9
  23048302.043   -10812923.020 7  -8322302.067 9
  22677788.238    -8740649.964 7  -6688567.057 9
  24846880.113    -2821300.259 5  -2082272.121 9
  25012717.707     2073188.283 5   1708767.831 9
  23783780.574    -6625515.961 6  -5176507.372 9
 94  3  4  1 46  0.0040000  0  7  2  9  4  7 24 26 12
  23526873.777    -4141511.801 7  -3098994.149 9
  22977917.426   -11196822.096 7  -8625199.867 9
  23035793.934   -10878651.032 7  -8373518.663 9
  22690849.332    -8672013.859 7  -6635084.377 9
  24828409.176    -2918363.756 5  -2157905.963 9
  25028270.504     2154921.865 5   1772456.295 9
  23769811.769    -6698922.540 6  -5233707.270 9
 94  3  4  1 46 30.0040000  0  7  2  9  4  7 24 26 12
  23538528.355    -4080265.413 7  -3051269.695 9
  22967205.098   -11253113.739 7  -8669063.466 9
  23023352.879   -10944029.984 7  -8424463.259 9
  22703944.379    -8603198.362 7  -6581461.909 9
  24809948.816    -3015380.468 5  -2233503.312 9
  25043842.145     2236751.004 5   1836219.216 9
  23755866.777    -6772204.563 6  -5290810.104 9
 94  3  4  1 47  0.0040000  0  7  2  9  4  7 24 26 12
  23550213.301    -4018859.789 7  -3003421.164 9
  22956565.168   -11309027.923 7  -8712632.942 9
  23010977.035   -11009064.937 7  -8475139.808 9
  22717074.621    -8534200.217 7  -6527697.126 9
  24791494.824    -3112354.224 5  -2309067.228 9
  25059431.660     2318671.121 5   1900053.060 9
  23741945.785    -6845359.269 6  -5347813.726 9
 94  3  4  1 47 30.0040000  0  7  2  9  4  7 24 26 12
  23561929.762    -3957291.884 7  -2955446.182 9
  22945995.824   -11364572.918 7  -8755914.744 9
  22998669.074   -11073745.076 7  -8525539.881 9
  22730242.301    -8465004.529 7  -6473778.416 9
  24773048.434    -3209291.836 5  -2384602.977 9
  25075039.887     2400690.862 5   1963964.514 9
  23728050.105    -6918381.245 6  -5404713.924 9
 94  3  4  1 48  0.0040000  0  8  2  9  4  7 24 26 12  5
  23573674.629    -3895568.801 6  -2907350.278 9
  22935491.371   -11419772.900 7  -8798927.707 9
  22986431.738   -11138051.442 7  -8575648.692 9
  22743447.168    -8395610.585 7  -6419705.217 9
  24754611.863    -3306177.784 5  -2460098.463 9
  25090666.387     2482812.746 5   2027955.561 9
  23714180.324    -6991268.262 6  -5461508.956 9
  25531876.129      -11874.55215
 94  3  4  1 48 30.0040000  0  8  2  9  4  7 24 26 12  5
  23585449.848    -3833692.731 7  -2859135.153 9
  22925048.145   -11474647.676 7  -8841687.251 9
  22974269.519   -11201965.901 7  -8625452.134 9
  22756688.387    -8326026.780 7  -6365484.074 9
  24736186.504    -3403001.471 5  -2535545.425 9
  25106312.902     2565029.878 5   2092020.819 9
  23700335.668    -7064021.011 6  -5518199.368 9
  25518308.277      -83169.011 5
 94  3  4  1 49  0.0040000  0  8  2  9  4  7 24 26 12  5
  23597253.199    -3771666.987 7  -2810803.403 9
  22914668.184   -11529198.452 7  -8884194.333 9
  22962182.738   -11265481.265 7  -8674944.590 9
  22769963.809    -8256263.847 7  -6311123.356 9
  24717775.371    -3499754.031 5  -2610936.982 9
  25121977.301     2647349.947 5   2156166.269 9
  23686517.410    -7136636.373 6  -5574782.720 9
  25504733.348     -154510.975 5    -35210.20219
 94  3  4  1 49 30.0040000  0  8  2  9  4  7 24 26 12  5
  23609085.574    -3709485.605 7  -2762350.381 9
  22904352.051   -11583412.876 7  -8926439.323 9
  22950172.691   -11328595.291 7  -8724124.312 9
  22783272.605    -8186325.693 7  -6256626.100 9
  24699381.613    -3596411.276 5  -2686254.261 9
  25137663.691     2729780.804 5   2220398.062 9
  23672726.285    -7209109.369 6  -5631255.142 9
  25491147.746     -225898.476 5    -90836.686 9
 94  3  4  1 50  0.0040000  0  8  2  9  4  7 24 26 12  5
  23620949.137    -3647144.838 7  -2713773.163 9
  22894102.598   -11637273.952 7  -8968408.985 9
  22938235.418   -11391322.798 7  -8773002.850 9
  22796613.559    -8116219.430 7  -6201997.852 9
  24681008.551    -3692962.307 5  -2761488.781 9
  25153369.582     2812317.615 5   2284712.416 9
  23658962.168    -7281439.955 6  -5687616.598 9
  25477551.441     -297348.800 5   -146512.128 8
 94  3  4  1 50 30.0040000  0  8  2  9  4  7 24 26 12  5
  23632844.770    -3584632.363 7  -2665062.137 9
  22883923.848   -11690762.851 7  -9010088.631 9
  22926367.629   -11453686.126 7  -8821597.612 9
  22809983.855    -8045957.489 7  -6147248.288 9
  24662654.230    -3789419.754 6  -2836650.340 9
  25169094.910     2894958.142 5   2349107.610 9
  23645225.207    -7353627.556 6  -5743866.640 9
  25463941.098     -368873.450 5   -202245.496 9
 94  3  4  1 51  0.0040000  0  8  2  9  4  7 24 26 12  5
  23644773.402    -3521945.283 7  -2616215.058 9
  22873819.699   -11743859.065 7  -9051462.288 9
  22914566.582   -11515704.473 7  -8869923.558 9
  22823383.465    -7975542.151 7  -6092379.198 9
  24644314.777    -3885783.497 5  -2911738.925 9
  25184842.574     2977706.612 5   2413586.845 9
  23631516.215    -7425669.246 6  -5800002.977 9
  25450316.644     -440474.077 5   -258038.109 9
 94  3  4  1 51 30.0040000  0  8  2  9  4  7 24 26 12  5
  23656739.527    -3459064.958 7  -2567217.404 9
  22863791.543   -11796557.563 7  -9092526.038 9
  22902829.332   -11577387.822 7  -8917988.474 9
  22836814.988    -7904960.380 7  -6037380.422 9
  24625995.605    -3982057.911 5  -2986757.887 9
  25200607.199     3060547.588 5   2478138.233 9
  23617835.551    -7497561.010 6  -5856022.503 9
  25436677.715     -512150.676 5   -313889.866 9
 94  3  4  1 52  0.0040000  0  8  2  9  4  7 24 26 12  5
  23668741.074    -3395996.437 7  -2518073.103 9
  22853837.324   -11848869.279 7  -9133288.400 9
  22891154.535   -11638733.748 7  -8965790.449 9
  22850278.324    -7834209.910 7  -5982250.184 9
  24607688.277    -4078264.494 6  -3061723.995 9
  25216387.293     3143475.838 5   2542757.566 9
  23604184.441    -7569297.968 6  -5911921.397 9
  25423023.738     -583893.145 5   -369793.058 9
 94  3  4  1 52 30.0040000  0  8  2  9  4  7 24 26 12  5
  23680775.129    -3332755.142 7  -2468794.167 9
  22843955.309   -11900795.219 7  -9173750.147 9
  22879548.816   -11699725.184 7  -9013316.207 9
  22863771.129    -7763304.780 7  -5926999.434 9
  24589391.387    -4174413.153 5  -3136644.959 9
  25232182.715     3226477.769 5   2607434.362 9
  23590563.145    -7640878.095 6  -5967698.085 9
  25409361.441     -655687.878 5   -425736.902 9
 94  3  4  1 53  0.0040000  0  8  2  9  4  7 24 26 12  5
  23692842.902    -3269341.060 7  -2419380.592 9
  22834146.519   -11952342.659 7  -9213916.968 9
  22868013.512   -11760340.883 7  -9060549.183 9
  22877293.918    -7692242.983 7  -5871626.605 9
  24571107.199    -4270496.275 5  -3211514.843 9
  25247989.848     3309549.495 5   2672165.517 9
  23576972.199    -7712298.617 6  -6023350.405 9
  25395690.894     -727529.988 5   -481717.662 9
 94  3  4  1 53 30.0040000  0  8  2  9  4  7 24 26 12  5
  23704945.316    -3205743.950 7  -2369824.405 9
  22824407.863   -12003521.315 7  -9253796.418 9
  22856553.754   -11820563.279 7  -9107475.695 9
  22890847.309    -7621020.251 7  -5816128.367 9
  24552837.527    -4366506.339 5  -3286327.823 9
  25263811.769     3392689.274 5   2736949.734 9
  23563412.457    -7783555.491 6  -6078875.206 9
  25382011.879     -799412.294 5   -537729.746 9
 94  3  4  1 54  0.0040000  0  8  2  9  4  7 24 26 12  5
  23717078.910    -3141977.959 6  -2320136.604 9
  22814739.137   -12054329.038 7  -9293386.831 9
  22845172.082   -11880374.677 7  -9154081.948 9
  22904429.910    -7549639.915 7  -5760507.320 9
  24534584.043    -4462425.124 5  -3361069.647 9
  25279647.332     3475907.882 5   2801795.353 9
  23549884.824    -7854644.097 6  -6134268.890 9
  25368324.918     -871337.327 5   -593775.123 9
 94  3  4  1 54 30.0040000  0  8  2  9  4  7 24 26 12  5
  23729247.840    -3078031.876 6  -2270308.497 9
  22805142.746   -12104755.331 7  -9332680.033 9
  22833870.941   -11939759.498 7  -9200355.808 9
  22918042.152    -7478109.150 7  -5704769.057 9
  24516353.527    -4558223.519 5  -3435717.661 9
  25295497.918     3559205.701 5   2866702.677 9
  23536389.543    -7925561.382 6  -6189529.072 9
  25354630.965     -943306.211 5   -649854.708 9
 94  3  4  1 55  0.0040000  0  8  2  9  4  7 24 26 12  5
  23741451.121    -3013899.753 6  -2220335.408 9
  22795619.551   -12154802.989 7  -9371678.178 9
  22822650.129   -11998729.337 7  -9246306.301 9
  22931685.168    -7406413.633 7  -5648902.414 9
  24498151.230    -4653878.841 5  -3510254.207 9
  25311365.965     3642596.141 5   2931682.233 9
  23522927.730    -7996304.055 6  -6244653.195 9
  25340926.605    -1015319.780 5   -705969.117 9
 94  3  4  1 55 30.0040000  0  8  2  9  4  7 24 26 12  5
  23753686.754    -2949598.363 6  -2170230.426 9
  22786169.473   -12204465.168 7  -9410375.959 9
  22811504.051   -12057300.776 7  -9291946.356 9
  22945359.059    -7334554.109 7  -5592907.973 9
  24479977.363    -4749385.210 5  -3584674.645 9
  25327251.137     3726068.790 5   2996725.795 9
  23509498.629    -8066874.172 6  -6299642.860 9
  25327214.551    -1087374.350 5   -762115.483 9
 94  3  4  1 56  0.0040000  0  8  2  9  4  7 24 26 12  5
  23765955.543    -2885130.859 6  -2119996.008 9
  22776795.012   -12253726.606 7  -9448761.473 9
  22800435.652   -12115466.626 7  -9337270.367 9
  22959065.035    -7262532.704 7  -5536787.394 9
  24461832.684    -4844733.926 5  -3658972.246 9
  25343150.387     3809619.814 5   3061830.426 7
  23496103.707    -8137265.189 6  -6354492.965 9
  25313499.465    -1159452.482 6   -818280.233 9
 94  3  4  1 56 30.0040000  0  8  2  9  4  7 24 26 12  5
  23778257.559    -2820481.307 6  -2069619.724 9
  22767497.879   -12302580.576 7  -9486829.483 9
  22789442.809   -12173231.207 7  -9382281.698 9
  22972801.410    -7190345.146 7  -5480537.343 9
  24443717.043    -4939936.534 5  -3733156.016 9
  25359064.215     3893249.639 5   3126996.540 9
  23482743.621    -8207472.424 6  -6409199.867 9
  25299780.434    -1231546.394 5   -874457.243 9
 94  3  4  1 57  0.0040000  0  8  2  9  4  7 24 26 12  5
  23790593.418    -2755653.363 6  -2019104.442 9
  22758279.191   -12351027.219 7  -9524580.095 9
  22778524.926   -12230605.863 7  -9426989.195 9
  22986571.918    -7117980.920 7  -5424149.629 9
  24425624.223    -5035010.339 5  -3807239.411 9
  25374991.691     3976942.891 5   3192211.918 9
  23469418.668    -8277495.450 6  -6463763.227 9
  25286053.832    -1303675.179 5   -930661.435 9
 94  3  4  1 57 30.0040000  0  8  2  9  4  7 24 26 12  5
  23802966.379    -2690633.832 6  -1968439.867 9
  22749139.004   -12399058.236 7  -9562006.843 9
  22767684.543   -12287573.747 7  -9471379.723 9
  23000374.418    -7045450.105 7  -5367632.109 9
  24407554.559    -5129970.114 6  -3881233.953 9
  25390927.285     4060680.662 5   3257462.217 9
  23456129.613    -8347330.142 6  -6518179.835 9
  25272320.113    -1375841.139 5   -986894.593 9
 94  3  4  1 58  0.0040000  0  8  2  9  4  7 24 26 12  5
  23815376.973    -2625417.375 6  -1917621.852 9
  22740077.027   -12446681.659 7  -9599115.984 9
  22756922.988   -12344125.095 7  -9515445.669 9
  23014205.105    -6972766.155 7  -5310995.258 9
  24389503.738    -5224820.088 5  -3955142.939 9
  25406867.566     4144458.708 4   3322743.705 9
  23442876.941    -8416972.816 6  -6572446.814 9
  25258578.379    -1448059.193 5  -1043168.370 9
 94  3  4  1 58 30.0040000  0  8  2  9  4  7 24 26 12  5
  23827823.715    -2560008.921 6  -1866654.223 9
  22731093.535   -12493888.695 7  -9635900.670 9
  22746241.793   -12400254.307 7  -9559182.692 9
  23028066.762    -6899924.187 7  -5254235.282 9
  24371477.996    -5319555.973 6  -4028963.026 9
  25422818.934     4228272.578 5   3388053.115 9
  23429662.184    -8486416.440 6  -6626558.698 9
  25244822.277    -1520348.390 5  -1099497.529 9
 94  3  4  1 59  0.0040000  0  8  2  9  4  7 24 26 12  5
  23840303.879    -2494423.506 6  -1815548.704 9
  22722190.777   -12540673.795 7  -9672356.574 9
  22735641.926   -12455956.715 7  -9602587.130 9
  23041955.473    -6826939.274 7  -5197363.919 9
  24353473.152    -5414171.441 6  -4102689.290 9
  25438769.121     4312109.445 3   3453380.654 7
  23416485.332    -8555662.007 6  -6680516.251 9
  25231053.668    -1592708.436 6  -1155881.900 9
 94  3  4  1 59 30.0040000  0  8  2  9  4  7 24 26 12  5
  23852818.332    -2428660.674 6  -1764304.929 9
  22713368.387   -12587033.299 7  -9708480.848 9
  22725124.730   -12511225.613 7  -9645653.770 9
  23055868.785    -6753823.148 7  -5140390.317 9
  24335492.074    -5508656.534 6  -4176313.949 9
  25454731.582     4395978.540 5   3518733.008 9
  23403346.457    -8624706.005 6  -6734316.737 9
  25217275.473    -1665106.987 5  -1212296.322 9
 94  3  4  2  0  0.0040000  0  8  2  9  4  7 24 26 12  5
  23865363.988    -2362734.228 6  -1712933.658 9
  22704628.527   -12632962.888 7  -9744270.121 9
  22714690.598   -12566059.302 7  -9688381.287 9
  23069807.270    -6680577.388 7  -5083315.693 9
  24317539.934    -5602997.778 6  -4249826.534 9
  25470697.465     4479887.447 4   3584116.509 7
  23390246.387    -8693547.640 6  -6787959.540 9
  25203492.418    -1737537.375 5  -1268735.522 9
 94  3  4  2  0 30.0040000  0  8  2  9  4  7 24 26 12  5
  23877941.668    -2296638.726 6  -1661430.687 9
  22695973.246   -12678445.624 7  -9779711.196 9
  22704339.559   -12620452.274 7  -9730765.386 9
  23083772.144    -6607191.937 7  -5026132.222 9
  24299614.449    -5697193.051 6  -4323225.371 9
  25486674.660     4563850.414 5   3649542.249 9
  23377185.723    -8762181.125 6  -6841440.151 9
  25189705.941    -1809983.531 5  -1325186.995 9
 94  3  4  2  1  0.0040000  0  8  2  9  4  7 24 26 12  5
  23890554.629    -2230355.259 6  -1609781.230 9
  22687399.551   -12723501.790 7  -9814819.885 9
  22694073.184   -12674403.232 7  -9772805.051 9
  23097761.277    -6533678.830 7  -4968849.277 9
  24281719.066    -5791235.576 6  -4396505.182 9
  25502666.691     4647878.602 5   3715018.694 9
  23364165.465    -8830603.094 6  -6894755.942 9
  25175919.473    -1882430.152 5  -1381638.827 9
 94  3  4  2  1 30.0040000  0  8  2  9  4  7 24 26 12  5
  23903205.371    -2163875.007 6  -1557978.423 9
  22678905.746   -12768137.313 7  -9849600.795 9
  22683889.168   -12727918.352 7  -9814505.106 9
  23111774.105    -6460039.605 7  -4911468.056 9
  24263852.855    -5885119.137 6  -4469661.144 9
  25518669.191     4731973.239 4   3780546.843 8
  23351185.652    -8898812.065 6  -6947905.764 9
  25162131.262    -1954892.679 5  -1438103.087 9
 94  3  4  2  2  0.0040000  0  8  2  9  4  7 24 26 12  5
  23915890.168    -2097213.331 6  -1506034.263 9
  22670490.996   -12812356.189 7  -9884057.044 9
  22673788.082   -12780998.688 7  -9855866.369 9
  23125813.434    -6386262.820 7  -4853979.653 9
  24246019.324    -5978837.696 6  -4542688.519 9
  25534686.215     4816139.870 5   3846131.314 9
  23338246.746    -8966806.675 6  -7000888.550 9
  25148332.051    -2027399.312 5  -1494601.664 9
 94  3  4  2  2 30.0040000  0  8  2  9  4  7 24 26 12  5
  23928610.723    -2030368.703 6  -1453947.539 9
  22662154.410   -12856165.455 7  -9918194.127 9
  22663769.918   -12833646.511 7  -9896890.609 9
  23139881.199    -6312335.780 7  -4796374.165 9
  24228216.394    -6072388.845 6  -4615585.442 9
  25550715.629     4900371.508 4   3911766.281 9
  23325349.168    -9034583.080 6  -7053701.308 9
  25134527.434    -2099955.337 5  -1551138.750 9
 94  3  4  2  3  0.0040000  0  8  2  9  4  7 24 26 12  5
  23941366.590    -1963333.398 6  -1401712.245 9
  22653895.949   -12899564.624 7  -9952011.645 9
  22653835.559   -12885851.053 7  -9937569.427 9
  23153977.051    -6238263.294 7  -4738655.349 9
  24210448.059    -6165765.730 6  -4688346.581 9
  25566752.105     4984651.673 5   3977438.985 9
  23312493.269    -9102141.405 6  -7106344.130 9
  25120708.996    -2172559.016 5  -1607713.044 9
 94  3  4  2  3 30.0040000  0  8  2  9  4  7 24 26 12  5
  23954156.324    -1896124.712 6  -1349341.841 9
  22645721.816   -12942519.776 7  -9985483.174 9
  22643989.215   -12937595.748 7  -9977889.929 9
  23168102.793    -6164029.313 7  -4680810.685 9
  24192712.613    -6258968.751 6  -4760972.247 9
  25582798.262     5068974.870 5   4043145.439 9
  23299679.262    -9169479.377 6  -7158815.249 9
  25106886.480    -2245212.817 6  -1664326.244 9
 94  3  4  2  4  0.0040000  0  7  2  9  4  7 24 12  5
  23966978.215    -1828749.830 6  -1296841.937 9
  22637631.598   -12985031.719 7 -10018609.345 9
  22634232.137   -12988867.711 7 -10017842.062 9
  23182259.082    -6089637.606 7  -4622843.118 9
  24175008.449    -6352002.136 6  -4833465.731 9
  23286907.527    -9236594.697 6  -7211112.877 9
  25093053.801    -2317903.556 6  -1720968.339 9
 94  3  4  2  4 30.0040000  0  7  2  9  4  7 24 12  5
  23979833.769    -1761188.808 6  -1244197.005 9
  22629628.887   -13027086.653 7 -10051379.406 9
  22624567.176   -13039658.846 7 -10057419.533 9
  23196439.066    -6015121.735 7  -4564778.794 9
  24157337.395    -6444866.105 6  -4905827.194 9
  23274179.262    -9303482.550 6  -7263233.253 9
  25079213.324    -2390613.018 5  -1777625.018 9
 94  3  4  2  5  0.0040000  0  7  2  9  4  7 24 12  5
  23992728.324    -1693432.705 6  -1191400.041 9
  22621714.387   -13068676.547 7 -10083787.091 9
  22614992.527   -13089972.774 7 -10096625.148 9
  23210640.027    -5940494.209 7  -4506627.471 9
  24139698.512    -6537559.354 6  -4978055.642 9
  23261494.832    -9370139.659 6  -7315173.829 9
  25065377.684    -2463336.296 5  -1834292.381 9
 94  3  4  2  5 30.0040000  0  7  2  9  4  7 24 12  5
  24005657.176    -1625489.227 6  -1138457.065 9
  22613887.129   -13109809.645 7 -10115838.830 9
  22605504.996   -13139830.418 7 -10135475.220 9
  23224863.230    -5865750.825 7  -4448385.859 9
  24122092.363    -6630078.747 6  -5050148.606 9
  23248854.769    -9436563.630 6  -7366932.732 9
  25051531.980    -2536082.589 5  -1890977.747 9
 94  3  4  2  6  0.0040000  0  7  2  9  4  7 24 12  5
  24018624.980    -1557338.245 6  -1085352.419 9
  22606144.184   -13150500.980 7 -10147546.347 9
  22596100.559   -13189248.948 7 -10173983.125 9
  23239107.816    -5790896.047 7  -4390057.452 9
  24104521.840    -6722416.832 6  -5122100.319 9
  23236259.355    -9502752.789 6  -7418508.668 9
  25037687.215    -2608848.150 5  -1947678.113 9
 94  3  4  2  6 30.0040000  0  7  2  9  4  7 24 12  5
  24031636.074    -1488969.171 6  -1032077.810 9
  22598487.277   -13190737.669 7 -10178899.588 9
  22586781.254   -13238224.347 7 -10212145.735 9
  23253376.129    -5715916.377 7  -4331631.730 9
  24086985.066    -6814571.685 6  -5193909.236 9
  23223708.957    -9568705.912 6  -7469900.679 9
  25023836.309    -2681637.901 5  -2004397.332 9
 94  3  4  2  7  0.0040000  0  7  2  9  4  7 24 12  5
  24044686.230    -1420387.549 6   -978637.564 9
  22590916.988   -13230519.696 7 -10209898.554 9
  22577546.965   -13286751.001 7 -10249958.670 9
  23267674.894    -5640773.966 7  -4273079.197 9
  24069481.887    -6906546.245 6  -5265577.678 9
  23211204.191    -9634418.617 6  -7521105.354 9
  25009976.035    -2754466.572 5  -2061146.844 9
 94  3  4  2  7 30.0040000  0  7  2  9  4  7 24 12  5
  24057774.645    -1351608.740 6   -925043.709 9
  22583433.019   -13269847.769 7 -10240543.791 9
  22568400.652   -13334814.014 7 -10287410.338 9
  23282003.566    -5565477.806 7  -4214406.859 9
  24052013.762    -6998342.442 6  -5337107.143 9
  23198744.832    -9699892.707 6  -7572124.096 9
  24996109.145    -2827343.454 5  -2117933.991 9
 94  3  4  2  8  0.0040000  0  7  2  9  4  7 24 12  5
  24070898.051    -1282645.447 6   -871306.083 9
  22576037.777   -13308711.829 7 -10270827.451 9
  22559346.293   -13382395.399 7 -10324486.701 9
  23296359.004    -5490039.292 7  -4155623.590 9
  24034579.965    -7089956.090 6  -5408494.349 9
  23186331.879    -9765122.863 6  -7622952.756 9
  24982234.043    -2900256.812 5  -2174749.474 9
 94  3  4  2  8 30.0040000  0  7  2  9  4  7 24 12  5
  24084051.715    -1213522.453 6   -817444.010 9
  22568730.176   -13347113.290 7 -10300750.649 9
  22550383.371   -13429494.832 7 -10361187.525 9
  23310740.387    -5414467.701 7  -4096736.637 9
  24017181.551    -7181394.001 6  -5479744.629 9
  23173965.582    -9830108.424 6  -7673590.827 9
  24968351.754    -2973205.645 5  -2231592.685 9
 94  3  4  2  9  0.0040000  0  7  2  9  4  7 24 12  5
  24097233.020    -1144252.985 6   -763467.812 9
  22561508.902   -13385062.717 7 -10330321.618 9
  22541510.949   -13476121.007 7 -10397519.572 9
  23325142.941    -5338780.259 7  -4037759.402 9
  23999817.699    -7272641.613 6  -5550846.603 9
  23161646.277    -9894846.884 6  -7724036.351 9
  24954462.105    -3046189.193 5  -2288462.927 9
 94  3  4  2  9 30.0040000  0  7  2  9  4  7 24 12  5
  24110444.293    -1074830.119 6   -709372.070 9
  22554373.824   -13422558.432 7 -10359539.041 9
  22532727.488   -13522279.802 7 -10433487.422 9
  23339562.684    -5263002.902 7  -3978712.097 9
  23982491.449    -7363681.982 6  -5621787.114 9
  23149374.816    -9959333.243 6  -7774285.427 9
  24940575.793    -3119174.458 5  -2345334.464 9
 94  3  4  2 10  0.0040000  0  7  2  9  4  7 24 12  5
  24123685.309    -1005244.457 6   -655149.476 9
  22547327.027   -13459586.952 7 -10388392.424 9
  22524028.676   -13567987.957 7 -10469104.125 9
  23353999.199    -5187136.394 7  -3919595.324 9
  23965205.855    -7454519.100 6  -5692569.241 9
  23137152.191   -10023564.647 6  -7824335.844 9
  24926685.949    -3192162.017 5  -2402207.843 9
 94  3  4  2 10 30.0040000  0  7  2  9  4  7 24 12  5
  24136961.793     -935475.879 6   -600784.360 9
  22540369.215   -13496150.480 7 -10416883.472 9
  22515419.926   -13613229.557 7 -10504357.281 9
  23368456.090    -5111168.008 7  -3860399.175 9
  23947959.043    -7545158.224 6  -5763197.076 9
  23124978.348   -10087538.385 6  -7874185.478 9
  24912795.199    -3265156.701 5  -2459086.755 9
 94  3  4  2 11  0.0040000  0  7  2  9  4  7 24 12  5
  24150274.613     -865517.072 6   -546270.996 9
  22533498.520   -13532255.464 7 -10445017.216 9
  22506900.145   -13658002.017 7 -10539244.870 9
  23382929.738    -5035107.633 7  -3801131.350 9
  23930748.770    -7635594.771 6  -5833667.074 9
  23112853.426   -10151255.157 6  -7923834.884 9
  24898901.457    -3338157.920 5  -2515970.786 9
 94  3  4  2 11 30.0040000  0  7  2  9  4  7 24 12  5
  24163625.230     -795361.178 6   -491604.056 9
  22526720.043   -13567877.499 7 -10472774.635 9
  22498471.801   -13702290.380 7 -10573755.242 9
  23397421.840    -4958948.159 7  -3741786.290 9
  23913577.762    -7725832.364 6  -5903982.028 9
  23100779.254   -10214704.875 6  -7973276.193 9
  24885011.629    -3411156.701 5  -2572852.901 9
 94  3  4  2 12  0.0040000  0  7  2  9  4  7 24 12  5
  24177014.199     -725005.566 6   -436781.514 9
  22520033.285   -13603015.414 7 -10500154.820 9
  22490138.137   -13746085.112 7 -10607880.966 9
  23411937.394    -4882670.589 7  -3682349.217 9
  23896441.910    -7815872.980 6  -5974143.517 9
  23088755.988   -10277887.650 6  -8022509.497 9
  24871116.129    -3484179.319 5  -2629753.593 9
 94  3  4  2 12 30.0040000  0  7  2  9  4  7 24 12  5
  24190440.535     -654447.918 6   -381801.510 9
  22513434.457   -13637691.655 7 -10527175.256 9
  22481898.848   -13789381.492 7 -10641618.362 9
  23426476.504    -4806268.034 7  -3622814.756 9
  23879351.184    -7905692.535 6  -6044132.735 9
  23076784.082   -10340800.362 6  -8071532.358 9
  24857217.949    -3557216.089 5  -2686665.316 9
 94  3  4  2 13  0.0040000  0  7  2  9  4  7 24 12  5
  24203904.520     -583687.141 6   -326663.227 9
  22506926.527   -13671892.801 7 -10553825.488 9
  22473749.887   -13832204.066 7 -10674986.562 9
  23441036.738    -4729751.047 7  -3563191.120 9
  23862302.215    -7995281.112 6  -6113941.977 9
  23064864.160   -10403439.860 6  -8120342.324 9
  24843312.434    -3630279.804 5  -2743598.080 9
 94  3  4  2 13 30.0040000  0  7  2  9  4  7 24 12  5
  24217410.324     -512717.295 6   -271362.068 9
  22500510.769   -13705606.303 7 -10580095.743 9
  22465691.348   -13874553.077 7 -10707985.747 9
  23455622.473    -4653103.266 7  -3503465.576 9
  23845297.824    -8084643.129 6  -6183574.699 9
  23052996.863   -10465802.948 6  -8168936.908 9
  24829402.660    -3703383.917 5  -2800562.243 9
 94  3  4  2 14  0.0040000  0  7  2  9  4  7 24 12  5
  24230957.441     -441528.301 6   -215890.121 9
  22494183.051   -13738859.700 7 -10606007.466 9
  22457722.293   -13916430.119 7 -10740617.172 9
  23470233.355    -4576322.587 7  -3443636.466 9
  23828336.848    -8173772.728 6  -6253026.283 9
  23041182.176   -10527888.418 6  -8217315.165 9
  24815485.480    -3776524.445 6  -2857554.849 9
 94  3  4  2 14 30.0040000  0  7  2  9  4  7 24 12  5
  24244543.176     -370130.735 6   -160255.635 9
  22487943.160   -13771650.497 7 -10631558.724 9
  22449845.020   -13957825.275 7 -10772873.101 9
  23484867.262    -4499421.896 7  -3383713.844 9
  23811420.652    -8262665.477 6  -6322293.323 9
  23029421.902   -10589689.739 6  -8265472.009 9
  24801561.941    -3849686.811 5  -2914564.432 9
 94  3  4  2 15  0.0040000  0  7  2  9  4  7 24 12  5
  24258168.746     -298529.157 6   -104462.196 9
  22481794.168   -13803963.707 7 -10656737.834 9
  22442062.871   -13998721.328 7 -10804740.119 9
  23499522.316    -4422408.785 7  -3323703.619 9
  23794549.019    -8351330.930 6  -6391383.249 9
  23017716.090   -10651203.525 6  -8313404.800 9
  24787637.098    -3922865.898 6  -2971587.058 9
 94  3  4  2 15 30.0040000  0  7  2  9  4  7 24 12  5
  24271832.949     -226727.970 6    -48513.240 9
  22475734.512   -13835806.716 7 -10681550.554 9
  22434380.223   -14039092.658 7 -10836198.259 9
  23514198.519    -4345283.793 7  -3263606.217 9
  23777721.762    -8439750.471 6  -6460281.550 9
  23006066.504   -10712422.488 6  -8361107.853 9
  24773715.066    -3996029.904 6  -3028597.931 9
 94  3  4  2 16  0.0040000  0  7  2  9  4  7 24 12  5
  24285531.066     -154732.360 6      7587.249 9
  22469763.324   -13867183.320 7 -10705999.841 9
  22426797.848   -14078940.140 7 -10867248.210 9
  23528890.098    -4268080.364 7  -3203447.694 9
  23760944.480    -8527919.125 6  -6528984.352 9
  22994471.910   -10773352.595 6  -8408585.837 9
  24759793.855    -4069178.691 6  -3085596.931 9
 94  3  4  2 16 30.0040000  0  7  2  9  4  7 24 12  5
  24299270.941      -82541.273 6     63840.037 9
  22463887.652   -13898061.674 7 -10730060.875 9
  22419314.832   -14118262.515 7 -10897888.991 9
  23543597.465    -4190790.648 7  -3143221.934 9
  23744216.332    -8615823.871 6  -6597481.510 9
  22982934.254   -10833983.351 6  -8455830.554 9
  24745877.762    -4142314.352 5  -3142585.712 9
 94  3  4  2 17  0.0040000  0  7  2  9  4  7 24 12  5
  24313046.910      -10143.210 6    120254.126 9
  22458107.629   -13928436.354 7 -10753729.443 9
  22411929.449   -14157072.524 7 -10928130.516 9
  23558323.051    -4113408.400 7  -3082924.069 9
  23727539.465    -8703462.420 6  -6665771.236 9
  22971454.074   -10894312.383 6  -8502840.159 9
  24731963.137    -4215433.885 5  -3199561.914 9
 94  3  4  2 17 30.0040000  0  7  2  9  4  7 24 12  5
  24326864.605       62467.125 6    176833.615 9
  22452425.629   -13958295.139 7 -10776996.009 9
  22404640.293   -14195377.824 7 -10957978.766 9
  23573066.863    -4035932.567 7  -3022553.283 9
  23710914.363    -8790831.642 6  -6733851.103 9
  22960032.402   -10954333.628 6  -8549609.929 9
  24718049.395    -4288548.180 5  -3256534.027 9
 94  3  4  2 18  0.0040000  0  7  2  9  4  7 24 12  5
  24340720.512      135284.188 6    233574.165 9
  22446842.855   -13987632.674 7 -10799856.410 9
  22397446.684   -14233179.100 7 -10987434.273 9
  23587831.598    -3958341.873 7  -2962092.996 9
  23694336.144    -8877944.766 6  -6801731.398 9
  22948669.723   -11014044.980 6  -8596138.230 9
  24704135.262    -4361669.174 5  -3313511.379 9
 94  3  4  2 18 30.0040000  0  7  2  9  4  7 24 12  5
  24354613.613      208286.356 6    290458.978 9
  22441358.207   -14016454.821 7 -10822315.213 9
  22390349.395   -14270477.983 7 -11016498.304 9
  23602622.309    -3880614.036 7  -2901525.831 9
  23677807.621    -8964804.835 6  -6869414.506 9
  22937366.996   -11073441.670 6  -8642421.341 9
  24690220.426    -4434787.852 5  -3370486.910 9
 94  3  4  2 19  0.0040000  0  7  2  9  4  7 24 12  5
  24368538.449      281469.749 6    347485.032 9
  22435970.785   -14044765.959 7 -10844375.824 9
  22383349.660   -14307262.032 7 -11045161.164 9
  23617436.269    -3802766.644 7  -2840865.515 9
  23661327.379    -9051409.241 6  -6936898.396 9
  22926124.223   -11132522.096 6  -8688458.012 9
  24676306.004    -4507902.322 5  -3427459.155 9
 94  3  4  2 19 30.0040000  0  7  2  9  4  7 24 12  5
  24382499.363      354825.492 6    404645.345 9
  22430678.410   -14072577.933 7 -10866047.475 9
  22376449.762   -14343520.440 7 -11073414.429 9
  23632271.144    -3724809.581 7  -2780119.749 9
  23644896.598    -9137749.611 6  -7004176.534 9
  22914941.551   -11191287.725 6  -8734249.385 9
  24662392.355    -4581023.176 5  -3484436.370 9
 94  3  4  2 20  0.0040000  0  7  2  9  4  7 24 12  5
  24396490.980      428359.550 6    461944.605 9
  22425481.074   -14099890.724 7 -10887330.158 9
  22369652.121   -14379241.870 7 -11101249.283 9
  23647128.105    -3646733.233 7  -2719281.024 9
  23628520.887    -9223808.379 6  -7071235.246 9
  22903820.262   -11249730.109 6  -8779788.880 9
  24648481.332    -4654138.234 6  -3541409.080 9
 94  3  4  2 20 30.0040000  0  7  2  9  4  7 24 12  5
  24410524.012      502095.600 6    519401.273 9
  22420380.824   -14126692.277 7 -10908214.471 9
  22362957.012   -14414424.188 7 -11128664.037 9
  23662002.402    -3568568.831 7  -2658373.696 9
  23612200.332    -9309565.673 6  -7138059.039 9
  22892761.809   -11307842.334 6  -8825071.107 9
  24634566.504    -4727253.641 6  -3598382.089 9
 94  3  4  2 21  0.0040000  0  7  2  9  4  7 24 12  5
  24424594.910      576052.460 6    577030.000 9
  22415378.199   -14152982.587 7 -10928700.410 9
  22356364.426   -14449067.384 7 -11155658.701 9
  23676892.074    -3490324.586 7  -2597404.159 9
  23595939.465    -9395021.464 6  -7204647.901 9
  22881765.621   -11365627.588 6  -8870098.553 9
  24620649.105    -4800384.414 5  -3655367.030 9
 94  3  4  2 21 30.0040000  0  7  2  9  4  7 24 12  5
  24438713.496      650238.375 6    634837.212 9
  22410473.785   -14178755.335 7 -10948783.057 9
  22349877.269   -14483160.057 7 -11182224.392 9
  23691800.762    -3411977.389 7  -2536354.390 9
  23579735.105    -9480180.757 6  -7271005.721 9
  22870832.441   -11423081.803 6  -8914868.044 9
  24606731.730    -4873521.409 5  -3712356.854 9
 94  3  4  2 22  0.0040000  0  7  2  9  4  7 24 12  5
  24452873.480      724652.312 6    692822.060 9
  22405668.395   -14204005.166 7 -10968458.239 9
  22343490.168   -14516721.829 7 -11208376.387 9
  23706729.145    -3333527.403 6  -2475224.524 9
  23563583.574    -9565055.189 6  -7337141.571 9
  22859962.137   -11480205.826 6  -8959380.241 9
  24592814.621    -4946662.432 6  -3769349.789 9
 94  3  4  2 22 30.0040000  0  7  2  9  4  7 24 12  5
  24467079.246      799301.667 6    750990.406 9
  22400963.418   -14228729.968 7 -10987724.299 9
  22337205.895   -14549745.598 7 -11234109.163 9
  23721678.824    -3254963.325 6  -2414005.756 9
  23547487.293    -9649643.114 6  -7403054.174 9
  22849156.520   -11536989.119 6  -9003626.935 9
  24578898.332    -5019791.748 6  -3826333.623 9
 94  3  4  2 23  0.0040000  0  7  2  9  4  7 24 12  5
  24481327.473      874174.848 6    809333.137 9
  22396356.121   -14252942.786 7 -11006591.416 9
  22331024.019   -14582233.973 7 -11259424.752 9
  23736654.879    -3176268.635 7  -2352685.222 9
  23531441.910    -9733962.112 6  -7468757.229 9
  22838415.543   -11593433.073 6  -9047609.210 9
  24564988.129    -5092896.317 6  -3883298.161 9
 94  3  4  2 23 30.0040000  0  7  2  9  4  7 24 12  5
  24495616.887      949266.379 5    867845.987 9
  22391845.902   -14276643.822 7 -11025059.742 9
  22324942.269   -14614192.516 7 -11284327.486 9
  23751651.301    -3097459.396 6  -2291275.427 9
  23515449.066    -9818004.471 6  -7534244.716 9
  22827740.457   -11649531.381 6  -9091322.147 9
  24551081.254    -5165965.244 6  -3940234.942 9
 94  3  4  2 24  0.0040000  0  7  2  9  4  7 24 12  5
  24509947.027     1024572.352 6    926525.959 9
  22387433.480   -14299830.890 7 -11043127.568 9
  22318958.090   -14645638.762 7 -11308831.023 9
  23766665.699    -3018557.773 6  -2229793.644 9
  23499509.894    -9901760.051 6  -7599508.749 9
  22817131.801   -11705280.011 6  -9134762.606 9
  24537184.520    -5238997.013 6  -3997142.752 9
 94  3  4  2 24 30.0040000  0  7  2  9  4  7 24 12  5
  24524317.637     1100092.987 6    985373.229 9
  22383119.918   -14322498.128 7 -11060790.339 9
  22313075.543   -14676553.438 7 -11332920.354 9
  23781695.699    -2939575.210 6  -2168248.785 9
  23483624.566    -9985232.803 6  -7664552.386 9
  22806589.574   -11760679.411 6  -9177930.936 9
  24523295.160    -5311991.434 6  -4054021.458 9
 94  3  4  2 25  0.0040000  0  7  2  9  4  7 24 12  5
  24538729.957     1175823.653 6   1044384.109 9
  22378909.098   -14344626.123 7 -11078032.920 9
  22307294.918   -14706929.044 7 -11356589.630 9
  23796738.395    -2860527.020 7  -2106652.792 9
  23467797.621   -10068410.667 6  -7729366.251 9
  22796114.879   -11815723.643 6  -9220822.514 9
  24509411.832    -5384942.170 6  -4110866.143 9
 94  3  4  2 25 30.0040000  0  7  2  9  4  7 24 12  5
  24553178.449     1251754.729 6   1103551.189 9
  22374803.660   -14366200.803 7 -11094844.342 9
  22301620.574   -14736747.838 7 -11379825.028 9
  23811792.504    -2781415.783 6  -2045007.659 9
  23452029.926   -10151271.481 6  -7793933.056 9
  22785708.801   -11870408.068 6  -9263433.722 9
  24495538.637    -5457844.389 6  -4167673.004 9
 94  3  4  2 26  0.0040000  0  7  2  9  4  7 24 12  5
  24567665.863     1327892.211 6   1162879.099 9
  22370807.152   -14387202.977 7 -11111209.666 9
  22296055.121   -14765993.565 7 -11402613.883 9
  23826863.902    -2702214.745 6  -1983292.571 9
  23436323.848   -10233808.229 6  -7858247.345 9
  22775372.246   -11924727.127 6  -9305760.227 9
  24481675.168    -5530699.698 6  -4224443.325 9
 94  3  4  2 26 30.0040000  0  7  2  9  4  7 24 12  5
  24582195.379     1404238.319 6   1222369.554 9
  22366916.730   -14407644.104 7 -11127137.808 9
  22290601.566   -14794652.769 7 -11424945.699 9
  23841953.223    -2622919.600 6  -1921504.147 9
  23420679.621   -10316018.539 7  -7922307.278 9
  22765105.402   -11978679.586 6  -9347801.078 9
  24467818.066    -5603515.552 6  -4281182.900 9
 94  3  4  2 27  0.0040000  0  7  2  9  4  7 24 12  5
  24596762.910     1480785.320 6   1282016.562 9
  22363132.527   -14427533.307 7 -11142635.874 9
  22285259.285   -14822727.414 7 -11446822.023 9
  23857060.973    -2543528.709 6  -1859641.110 9
  23405100.324   -10397888.391 7  -7986101.910 9
  22754908.840   -12032262.900 6  -9389554.280 9
  24453968.582    -5676296.524 6  -4337895.289 9
 94  3  4  2 27 30.0040000  0  7  2  9  4  7 24 12  5
  24611369.871     1557552.485 6   1341835.142 9
  22359453.699   -14446864.589 7 -11157699.199 9
  22280027.551   -14850221.127 7 -11468245.664 9
  23872190.965    -2464023.847 7  -1797689.257 9
  23389586.668   -10479414.109 7  -8049628.394 9
  22744783.543   -12085471.723 6  -9431015.674 9
  24440123.215    -5749055.305 6  -4394590.384 9
 94  3  4  2 28  0.0040000  0  7  2  9  4  7 24 12  5
  24626021.801     1634551.024 5   1401833.990 9
  22355880.144   -14465645.770 7 -11172333.879 9
  22274902.285   -14877153.406 7 -11489231.823 9
  23887340.543    -2384410.435 7  -1735652.821 9
  23374137.215   -10560598.687 7  -8112889.053 9
  22734730.074   -12138302.466 6  -9472182.465 9
  24426280.645    -5821800.040 6  -4451274.549 9
 94  3  4  2 28 30.0040000  0  7  2  9  4  7 24 12  5
  24640716.394     1711774.351 5   1462007.990 9
  22352406.848   -14483896.432 7 -11186555.165 9
  22269881.949   -14903534.366 7 -11509788.384 9
  23902505.715    -2304714.975 6  -1673552.453 9
  23358753.730   -10641441.025 7  -8175883.032 9
  22724747.980   -12190759.008 6  -9513057.666 9
  24412441.754    -5894525.462 6  -4507943.659 9
 94  3  4  2 29  0.0040000  0  7  2  9  4  7 24 12  5
  24655454.129     1789220.474 5   1522355.602 9
  22349035.988   -14501608.547 7 -11200356.809 9
  22264966.168   -14929367.294 7 -11529917.905 9
  23917689.973    -2224920.538 6  -1611374.963 9
  23343436.652   -10721934.649 7  -8238605.290 9
  22714838.293   -12242834.529 6  -9553635.975 9
  24398607.996    -5967216.243 6  -4564585.778 9
 94  3  4  2 29 30.0040000  0  7  2  9  4  7 24 12  5
  24670236.832     1866900.102 5   1582885.176 9
  22345769.215   -14518778.377 7 -11213735.888 9
  22260152.816   -14954662.043 7 -11549628.061 9
  23932893.512    -2145023.972 6  -1549117.889 9
  23328185.402   -10802075.513 7  -8301052.671 9
  22705002.348   -12294523.304 6  -9593912.928 9
  24384783.590    -6039868.708 6  -4621198.039 9
 94  3  4  2 30  0.0040000  0  7  2  9  4  7 24 12  5
  24685060.293     1944803.919 5   1643589.438 9
  22342602.059   -14535420.757 7 -11226703.973 9
  22255443.949   -14979407.980 7 -11568910.576 9
  23948114.801    -2065038.312 6  -1486791.394 9
  23313004.019   -10881858.526 7  -8363221.206 9
  22695240.488   -12345822.342 6  -9633886.184 9
  24370967.855    -6112469.881 6  -4677770.327 9
 94  3  4  2 30 30.0040000  0  7  2  9  4  7 24 12  5
  24699927.644     2022925.739 5   1704463.546 9
  22339536.332   -14551533.699 7 -11239259.501 9
  22250841.660   -15003591.792 7 -11587755.074 9
  23963352.949    -1984963.068 6  -1424395.102 9
  23297888.879   -10961288.149 7  -8425114.377 9
  22685552.965   -12396730.358 6  -9673554.757 9
  24357163.348    -6185011.178 6  -4734295.963 9
 94  3  4  2 31  0.0040000  0  7  2  9  4  7 24 12  5
  24714832.051     2101254.425 5   1765498.863 9
  22336573.723   -14567099.829 7 -11251388.944 9
  22246346.816   -15027212.642 7 -11606160.902 9
  23978606.918    -1904798.591 6  -1361929.263 9
  23282838.145   -11040381.707 7  -8486745.681 9
  22675939.676   -12447247.993 6  -9712919.130 9
  24343366.527    -6257511.775 6  -4790789.884 9
 94  3  4  2 31 30.0040000  0  7  2  9  4  7 24 12  5
  24729776.277     2179788.051 5   1826693.880 9
  22333718.668   -14582104.839 7 -11263081.146 9
  22241960.363   -15050263.787 7 -11624122.810 9
  23993877.316    -1824553.324 6  -1299400.487 9
  23267850.449   -11119139.598 7  -8548115.414 9
  22666401.223   -12497373.124 6  -9751977.660 9
  24329577.051    -6329979.521 6  -4847258.221 9
 94  3  4  2 32  0.0040000  0  7  2  9  4  7 24 12  5
  24744760.129     2258520.789 5   1888044.069 9
  22330973.840   -14596528.513 7 -11274320.367 9
  22237686.137   -15072725.806 7 -11641625.657 9
  24009165.121    -1744215.122 6  -1236799.286 9
  23252927.848   -11197559.498 7  -8609221.798 9
  22656939.684   -12547094.073 6  -9790721.242 9
  24315796.207    -6402395.618 6  -4903686.303 9
 94  3  4  2 32 30.0040000  0  7  2  9  4  7 24 12  5
  24759779.738     2337451.602 5   1949548.574 9
  22328341.926   -14610358.319 7 -11285096.826 9
  22233523.598   -15094598.719 7 -11658669.459 9
  24024472.418    -1663776.585 6  -1174119.902 9
  23238068.441   -11275646.237 7  -8670068.563 9
  22647555.629   -12596407.165 6  -9829147.010 9
  24302024.668    -6474766.298 6  -4960079.001 9
 94  3  4  2 33  0.0040000  0  7  2  9  4  7 24 12  5
  24774839.215     2416579.424 6   2011206.593 9
  22325821.793   -14623602.664 7 -11295417.082 9
  22229470.574   -15115896.712 7 -11675265.272 9
  24039797.309    -1583242.238 6  -1111365.856 9
  23223272.582   -11353398.151 7  -8730654.425 9
  22638248.566   -12645315.552 6  -9867257.424 9
  24288260.207    -6547100.567 6  -5016443.334 9
 94  3  4  2 33 30.0040000  0  7  2  9  4  7 24 12  5
  24789936.238     2495915.354 6   2073026.755 9
  22323407.051   -14636289.270 7 -11305302.734 9
  22225526.355   -15136622.667 7 -11691415.337 9
  24055139.098    -1502621.717 6  -1048544.658 9
  23208541.973   -11430806.096 7  -8790972.256 9
  22629018.371   -12693820.103 6  -9905053.159 9
  24274504.238    -6619385.906 6  -5072769.521 9
 94  3  4  2 34  0.0040000  0  7  2  9  4  7 24 12  5
  24805077.379     2575480.838 6   2135025.829 9
  22321100.324   -14648411.039 7 -11314748.255 9
  22221693.394   -15156764.926 7 -11707110.572 9
  24070494.676    -1421928.647 6   -985666.933 9
  23193878.965   -11507863.231 7  -8851016.743 9
  22619867.238   -12741910.379 6  -9942526.083 9
  24260759.637    -6691617.379 6  -5129053.758 9
 94  3  4  2 34 30.0040000  0  7  2  9  4  7 24 12  5
  24820265.512     2655294.699 6   2197218.413 9
  22318900.410   -14659973.950 7 -11323758.304 9
  22217972.402   -15176319.964 7 -11722348.240 9
  24085862.660    -1341166.942 6   -922735.722 9
  23179282.402   -11584565.907 7  -8910785.032 9
  22610794.949   -12789584.890 6  -9979675.034 9
  24247023.082    -6763801.736 6  -5185301.271 9
 94  3  4  2 35  0.0040000  0  7  2  9  4  7 24 12  5
  24835500.191     2735360.987 6   2259607.708 9
  22316808.691   -14670965.987 7 -11332323.514 9
  22214363.176   -15195285.934 7 -11737126.892 9
  24101244.418    -1260336.853 6   -859751.234 9
  23164755.363   -11660905.770 7  -8970270.600 9
  22601801.910   -12836843.460 6 -10016499.871 9
  24233298.254    -6835924.875 6  -5241501.079 9
 94  3  4  2 35 30.0040000  0  7  2  9  4  7 24 12  5
  24850783.855     2815681.863 5   2322195.361 9
  22314828.293   -14681373.998 7 -11340433.635 9
  22210867.660   -15213654.679 7 -11751440.167 9
  24116640.043    -1179430.406 6   -796707.233 9
  23150298.941   -11736878.072 7  -9029469.755 9
  22592889.262   -12883679.677 6 -10052995.604 9
  24219586.816    -6907977.067 6  -5297645.603 9
 94  3  4  2 36  0.0040000  0  7  2  9  4  7 24 12  5
  24866118.387     2896252.851 6   2384977.944 9
  22312960.551   -14691188.053 7 -11348080.939 9
  22207485.676   -15231427.701 7 -11765289.245 9
  24132054.207    -1098428.769 6   -733589.074 9
  23135913.574   -11812471.680 7  -9088373.823 9
  22584057.894   -12930088.708 6 -10089158.463 9
  24205891.207    -6979950.916 6  -5353729.082 9
 94  3  4  2 36 30.0040000  0  7  2  9  4  7 24 12  5
  24881494.934     2977062.194 6   2447946.234 9
  22311201.316   -14700432.173 7 -11355284.132 9
  22204213.113   -15248624.526 7 -11778689.337 9
  24147489.941    -1017311.795 6   -670381.041 9
  23121602.480   -11887678.520 7  -9146976.517 9
  22575307.137   -12976074.437 6 -10124991.473 9
  24192212.004    -7051833.608 6  -5409741.530 9
 94  3  4  2 37  0.0040000  0  7  2  9  4  7 24 12  5
  24896914.996     3058108.574 5   2511099.217 9
  22309548.543   -14709115.735 7 -11362050.537 9
  22201049.566   -15265248.880 7 -11791643.352 9
  24162947.395     -936085.702 6   -607087.974 9
  23107367.379   -11962482.479 7  -9205265.277 9
  22566638.223   -13021629.551 6 -10160488.938 9
  24178552.066    -7123621.295 6  -5465679.950 9
 94  3  4  2 37 30.0040000  0  7  2  9  4  7 24 12  5
  24912383.801     3139390.523 5   2574435.768 9
  22308000.441   -14717253.172 7 -11368391.386 9
  22197995.059   -15281300.739 7 -11804151.263 9
  24178422.809     -854759.572 6   -543716.958 9
  23093209.699   -12036879.950 7  -9263237.285 9
  22558052.129   -13066750.461 6 -10195648.066 9
  24164906.223    -7195327.978 6  -5521555.244 9
 94  3  4  2 38  0.0040000  0  7  2  9  4  7 24 12  5
  24927891.824     3220899.851 5   2637949.503 9
  22306555.910   -14724845.695 7 -11374307.627 9
  22195049.582   -15296778.127 7 -11816211.537 9
  24193916.059     -773345.685 6   -480277.548 9
  23079131.004   -12110865.967 7  -9320888.675 9
  22549548.051   -13111439.506 6 -10230470.672 9
  24151272.996    -7266969.122 6  -5577379.474 9
 94  3  4  2 38 30.0040000  0  7  2  9  4  7 24 12  5
  24943444.527     3302626.978 5   2701632.943 9
  22305217.746   -14731877.258 7 -11379786.765 9
  22192214.629   -15311677.498 7 -11827821.409 9
  24209422.238     -691858.237 6   -416780.832 9
  23065130.512   -12184438.397 7  -9378217.801 9
  22541126.973   -13155692.292 6 -10264953.338 9
  24137650.582    -7338558.537 6  -5633163.386 9
 94  3  4  2 39  0.0040000  0  7  2  9  4  7 24 12  5
  24959038.644     3384559.629 5   2765476.512 9
  22303990.863   -14738324.333 7 -11384810.457 9
  22189492.934   -15325980.158 7 -11838966.315 9
  24224942.301     -610303.396 6   -353231.601 9
  23051209.473   -12257590.800 7  -9435219.631 9
  22532789.941   -13199503.680 6 -10299092.057 9
  24124034.988    -7410107.239 6  -5688915.587 9
 94  3  4  2 39 30.0040000  0  7  2  9  4  7 24 12  5
  24974665.309     3466682.177 5   2829468.072 9
  22302878.121   -14744172.920 7 -11389367.790 9
  22186885.348   -15339680.760 7 -11849642.082 9
  24240473.238     -528683.680 6   -289631.810 9
  23037366.902   -12330335.516 7  -9491903.784 9
  22524536.355   -13242876.712 6 -10332889.202 9
  24110427.519    -7481614.805 6  -5744635.725 9
 94  3  4  2 40  0.0040000  0  7  2  9  4  7 24 12  5
  24990327.637     3548997.375 5   2893609.769 9
  22301880.848   -14749413.076 7 -11393451.025 9
  22184392.973   -15352778.152 7 -11859847.821 9
  24256018.879     -446993.353 6   -225977.011 9
  23023602.449   -12402667.528 7  -9548266.348 9
  22516367.660   -13285803.504 6 -10366338.629 9
  24096829.434    -7553071.873 6  -5800316.517 9
 94  3  4  2 40 30.0040000  0  7  2  9  4  7 24 12  5
  25006029.738     3631510.722 5   2957905.801 9
  22300999.684   -14754043.601 7 -11397059.221 9
  22182015.605   -15365274.854 7 -11869585.488 9
  24271575.957     -365237.734 6   -162271.323 9
  23009914.754   -12474597.182 7  -9604315.386 9
  22508284.598   -13328280.140 6 -10399437.287 9
  24083244.824    -7624461.506 6  -5855944.766 9
 94  3  4  2 41  0.0040000  0  7  2  9  4  7 24 12  5
  25021775.098     3714240.112 5   3022370.278 9
  22300231.434   -14758079.937 7 -11400204.414 9
  22179751.855   -15377168.305 7 -11878853.087 9
  24287144.441     -283426.910 6    -98522.637 9
  22996300.902   -12546138.985 7  -9660062.208 9
  22500287.277   -13370306.425 6 -10432185.020 9
  24069676.660    -7695762.951 6  -5911504.296 9
 94  3  4  2 41 30.0040000  0  7  2  9  4  7 24 12  5
  25037560.066     3797198.461 5   3087013.127 9
  22299574.762   -14761531.228 7 -11402893.728 9
  22177602.238   -15388466.446 7 -11887656.814 9
  24302721.285     -201567.318 6    -34735.941 9
  22982757.098   -12617311.829 7  -9715521.521 9
  22492375.441   -13411883.942 6 -10464583.065 9
  24056126.480    -7766966.944 6  -5966987.890 9
 94  3  4  2 42  0.0040000  0  7  2  9  4  7 24 12  5
  25053394.324     3880404.276 5   3151848.776 9
  22299029.621   -14764394.163 7 -11405124.583 9
  22175565.316   -15399169.706 7 -11895996.991 9
  24318313.355     -119629.419 6     29111.787 9
  22969286.402   -12688098.937 7  -9770680.270 9
  22484550.715   -13453002.820 6 -10496623.728 9
  24042597.988    -7838063.030 7  -6022387.405 9
 94  3  4  2 42 30.0000000  0  7  2  9  4  7 24 12  5
  23870105.336     3963856.623 5   3216876.580 9
  21099423.320   -14766689.087 7 -11406912.827 9
  20974471.102   -15409282.613 7 -11903877.158 9
  23134751.406      -37609.629 6     93023.300 9
  21756718.828   -12758502.709 7  -9825540.306 9
  21277643.109   -13493664.835 6 -10528308.397 9
  22829919.805    -7909046.722 6  -6077699.335 9
 94  3  4  2 43  0.0000000  0  7  2  9  4  7 24 12  5
  23886031.445     4047557.492 5   3282098.048 9
  21099092.414   -14768425.906 7 -11408266.183 9
  20972659.852   -15418799.575 7 -11911292.948 9
  23150377.180       44503.129 6    157007.271 9
  21743399.711   -12828499.286 7  -9880083.056 9
  21269993.086   -13533866.222 6 -10559634.136 9
  22816431.422    -7979931.454 7  -6132934.153 9
 94  3  4  2 43 30.0000000  0  7  2  9  4  7 24 12  5
  23902006.242     4131492.652 5   3347501.978 9
  21098869.750   -14769597.787 7 -11409179.334 9
  20970963.148   -15427715.924 7 -11918240.725 9
  23166023.773      126727.252 6    221078.014 9
  21730161.891   -12898065.403 7  -9934290.379 9
  21262431.398   -13573603.007 6 -10590597.850 9
  22802957.742    -8050734.894 6  -6188105.619 9
 94  3  4  2 44  0.0000000  0  7  2  9  4  7 24 12  5
  23918018.875     4215650.463 5   3413079.503 9
  21098753.930   -14770207.842 7 -11409654.687 9
  20969378.203   -15436044.240 7 -11924730.294 9
  23181688.758      209045.862 6    285222.382 9
  21717008.258   -12967186.290 7  -9988150.765 9
  21254958.172   -13612874.418 6 -10621198.929 9
  22789496.711    -8121473.941 6  -6243226.915 9
 94  3  4  2 44 30.0000000  0  7  2  9  4  7 24 12  5
  23934078.211     4300034.030 5   3478832.904 9
  21098744.281   -14770254.199 7 -11409690.806 9
  20967906.469   -15443779.208 7 -11930757.515 9
  23197365.945      291431.034 6    349418.613 9
  21703939.945   -13035858.654 7 -10041661.656 9
  21247574.898   -13651673.452 6 -10651431.927 9
  22776048.148    -8192146.268 6  -6298296.205 9
 94  3  4  2 45  0.0000000  0  7  2  9  4  7 24 12  5
  23950177.398     4384634.500 5   3544755.319 9
  21098848.023   -14769711.880 7 -11409268.210 9
  20966550.430   -15450906.347 7 -11936311.109 9
  23213054.258      373873.611 6    413659.588 9
  21690958.180   -13104082.859 7 -10094823.330 9
  21240281.609   -13689999.518 6 -10681296.375 9
  22762612.328    -8262748.179 6  -6353310.629 9
 94  3  4  2 45 30.0000000  0  7  2  9  4  7 24 12  5
  23966316.430     4469452.657 5   3610847.348 9
  21099064.344   -14768576.070 7 -11408383.152 9
  20965307.359   -15457436.973 7 -11941399.885 9
  23228753.172      456372.222 6    477944.210 9
  21678056.023   -13171885.156 7 -10147656.254 9
  21233078.500   -13727851.790 6 -10710791.637 9
  22749192.664    -8333274.930 7  -6408266.493 9
 94  3  4  2 46  0.0000000  0  7  2  9  4  7 24 12  5
  23982501.070     4554501.454 5   3677119.103 9
  21099392.961   -14766849.303 7 -11407037.611 9
  20964177.023   -15463375.378 7 -11946027.185 9
  23244462.406      538925.246 6    542271.249 9
  21665230.375   -13239280.135 7 -10200171.775 9
  21225965.766   -13765228.755 6 -10739916.524 9
  22735788.141    -8403711.837 7  -6463152.331 9
 94  3  4  2 46 30.0000000  0  7  2  9  4  7 24 12  5
  23998729.367     4639787.251 4   3743575.527 9
  21099834.992   -14764524.892 7 -11405226.372 9
  20963165.992   -15468689.677 7 -11950168.175 9
  23260185.477      621544.057 6    606649.535 9
  21652482.250   -13306271.655 7 -10252372.921 9
  21218943.906   -13802128.815 6 -10768669.801 9
  22722405.391    -8474045.180 7  -6517957.487 9
 94  3  4  2 47  0.0000000  0  7  2  9  4  7 24 12  5
  24015006.008     4725315.707 5   3810221.008 9
  21100394.484   -14761585.536 7 -11402935.956 9
  20962276.117   -15473365.900 7 -11953811.965 9
  23275922.320      704247.490 6    671093.790 9
  21639812.500   -13372851.747 7 -10304253.474 9
  21212014.133   -13838544.989 6 -10797046.023 9
  22709040.273    -8544273.475 7  -6572680.767 9
 94  3  4  2 47 30.0000000  0  7  2  9  4  7 24 12  5
  24031328.406     4811090.651 5   3877058.613 9
  21101069.133   -14758039.142 7 -11400172.527 9
  20961505.742   -15477414.541 7 -11956966.726 9
  23291675.016      787029.249 6    735599.061 9
  21627222.945   -13439010.932 7 -10355806.037 9
  21205176.617   -13874476.850 6 -10825044.859 9
  22695694.242    -8614409.667 7  -6627332.301 9
 94  3  4  2 48  0.0000000  0  7  2  9  4  7 24 12  5
  24047694.945     4897096.903 5   3944076.444 9
  21101861.742   -14753875.027 7 -11396927.755 9
  20960858.000   -15480818.953 7 -11959619.501 9
  23307440.930      869877.379 6    800156.051 9
  21614717.906   -13504724.224 7 -10407011.168 9
  21198431.844   -13909920.755 6 -10852663.465 9
  22682368.195    -8684436.444 7  -6681898.555 9
 94  3  4  2 48 30.0000000  0  7  2  9  4  7 24 12  5
  24064103.789     4983321.872 5   4011264.735 9
  21102771.695   -14749091.214 7 -11393200.102 9
  20960330.133   -15483591.063 7 -11961779.560 9
  23323215.914      952776.658 6    864752.907 9
  21602299.977   -13569981.442 7 -10457860.907 9
  21191779.523   -13944879.170 6 -10879903.774 9
  22669061.383    -8754366.725 7  -6736389.642 9
 94  3  4  2 49  0.0000000  0  7  2  9  4  7 24 12  5
  24080550.156     5069750.377 5   4078611.557 9
  21103796.977   -14743705.205 7 -11389003.205 9
  20959917.188   -15485761.505 7 -11963470.792 9
  23339003.172     1035736.601 6    929397.024 9
  21589969.891   -13634776.759 7 -10508350.726 9
  21185220.172   -13979349.197 6 -10906763.518 9
  22655772.016    -8824200.269 7  -6790805.332 9
 94  3  4  2 49 30.0000000  0  7  2  9  4  7 24 12  5
  24097034.742     5156373.944 5   4146110.341 9
  21104933.125   -14737732.423 7 -11384349.086 9
  20959615.852   -15487343.566 7 -11964703.547 9
  23354800.852     1118756.191 6    994087.627 9
  21577728.727   -13699101.450 7 -10558473.816 9
  21178754.313   -14013327.154 6 -10933239.828 9
  22642503.805    -8893924.466 7  -6845135.833 9
 94  3  4  2 50  0.0000000  0  7  2  9  4  7 24 12  5
  24113555.141     5243197.009 5   4213764.705 7
  21106180.406   -14731178.455 7 -11379242.095 9
  20959424.961   -15488347.998 7 -11965486.204 9
  23370612.195     1201843.799 6   1058831.202 9
  21565578.664   -13762951.937 7 -10608227.406 9
  21172382.898   -14046808.849 6 -10959329.444 9
  22629257.078    -8963534.434 7  -6899377.322 9
 94  3  4  2 50 30.0000000  0  7  2  9  4  7 24 12  5
  24130119.273     5330229.926 5   4281582.492 8
  21107536.414   -14724052.424 7 -11373689.341 9
  20959340.164   -15488793.132 7 -11965833.040 9
  23386438.172     1285011.171 6   1123636.962 9
  21553517.375   -13826333.017 7 -10657615.217 9
  21166106.078   -14079793.781 6 -10985031.969 9
  22616030.367    -9033043.341 7  -6953540.064 9
 94  3  4  2 51  0.0000000  0  6  9  4  7 24 12  5
  21109002.063   -14716350.212 7 -11367687.607 9
  20959363.797   -15488668.394 7 -11965735.823 9
  23402280.641     1368263.810 6   1188509.146 9
  21541545.039   -13889248.377 7 -10706640.135 9
  21159924.406   -14112279.152 6 -11010345.223 9
  22602823.367    -9102444.682 7  -7007618.980 9
 94  3  4  2 51 30.0000000  0  6  9  4  7 24 12  5
  21110581.750   -14708051.857 7 -11361221.349 9
  20959497.227   -15487967.145 7 -11965189.371 9
  23418135.852     1451583.477 6   1253433.556 9
  21529660.477   -13951701.736 7 -10755305.052 9
  21153838.094   -14144262.559 6 -11035267.336 9
  22589637.320    -9171737.451 7  -7061613.308 9
 94  3  4  2 52  0.0000000  0  6  9  4  7 24 12  5
  21112275.609   -14699149.902 7 -11354284.746 9
  20959741.828   -15486681.345 7 -11964187.430 9
  23434001.953     1534959.948 6   1318402.239 9
  21517862.758   -14013704.215 7 -10803618.635 9
  21147847.453   -14175743.946 6 -11059798.269 9
  22576471.672    -9240924.959 7  -7115525.609 9
 94  3  4  2 52 30.0000000  0  6  9  4  7 24 12  5
  21114086.047   -14689634.467 7 -11346870.110 9
  20960102.469   -15484785.663 7 -11962710.257 9
  23449877.281     1618384.583 6   1383408.428 9
  21506148.516   -14075259.400 7 -10851583.676 9
  21141953.773   -14206715.657 6 -11083932.054 9
  22563328.891    -9309990.034 7  -7169342.507 9
 94  3  4  2 53  0.0000000  0  6  9  4  7 24 12  5
  21116011.687   -14679516.921 7 -11338986.298 9
  20960582.258   -15482266.051 7 -11960746.903 9
  23465757.625     1701838.322 6   1448437.311 9
  21494519.789   -14136367.662 7 -10899200.467 9
  21136157.602   -14237174.847 6 -11107666.471 9
  22550211.203    -9378922.285 7  -7223055.911 9
 94  3  4  2 53 30.0000000  0  6  9  4  7 24 12  5
  21118048.242   -14668813.209 7 -11330645.735 9
  20961177.859   -15479134.731 7 -11958306.894 9
  23481642.875     1785310.706 6   1513480.736 9
  21482975.891   -14197033.550 7 -10946472.555 9
  21130458.867   -14267121.846 6 -11131001.776 9
  22537118.891    -9447721.363 7  -7276665.537 9
 94  3  4  2 54  0.0000000  0  6  9  4  7 24 12  5
  21120195.602   -14657529.503 7 -11321853.225 9
  20961892.063   -15475380.135 7 -11955381.210 9
  23497531.828     1868812.518 6   1578547.091 9
  21471516.945   -14257249.401 7 -10993393.962 9
  21124858.609   -14296550.921 6 -11153933.502 9
  22524053.039    -9516386.220 7  -7330170.578 9
 94  3  4  2 54 30.0000000  0  6  9  4  7 24 12  5
  21122453.266   -14645665.127 7 -11312608.245 9
  20962724.484   -15471010.745 7 -11951976.472 9
  23513428.617     1952350.530 6   1643641.635 9
  21460143.359   -14317018.471 7 -11039967.228 9
  21119357.008   -14325462.284 6 -11176461.820 9
  22511011.203    -9584918.308 7  -7383572.162 9
 94  3  4  2 55  0.0000000  0  6  9  4  7 24 12  5
  21124823.273   -14633211.803 7 -11302904.348 9
  20963672.703   -15466026.671 7 -11948092.761 9
  23529336.203     2035943.166 6   1708778.770 9
  21448854.586   -14376339.862 7 -11086191.651 9
  21113954.898   -14353850.648 6 -11198582.604 9
  22497996.180    -9653314.834 7  -7436868.117 9
 94  3  4  2 55 30.0000000  0  6  9  4  7 24 12  5
  21127308.938   -14620148.036 7 -11292724.777 9
  20964738.719   -15460424.368 7 -11943727.311 9
  23545253.578     2119597.817 6   1773964.246 9
  21437652.461   -14435206.276 7 -11132061.545 9
  21108651.648   -14381719.449 6 -11220298.537 9
  22485003.289    -9721592.352 7  -7490071.334 9
 94  3  4  2 56  0.0000000  0  6  9  4  7 24 12  5
  21129914.344   -14606458.196 7 -11282057.361 9
  20965925.000   -15454190.091 7 -11938869.416 9
  23561187.031     2203316.777 6   1839199.786 9
  21426540.078   -14493603.755 7 -11177566.038 9
  21103447.406   -14409068.164 6 -11241609.207 9
  22472031.680    -9789756.353 7  -7543186.097 9
 94  3  4  2 56 30.0000000  0  6  9  4  7 24 12  5
  21132639.281   -14592136.308 7 -11270897.441 9
  20967233.117   -15447314.940 7 -11933512.136 9
  23577131.313     2287113.839 6   1904496.217 9
  21415520.250   -14551512.067 7 -11222689.361 9
  21098343.773   -14435887.941 6 -11262507.718 9
  22459083.828    -9857798.896 7  -7596206.221 9
 94  3  4  2 57  0.0000000  0  6  9  4  7 24 12  5
  21135482.250   -14577200.169 7 -11259258.884 9
  20968663.227   -15439800.380 7 -11927656.621 9
  23593093.586     2370988.153 6   1969852.816 9
  21404598.273   -14608907.649 7 -11267413.152 9
  21093340.297   -14462180.992 6 -11282995.791 9
  22446156.664    -9925729.310 7  -7649138.975 9
 94  3  4  2 57 30.0000000  0  6  9  4  7 24 12  5
  21138440.086   -14561655.265 7 -11247145.967 9
  20970211.453   -15431663.690 7 -11921316.331 9
  23609065.859     2454934.631 6   2035265.688 9
  21393776.477   -14665776.502 7 -11311726.510 9
  21088437.508   -14487944.951 6 -11303071.586 9
  22433250.969    -9993551.919 7  -7701987.721 9
 94  3  4  2 58  0.0000000  0  6  9  4  7 24 12  5
  21141508.297   -14545529.943 7 -11234580.778 9
  20971873.375   -15422928.152 7 -11914509.400 9
  23625056.711     2538955.560 6   2100736.521 9
  21383052.109   -14722135.984 7 -11355642.948 9
  21083635.367   -14513179.980 6 -11322735.231 9
  22420366.266   -10061257.424 7  -7754745.224 9
 94  3  4  2 58 30.0000000  0  6  9  4  7 24 12  5
  21144686.570   -14528829.452 7 -11221567.405 9
  20973647.977   -15413604.079 7 -11907243.877 9
  23641058.859     2623056.021 6   2166269.376 9
  21372423.492   -14777988.205 7 -11399164.125 9
  21078935.133   -14537879.947 6 -11341981.945 9
  22407508.430   -10128830.702 7  -7807399.681 9
 94  3  4  2 59  0.0000000  0  6  9  4  7 24 12  5
  21147975.883   -14511544.074 7 -11208098.275 9
  20975531.648   -15403706.402 7 -11899531.384 9
  23657076.680     2707220.734 6   2231852.260 9
  21361889.547   -14833343.277 7 -11442297.913 9
  21074336.734   -14562044.705 6 -11360811.611 9
  22394675.727   -10196265.598 7  -7859946.319 9
 94  3  4  2 59 30.0000000  0  6  9  4  7 24 12  5
  21151377.945   -14493664.527 7 -11194166.163 9
  20977522.734   -15393242.445 7 -11891377.633 9
  23673100.008     2791434.092 5   2297473.072 9
  21351444.547   -14888230.025 7 -11485066.773 9
  21069839.438   -14585677.872 6 -11379227.053 9
  22381870.313   -10263558.010 7  -7912381.935 9
 94  3  4  3  0  0.0000000  0  6  9  4  7 24 12  5
  21154894.078   -14475189.034 7 -11179769.668 9
  20979625.539   -15382193.018 7 -11882767.677 9
  23689137.344     2875706.514 6   2363139.887 9
  21341091.484   -14942637.689 7 -11527462.321 9
  21065444.539   -14608772.777 6 -11397223.069 9
  22369093.328   -10330700.675 7  -7964700.860 9
 94  3  4  3  0 30.0000000  0  6  9  4  7 24 12  5
  21158525.445   -14456103.704 7 -11164897.976 9
  20981840.438   -15370553.072 7 -11873697.573 9
  23705181.492     2960022.894 6   2428840.959 9
  21330830.961   -14996557.732 7 -11569477.905 9
  21061152.047   -14631329.626 6 -11414799.821 9
  22356343.539   -10397703.159 7  -8016910.553 9
 94  3  4  3  1  0.0000000  0  6  9  4  7 24 12  5
  21162273.203   -14436409.769 7 -11149552.050 9
  20984170.344   -15358308.621 7 -11864156.425 9
  23721234.750     3044374.683 6   2494569.622 9
  21320663.969   -15049985.258 7 -11611109.713 9
  21056962.172   -14653347.106 6 -11431956.289 9
  22343617.664   -10464575.741 7  -8069019.034 9
 94  3  4  3  1 30.0000000  0  6  9  4  7 24 12  5
  21166134.992   -14416114.413 7 -11133737.487 9
  20986619.305   -15345440.121 7 -11854129.009 9
  23737292.180     3128763.987 6   2560327.512 9
  21310591.813   -15102916.116 7 -11652354.506 9
  21052876.156   -14674819.701 6 -11448688.172 9
  22330917.219   -10531316.400 7  -8121024.699 9
 94  3  4  3  2  0.0000000  0  6  9  4  7 24 12  5
  21170109.727   -14395229.312 7 -11117463.382 9
  20989186.180   -15331948.648 7 -11843616.159 9
  23753357.914     3213186.624 6   2626111.390 9
  21300615.031   -15155344.736 7 -11693207.944 9
  21048893.430   -14695748.344 6 -11464996.186 9
  22318240.898   -10597929.029 7  -8172930.616 9
 94  3  4  3  2 30.0000000  0  6  9  4  7 24 12  5
  21174198.406   -14373741.851 7 -11100719.907 9
  20991871.219   -15317840.223 7 -11832622.563 9
  23769425.617     3297624.212 6   2691906.900 9
  21290732.180   -15207278.087 7 -11733675.458 9
  21045014.648   -14716131.387 6 -11480879.066 9
  22305591.172   -10664406.858 7  -8224731.496 9
 94  3  4  3  3  0.0000000  0  6  9  4  7 24 12  5
  21178400.203   -14351663.368 7 -11083515.894 9
  20994673.047   -15303117.065 7 -11821149.960 9
  23785499.484     3382095.205 6   2757728.460 9
  21280942.781   -15258721.704 7 -11773761.361 9
  21041240.094   -14735967.278 6 -11496335.596 9
  22292969.352   -10730732.287 7  -8276413.613 9
 94  3  4  3  3 30.0000000  0  6  9  4  7 24 12  5
  21182712.750   -14328999.727 7 -11065855.914 9
  20997587.711   -15287799.312 7 -11809214.032 9
  23801582.758     3466606.123 6   2823581.112 9
  21271244.617   -15309685.623 7 -11813473.484 9
  21037569.773   -14755254.770 6 -11511364.799 9
  22280377.656   -10796901.832 7  -8327974.271 9
 94  3  4  3  4  0.0000000  0  6  9  4  7 24 12  5
  21187136.836   -14305750.558 7 -11047739.679 9
  21000612.953   -15271901.632 7 -11796826.218 9
  23817673.625     3551168.218 6   2889473.658 9
  21261640.117   -15360154.538 7 -11852799.876 9
  21034004.500   -14773990.501 6 -11525964.055 9
  22267814.969   -10862922.077 7  -8379418.581 9
 94  3  4  3  4 30.0000000  0  6  9  4  7 24 12  5
  21191671.555   -14281918.877 7 -11029169.537 9
  21003749.492   -15255418.020 7 -11783981.827 9
  23833774.672     3635787.620 5   2955410.857 9
  21252131.766   -15410124.813 7 -11891737.727 9
  21030544.422   -14792173.106 6 -11540132.307 9
  22255279.953   -10928791.219 7  -8430745.156 9
 94  3  4  3  5  0.0000000  0  6  9  4  7 24 12  5
  21196315.148   -14257519.766 7 -11010157.242 9
  21006998.625   -15238345.026 7 -11770678.183 9
  23849891.758     3720471.235 6   3021398.083 9
  21242720.273   -15459581.403 7 -11930275.302 9
  21027190.016   -14809800.540 6 -11553867.957 9
  22242773.281   -10994517.424 7  -8481960.356 9
 94  3  4  3  5 30.0000000  0  6  9  4  7 24 12  5
  21201068.359   -14232539.536 7 -10990692.124 9
  21010360.625   -15220676.936 7 -11756910.824 9
  23866013.500     3805201.552 5   3087421.711 9
  21233409.031   -15508508.664 7 -11968400.403 9
  21023941.836   -14826870.132 6 -11567168.925 9
  22230291.938   -11060105.448 7  -8533067.875 9
 94  3  4  3  6  0.0000000  0  6  9  4  7 24 12  5
  21205935.859   -14206961.772 7 -10970761.395 9
  21013840.148   -15202391.161 7 -11742662.152 9
  23882147.695     3889987.689 5   3153488.833 9
  21224202.414   -15556893.945 7 -12006103.191 9
  21020800.438   -14843378.483 6 -11580032.560 9
  22217839.898   -11125542.139 7  -8584057.479 9
 94  3  4  3  6 30.0000000  0  6  9  4  7 24 12  5
  21210917.031   -14180787.875 7 -10950366.145 9
  21017438.969   -15183480.085 7 -11727926.238 9
  23898289.719     3974810.123 5   3219584.246 9
  21215094.688   -15604754.184 7 -12043396.856 9
  21017765.227   -14859328.609 6 -11592461.220 9
  22205418.961   -11190814.752 7  -8634919.233 9
 94  3  4  3  7  0.0000000  0  6  9  4  7 24 12  5
  21216012.797   -14154006.717 7 -10929497.708 9
  21021154.578   -15163955.151 7 -11712711.994 9
  23914437.453     4059668.882 5   3285707.960 9
  21206087.891   -15652086.511 7 -12080279.163 9
  21014837.234   -14874715.582 6 -11604451.057 9
  22193030.938   -11255912.594 7  -8685644.788 9
